<?xml version="1.0" encoding="UTF-8" standalone="no" ?>
<gpx xmlns="http://www.topografix.com/GPX/1/1" xmlns:xsi="http://www.w3.org/2001/XMLSchema-instance" xsi:schemaLocation="http://www.topografix.com/GPX/1/1 http://www.topografix.com/GPX/1/1/gpx.xsd" version="1.1" creator="VisuGPX - https://www.visugpx.com">
  <metadata>
    <name>83 - D+  -  les Mayons</name>
    <desc><![CDATA[83 - D+  -  les Mayons ' Décauville]]></desc>
  </metadata>
  <trk>
    <name><![CDATA[Les Mayons - Décauville]]></name>
    <trkseg>
      <trkpt lat="43.32219" lon="6.37784">
        <ele>130.3</ele>
        <time>2023-05-07T07:28:46Z</time>
      </trkpt>
      <trkpt lat="43.32216" lon="6.37779">
        <ele>130.3</ele>
        <time>2023-05-07T07:28:49Z</time>
      </trkpt>
      <trkpt lat="43.32213" lon="6.37773">
        <ele>130.1</ele>
        <time>2023-05-07T07:28:52Z</time>
      </trkpt>
      <trkpt lat="43.3221" lon="6.37768">
        <ele>129.9</ele>
        <time>2023-05-07T07:28:55Z</time>
      </trkpt>
      <trkpt lat="43.32207" lon="6.37762">
        <ele>129.7</ele>
        <time>2023-05-07T07:28:59Z</time>
      </trkpt>
      <trkpt lat="43.32201" lon="6.3776">
        <ele>129.6</ele>
        <time>2023-05-07T07:29:03Z</time>
      </trkpt>
      <trkpt lat="43.32194" lon="6.37758">
        <ele>129.6</ele>
        <time>2023-05-07T07:29:09Z</time>
      </trkpt>
      <trkpt lat="43.3219" lon="6.37755">
        <ele>129.9</ele>
        <time>2023-05-07T07:29:13Z</time>
      </trkpt>
      <trkpt lat="43.32185" lon="6.37752">
        <ele>130.2</ele>
        <time>2023-05-07T07:29:19Z</time>
      </trkpt>
      <trkpt lat="43.32179" lon="6.37744">
        <ele>130.2</ele>
        <time>2023-05-07T07:29:29Z</time>
      </trkpt>
      <trkpt lat="43.32174" lon="6.37741">
        <ele>130.4</ele>
        <time>2023-05-07T07:29:33Z</time>
      </trkpt>
      <trkpt lat="43.32168" lon="6.37737">
        <ele>130.5</ele>
        <time>2023-05-07T07:29:38Z</time>
      </trkpt>
      <trkpt lat="43.3216" lon="6.37735">
        <ele>130.6</ele>
        <time>2023-05-07T07:29:48Z</time>
      </trkpt>
      <trkpt lat="43.32156" lon="6.37735">
        <ele>130.8</ele>
        <time>2023-05-07T07:29:52Z</time>
      </trkpt>
      <trkpt lat="43.32151" lon="6.37735">
        <ele>130.9</ele>
        <time>2023-05-07T07:29:58Z</time>
      </trkpt>
      <trkpt lat="43.32147" lon="6.37739">
        <ele>131.5</ele>
        <time>2023-05-07T07:30:04Z</time>
      </trkpt>
      <trkpt lat="43.32142" lon="6.37742">
        <ele>132</ele>
        <time>2023-05-07T07:30:11Z</time>
      </trkpt>
      <trkpt lat="43.32138" lon="6.37749">
        <ele>132.9</ele>
        <time>2023-05-07T07:30:16Z</time>
      </trkpt>
      <trkpt lat="43.32134" lon="6.37756">
        <ele>133.3</ele>
        <time>2023-05-07T07:30:22Z</time>
      </trkpt>
      <trkpt lat="43.3213" lon="6.37755">
        <ele>133.3</ele>
        <time>2023-05-07T07:30:47Z</time>
      </trkpt>
      <trkpt lat="43.32124" lon="6.37752">
        <ele>133.1</ele>
        <time>2023-05-07T07:30:52Z</time>
      </trkpt>
      <trkpt lat="43.32118" lon="6.37748">
        <ele>132.9</ele>
        <time>2023-05-07T07:30:58Z</time>
      </trkpt>
      <trkpt lat="43.32113" lon="6.37744">
        <ele>133</ele>
        <time>2023-05-07T07:31:03Z</time>
      </trkpt>
      <trkpt lat="43.32108" lon="6.3774">
        <ele>133.4</ele>
        <time>2023-05-07T07:31:09Z</time>
      </trkpt>
      <trkpt lat="43.32104" lon="6.37736">
        <ele>133.9</ele>
        <time>2023-05-07T07:31:14Z</time>
      </trkpt>
      <trkpt lat="43.321" lon="6.37732">
        <ele>134.2</ele>
        <time>2023-05-07T07:31:20Z</time>
      </trkpt>
      <trkpt lat="43.32096" lon="6.37729">
        <ele>134.5</ele>
        <time>2023-05-07T07:31:25Z</time>
      </trkpt>
      <trkpt lat="43.32091" lon="6.37726">
        <ele>134.7</ele>
        <time>2023-05-07T07:31:31Z</time>
      </trkpt>
      <trkpt lat="43.32084" lon="6.37727">
        <ele>135.5</ele>
        <time>2023-05-07T07:31:51Z</time>
      </trkpt>
      <trkpt lat="43.3208" lon="6.3773">
        <ele>136.2</ele>
        <time>2023-05-07T07:31:56Z</time>
      </trkpt>
      <trkpt lat="43.32075" lon="6.37733">
        <ele>136.9</ele>
        <time>2023-05-07T07:32:02Z</time>
      </trkpt>
      <trkpt lat="43.32071" lon="6.37733">
        <ele>137.4</ele>
        <time>2023-05-07T07:32:06Z</time>
      </trkpt>
      <trkpt lat="43.32066" lon="6.37733">
        <ele>137.8</ele>
        <time>2023-05-07T07:32:13Z</time>
      </trkpt>
      <trkpt lat="43.32062" lon="6.3773">
        <ele>137.9</ele>
        <time>2023-05-07T07:32:17Z</time>
      </trkpt>
      <trkpt lat="43.32058" lon="6.37726">
        <ele>138</ele>
        <time>2023-05-07T07:32:23Z</time>
      </trkpt>
      <trkpt lat="43.32062" lon="6.37728">
        <ele>137.8</ele>
        <time>2023-05-07T07:32:36Z</time>
      </trkpt>
      <trkpt lat="43.32057" lon="6.37726">
        <ele>138.1</ele>
        <time>2023-05-07T07:32:42Z</time>
      </trkpt>
      <trkpt lat="43.32052" lon="6.37724">
        <ele>138.2</ele>
        <time>2023-05-07T07:32:48Z</time>
      </trkpt>
      <trkpt lat="43.32048" lon="6.37724">
        <ele>138.1</ele>
        <time>2023-05-07T07:32:51Z</time>
      </trkpt>
      <trkpt lat="43.32043" lon="6.37723">
        <ele>138.1</ele>
        <time>2023-05-07T07:32:56Z</time>
      </trkpt>
      <trkpt lat="43.32039" lon="6.37726">
        <ele>138.6</ele>
        <time>2023-05-07T07:32:59Z</time>
      </trkpt>
      <trkpt lat="43.32035" lon="6.37729">
        <ele>139.2</ele>
        <time>2023-05-07T07:33:04Z</time>
      </trkpt>
      <trkpt lat="43.32031" lon="6.37733">
        <ele>140.1</ele>
        <time>2023-05-07T07:33:08Z</time>
      </trkpt>
      <trkpt lat="43.32027" lon="6.37737">
        <ele>141.3</ele>
        <time>2023-05-07T07:33:13Z</time>
      </trkpt>
      <trkpt lat="43.32023" lon="6.37738">
        <ele>142.1</ele>
        <time>2023-05-07T07:33:17Z</time>
      </trkpt>
      <trkpt lat="43.32018" lon="6.37739">
        <ele>142.8</ele>
        <time>2023-05-07T07:33:23Z</time>
      </trkpt>
      <trkpt lat="43.32013" lon="6.37737">
        <ele>143.1</ele>
        <time>2023-05-07T07:33:28Z</time>
      </trkpt>
      <trkpt lat="43.32007" lon="6.37735">
        <ele>143.4</ele>
        <time>2023-05-07T07:33:34Z</time>
      </trkpt>
      <trkpt lat="43.32001" lon="6.37736">
        <ele>144.4</ele>
        <time>2023-05-07T07:33:38Z</time>
      </trkpt>
      <trkpt lat="43.31994" lon="6.37737">
        <ele>144.3</ele>
        <time>2023-05-07T07:33:44Z</time>
      </trkpt>
      <trkpt lat="43.3199" lon="6.3774">
        <ele>144.5</ele>
        <time>2023-05-07T07:33:48Z</time>
      </trkpt>
      <trkpt lat="43.31985" lon="6.37742">
        <ele>144.6</ele>
        <time>2023-05-07T07:33:54Z</time>
      </trkpt>
      <trkpt lat="43.3198" lon="6.37744">
        <ele>144.6</ele>
        <time>2023-05-07T07:33:59Z</time>
      </trkpt>
      <trkpt lat="43.31975" lon="6.37746">
        <ele>144.6</ele>
        <time>2023-05-07T07:34:05Z</time>
      </trkpt>
      <trkpt lat="43.3197" lon="6.37745">
        <ele>144.7</ele>
        <time>2023-05-07T07:34:09Z</time>
      </trkpt>
      <trkpt lat="43.31965" lon="6.37744">
        <ele>145.6</ele>
        <time>2023-05-07T07:34:14Z</time>
      </trkpt>
      <trkpt lat="43.31961" lon="6.37741">
        <ele>146</ele>
        <time>2023-05-07T07:34:19Z</time>
      </trkpt>
      <trkpt lat="43.31956" lon="6.37738">
        <ele>146.3</ele>
        <time>2023-05-07T07:34:25Z</time>
      </trkpt>
      <trkpt lat="43.31951" lon="6.37736">
        <ele>146.8</ele>
        <time>2023-05-07T07:34:30Z</time>
      </trkpt>
      <trkpt lat="43.31946" lon="6.37734">
        <ele>147.3</ele>
        <time>2023-05-07T07:34:36Z</time>
      </trkpt>
      <trkpt lat="43.31941" lon="6.37736">
        <ele>148</ele>
        <time>2023-05-07T07:34:41Z</time>
      </trkpt>
      <trkpt lat="43.31935" lon="6.37738">
        <ele>148.6</ele>
        <time>2023-05-07T07:34:48Z</time>
      </trkpt>
      <trkpt lat="43.3193" lon="6.3774">
        <ele>148.9</ele>
        <time>2023-05-07T07:34:53Z</time>
      </trkpt>
      <trkpt lat="43.31925" lon="6.37741">
        <ele>149.3</ele>
        <time>2023-05-07T07:34:59Z</time>
      </trkpt>
      <trkpt lat="43.3192" lon="6.37742">
        <ele>149.4</ele>
        <time>2023-05-07T07:35:04Z</time>
      </trkpt>
      <trkpt lat="43.31914" lon="6.37742">
        <ele>150.1</ele>
        <time>2023-05-07T07:35:12Z</time>
      </trkpt>
      <trkpt lat="43.31907" lon="6.37741">
        <ele>151.5</ele>
        <time>2023-05-07T07:35:17Z</time>
      </trkpt>
      <trkpt lat="43.319" lon="6.3774">
        <ele>152.8</ele>
        <time>2023-05-07T07:35:23Z</time>
      </trkpt>
      <trkpt lat="43.31895" lon="6.37738">
        <ele>153.2</ele>
        <time>2023-05-07T07:35:27Z</time>
      </trkpt>
      <trkpt lat="43.3189" lon="6.37735">
        <ele>153.5</ele>
        <time>2023-05-07T07:35:33Z</time>
      </trkpt>
      <trkpt lat="43.31885" lon="6.37732">
        <ele>154</ele>
        <time>2023-05-07T07:35:37Z</time>
      </trkpt>
      <trkpt lat="43.3188" lon="6.37728">
        <ele>154.8</ele>
        <time>2023-05-07T07:35:43Z</time>
      </trkpt>
      <trkpt lat="43.31876" lon="6.37723">
        <ele>154.9</ele>
        <time>2023-05-07T07:35:47Z</time>
      </trkpt>
      <trkpt lat="43.31872" lon="6.37718">
        <ele>155</ele>
        <time>2023-05-07T07:35:53Z</time>
      </trkpt>
      <trkpt lat="43.31869" lon="6.37712">
        <ele>154.6</ele>
        <time>2023-05-07T07:35:57Z</time>
      </trkpt>
      <trkpt lat="43.31865" lon="6.37706">
        <ele>154.1</ele>
        <time>2023-05-07T07:36:03Z</time>
      </trkpt>
      <trkpt lat="43.31861" lon="6.37702">
        <ele>154.1</ele>
        <time>2023-05-07T07:36:07Z</time>
      </trkpt>
      <trkpt lat="43.31857" lon="6.37697">
        <ele>154.5</ele>
        <time>2023-05-07T07:36:13Z</time>
      </trkpt>
      <trkpt lat="43.31851" lon="6.37688">
        <ele>154.4</ele>
        <time>2023-05-07T07:36:23Z</time>
      </trkpt>
      <trkpt lat="43.31849" lon="6.37682">
        <ele>153.5</ele>
        <time>2023-05-07T07:36:27Z</time>
      </trkpt>
      <trkpt lat="43.31847" lon="6.37676">
        <ele>152.4</ele>
        <time>2023-05-07T07:36:33Z</time>
      </trkpt>
      <trkpt lat="43.31843" lon="6.37672">
        <ele>153</ele>
        <time>2023-05-07T07:36:37Z</time>
      </trkpt>
      <trkpt lat="43.31838" lon="6.37668">
        <ele>153.6</ele>
        <time>2023-05-07T07:36:43Z</time>
      </trkpt>
      <trkpt lat="43.31833" lon="6.37664">
        <ele>153.8</ele>
        <time>2023-05-07T07:36:49Z</time>
      </trkpt>
      <trkpt lat="43.31828" lon="6.37659">
        <ele>153.7</ele>
        <time>2023-05-07T07:36:56Z</time>
      </trkpt>
      <trkpt lat="43.31823" lon="6.37655">
        <ele>153.8</ele>
        <time>2023-05-07T07:37:02Z</time>
      </trkpt>
      <trkpt lat="43.31818" lon="6.37651">
        <ele>154.1</ele>
        <time>2023-05-07T07:37:09Z</time>
      </trkpt>
      <trkpt lat="43.31814" lon="6.37648">
        <ele>154.6</ele>
        <time>2023-05-07T07:37:12Z</time>
      </trkpt>
      <trkpt lat="43.31809" lon="6.37646">
        <ele>155.3</ele>
        <time>2023-05-07T07:37:17Z</time>
      </trkpt>
      <trkpt lat="43.31805" lon="6.37643">
        <ele>155.7</ele>
        <time>2023-05-07T07:37:21Z</time>
      </trkpt>
      <trkpt lat="43.318" lon="6.3764">
        <ele>155.4</ele>
        <time>2023-05-07T07:37:26Z</time>
      </trkpt>
      <trkpt lat="43.31795" lon="6.37637">
        <ele>155.1</ele>
        <time>2023-05-07T07:37:30Z</time>
      </trkpt>
      <trkpt lat="43.31789" lon="6.37633">
        <ele>155.1</ele>
        <time>2023-05-07T07:37:37Z</time>
      </trkpt>
      <trkpt lat="43.31784" lon="6.37632">
        <ele>156</ele>
        <time>2023-05-07T07:37:42Z</time>
      </trkpt>
      <trkpt lat="43.31779" lon="6.37631">
        <ele>157</ele>
        <time>2023-05-07T07:37:48Z</time>
      </trkpt>
      <trkpt lat="43.31775" lon="6.3764">
        <ele>158</ele>
        <time>2023-05-07T07:37:54Z</time>
      </trkpt>
      <trkpt lat="43.31771" lon="6.37649">
        <ele>157.7</ele>
        <time>2023-05-07T07:38:01Z</time>
      </trkpt>
      <trkpt lat="43.3177" lon="6.37656">
        <ele>158.3</ele>
        <time>2023-05-07T07:38:05Z</time>
      </trkpt>
      <trkpt lat="43.31768" lon="6.37663">
        <ele>158.9</ele>
        <time>2023-05-07T07:38:11Z</time>
      </trkpt>
      <trkpt lat="43.31766" lon="6.37675">
        <ele>160.5</ele>
        <time>2023-05-07T07:38:20Z</time>
      </trkpt>
      <trkpt lat="43.31763" lon="6.37681">
        <ele>160.5</ele>
        <time>2023-05-07T07:38:24Z</time>
      </trkpt>
      <trkpt lat="43.31759" lon="6.37686">
        <ele>160.7</ele>
        <time>2023-05-07T07:38:30Z</time>
      </trkpt>
      <trkpt lat="43.31752" lon="6.37689">
        <ele>159.1</ele>
        <time>2023-05-07T07:38:36Z</time>
      </trkpt>
      <trkpt lat="43.31744" lon="6.37692">
        <ele>158.7</ele>
        <time>2023-05-07T07:38:44Z</time>
      </trkpt>
      <trkpt lat="43.31739" lon="6.37695">
        <ele>158.9</ele>
        <time>2023-05-07T07:38:48Z</time>
      </trkpt>
      <trkpt lat="43.31733" lon="6.37698">
        <ele>159.2</ele>
        <time>2023-05-07T07:38:54Z</time>
      </trkpt>
      <trkpt lat="43.31728" lon="6.37702">
        <ele>159.4</ele>
        <time>2023-05-07T07:38:59Z</time>
      </trkpt>
      <trkpt lat="43.31722" lon="6.37705">
        <ele>159.6</ele>
        <time>2023-05-07T07:39:05Z</time>
      </trkpt>
      <trkpt lat="43.31716" lon="6.37711">
        <ele>159.1</ele>
        <time>2023-05-07T07:39:11Z</time>
      </trkpt>
      <trkpt lat="43.3171" lon="6.37716">
        <ele>158.1</ele>
        <time>2023-05-07T07:39:17Z</time>
      </trkpt>
      <trkpt lat="43.31708" lon="6.37722">
        <ele>158.3</ele>
        <time>2023-05-07T07:39:21Z</time>
      </trkpt>
      <trkpt lat="43.31706" lon="6.37728">
        <ele>158</ele>
        <time>2023-05-07T07:39:26Z</time>
      </trkpt>
      <trkpt lat="43.31706" lon="6.37739">
        <ele>158.9</ele>
        <time>2023-05-07T07:39:35Z</time>
      </trkpt>
      <trkpt lat="43.31707" lon="6.37746">
        <ele>159.7</ele>
        <time>2023-05-07T07:39:39Z</time>
      </trkpt>
      <trkpt lat="43.31707" lon="6.37753">
        <ele>160.4</ele>
        <time>2023-05-07T07:39:44Z</time>
      </trkpt>
      <trkpt lat="43.31707" lon="6.37763">
        <ele>160.5</ele>
        <time>2023-05-07T07:39:49Z</time>
      </trkpt>
      <trkpt lat="43.31707" lon="6.37772">
        <ele>160.7</ele>
        <time>2023-05-07T07:39:55Z</time>
      </trkpt>
      <trkpt lat="43.31707" lon="6.37779">
        <ele>160.8</ele>
        <time>2023-05-07T07:40:00Z</time>
      </trkpt>
      <trkpt lat="43.31707" lon="6.37785">
        <ele>160.9</ele>
        <time>2023-05-07T07:40:05Z</time>
      </trkpt>
      <trkpt lat="43.31707" lon="6.37792">
        <ele>161.1</ele>
        <time>2023-05-07T07:40:10Z</time>
      </trkpt>
      <trkpt lat="43.31707" lon="6.37799">
        <ele>161.2</ele>
        <time>2023-05-07T07:40:15Z</time>
      </trkpt>
      <trkpt lat="43.31708" lon="6.37807">
        <ele>161.8</ele>
        <time>2023-05-07T07:40:20Z</time>
      </trkpt>
      <trkpt lat="43.31709" lon="6.37814">
        <ele>162.5</ele>
        <time>2023-05-07T07:40:25Z</time>
      </trkpt>
      <trkpt lat="43.3171" lon="6.37821">
        <ele>163.1</ele>
        <time>2023-05-07T07:40:29Z</time>
      </trkpt>
      <trkpt lat="43.31711" lon="6.37827">
        <ele>163.7</ele>
        <time>2023-05-07T07:40:34Z</time>
      </trkpt>
      <trkpt lat="43.31713" lon="6.37839">
        <ele>165.2</ele>
        <time>2023-05-07T07:40:44Z</time>
      </trkpt>
      <trkpt lat="43.31713" lon="6.37846">
        <ele>165.7</ele>
        <time>2023-05-07T07:40:48Z</time>
      </trkpt>
      <trkpt lat="43.31712" lon="6.37853">
        <ele>166.2</ele>
        <time>2023-05-07T07:40:54Z</time>
      </trkpt>
      <trkpt lat="43.31712" lon="6.3786">
        <ele>166.8</ele>
        <time>2023-05-07T07:40:58Z</time>
      </trkpt>
      <trkpt lat="43.31711" lon="6.37867">
        <ele>167.7</ele>
        <time>2023-05-07T07:41:04Z</time>
      </trkpt>
      <trkpt lat="43.31709" lon="6.37873">
        <ele>168.2</ele>
        <time>2023-05-07T07:41:08Z</time>
      </trkpt>
      <trkpt lat="43.31706" lon="6.37879">
        <ele>168.9</ele>
        <time>2023-05-07T07:41:13Z</time>
      </trkpt>
      <trkpt lat="43.31701" lon="6.37876">
        <ele>167.4</ele>
        <time>2023-05-07T07:41:20Z</time>
      </trkpt>
      <trkpt lat="43.31696" lon="6.37873">
        <ele>165.7</ele>
        <time>2023-05-07T07:41:28Z</time>
      </trkpt>
      <trkpt lat="43.31692" lon="6.37868">
        <ele>165.1</ele>
        <time>2023-05-07T07:41:32Z</time>
      </trkpt>
      <trkpt lat="43.31687" lon="6.37863">
        <ele>165.5</ele>
        <time>2023-05-07T07:41:38Z</time>
      </trkpt>
      <trkpt lat="43.31683" lon="6.37858">
        <ele>165.8</ele>
        <time>2023-05-07T07:41:42Z</time>
      </trkpt>
      <trkpt lat="43.31678" lon="6.37852">
        <ele>166.2</ele>
        <time>2023-05-07T07:41:48Z</time>
      </trkpt>
      <trkpt lat="43.31674" lon="6.37848">
        <ele>166.6</ele>
        <time>2023-05-07T07:41:53Z</time>
      </trkpt>
      <trkpt lat="43.3167" lon="6.37844">
        <ele>166.9</ele>
        <time>2023-05-07T07:41:58Z</time>
      </trkpt>
      <trkpt lat="43.31665" lon="6.37842">
        <ele>167.7</ele>
        <time>2023-05-07T07:42:02Z</time>
      </trkpt>
      <trkpt lat="43.31659" lon="6.37839">
        <ele>167.8</ele>
        <time>2023-05-07T07:42:08Z</time>
      </trkpt>
      <trkpt lat="43.31651" lon="6.37834">
        <ele>167.5</ele>
        <time>2023-05-07T07:42:18Z</time>
      </trkpt>
      <trkpt lat="43.31646" lon="6.37834">
        <ele>168.3</ele>
        <time>2023-05-07T07:42:23Z</time>
      </trkpt>
      <trkpt lat="43.3164" lon="6.37834">
        <ele>169.1</ele>
        <time>2023-05-07T07:42:29Z</time>
      </trkpt>
      <trkpt lat="43.31632" lon="6.37833">
        <ele>169</ele>
        <time>2023-05-07T07:42:36Z</time>
      </trkpt>
      <trkpt lat="43.31623" lon="6.37831">
        <ele>168.8</ele>
        <time>2023-05-07T07:42:44Z</time>
      </trkpt>
      <trkpt lat="43.31618" lon="6.37834">
        <ele>169.8</ele>
        <time>2023-05-07T07:42:51Z</time>
      </trkpt>
      <trkpt lat="43.31613" lon="6.37836">
        <ele>170.7</ele>
        <time>2023-05-07T07:42:58Z</time>
      </trkpt>
      <trkpt lat="43.31608" lon="6.37839">
        <ele>171.2</ele>
        <time>2023-05-07T07:43:02Z</time>
      </trkpt>
      <trkpt lat="43.31604" lon="6.37843">
        <ele>171.3</ele>
        <time>2023-05-07T07:43:06Z</time>
      </trkpt>
      <trkpt lat="43.31599" lon="6.37846">
        <ele>171.3</ele>
        <time>2023-05-07T07:43:10Z</time>
      </trkpt>
      <trkpt lat="43.31594" lon="6.37849">
        <ele>171.4</ele>
        <time>2023-05-07T07:43:15Z</time>
      </trkpt>
      <trkpt lat="43.3159" lon="6.37854">
        <ele>172.2</ele>
        <time>2023-05-07T07:43:20Z</time>
      </trkpt>
      <trkpt lat="43.31586" lon="6.37859">
        <ele>172.9</ele>
        <time>2023-05-07T07:43:26Z</time>
      </trkpt>
      <trkpt lat="43.3158" lon="6.37865">
        <ele>172.9</ele>
        <time>2023-05-07T07:43:31Z</time>
      </trkpt>
      <trkpt lat="43.31574" lon="6.37871">
        <ele>172.5</ele>
        <time>2023-05-07T07:43:38Z</time>
      </trkpt>
      <trkpt lat="43.31571" lon="6.37878">
        <ele>173.4</ele>
        <time>2023-05-07T07:43:44Z</time>
      </trkpt>
      <trkpt lat="43.31567" lon="6.37885">
        <ele>174.3</ele>
        <time>2023-05-07T07:43:51Z</time>
      </trkpt>
      <trkpt lat="43.31564" lon="6.3789">
        <ele>174.6</ele>
        <time>2023-05-07T07:43:55Z</time>
      </trkpt>
      <trkpt lat="43.3156" lon="6.37895">
        <ele>175.3</ele>
        <time>2023-05-07T07:44:01Z</time>
      </trkpt>
      <trkpt lat="43.31552" lon="6.37899">
        <ele>175.3</ele>
        <time>2023-05-07T07:44:15Z</time>
      </trkpt>
      <trkpt lat="43.31546" lon="6.379">
        <ele>175.4</ele>
        <time>2023-05-07T07:44:20Z</time>
      </trkpt>
      <trkpt lat="43.31539" lon="6.379">
        <ele>175.6</ele>
        <time>2023-05-07T07:44:26Z</time>
      </trkpt>
      <trkpt lat="43.31534" lon="6.37902">
        <ele>176.1</ele>
        <time>2023-05-07T07:44:32Z</time>
      </trkpt>
      <trkpt lat="43.31529" lon="6.37903">
        <ele>176.6</ele>
        <time>2023-05-07T07:44:38Z</time>
      </trkpt>
      <trkpt lat="43.31524" lon="6.37902">
        <ele>177</ele>
        <time>2023-05-07T07:44:43Z</time>
      </trkpt>
      <trkpt lat="43.31518" lon="6.37901">
        <ele>177.6</ele>
        <time>2023-05-07T07:44:50Z</time>
      </trkpt>
      <trkpt lat="43.31511" lon="6.37901">
        <ele>178.9</ele>
        <time>2023-05-07T07:44:54Z</time>
      </trkpt>
      <trkpt lat="43.31504" lon="6.37901">
        <ele>180.2</ele>
        <time>2023-05-07T07:45:00Z</time>
      </trkpt>
      <trkpt lat="43.31498" lon="6.37899">
        <ele>180.4</ele>
        <time>2023-05-07T07:45:05Z</time>
      </trkpt>
      <trkpt lat="43.31492" lon="6.37897">
        <ele>180.2</ele>
        <time>2023-05-07T07:45:11Z</time>
      </trkpt>
      <trkpt lat="43.31487" lon="6.37896">
        <ele>180.3</ele>
        <time>2023-05-07T07:45:16Z</time>
      </trkpt>
      <trkpt lat="43.31481" lon="6.37895">
        <ele>180.3</ele>
        <time>2023-05-07T07:45:24Z</time>
      </trkpt>
      <trkpt lat="43.31475" lon="6.37894">
        <ele>180.3</ele>
        <time>2023-05-07T07:45:30Z</time>
      </trkpt>
      <trkpt lat="43.31468" lon="6.37892">
        <ele>180.3</ele>
        <time>2023-05-07T07:45:38Z</time>
      </trkpt>
      <trkpt lat="43.31461" lon="6.37891">
        <ele>180.3</ele>
        <time>2023-05-07T07:45:43Z</time>
      </trkpt>
      <trkpt lat="43.31454" lon="6.37889">
        <ele>180.3</ele>
        <time>2023-05-07T07:45:50Z</time>
      </trkpt>
      <trkpt lat="43.31448" lon="6.37887">
        <ele>180.2</ele>
        <time>2023-05-07T07:45:55Z</time>
      </trkpt>
      <trkpt lat="43.31441" lon="6.37885">
        <ele>179.7</ele>
        <time>2023-05-07T07:46:01Z</time>
      </trkpt>
      <trkpt lat="43.31436" lon="6.37884">
        <ele>179</ele>
        <time>2023-05-07T07:46:05Z</time>
      </trkpt>
      <trkpt lat="43.31431" lon="6.37882">
        <ele>178.4</ele>
        <time>2023-05-07T07:46:10Z</time>
      </trkpt>
      <trkpt lat="43.31426" lon="6.37883">
        <ele>178.3</ele>
        <time>2023-05-07T07:46:14Z</time>
      </trkpt>
      <trkpt lat="43.3142" lon="6.37883">
        <ele>178.1</ele>
        <time>2023-05-07T07:46:19Z</time>
      </trkpt>
      <trkpt lat="43.31416" lon="6.37886">
        <ele>178.2</ele>
        <time>2023-05-07T07:46:23Z</time>
      </trkpt>
      <trkpt lat="43.31411" lon="6.37889">
        <ele>177.8</ele>
        <time>2023-05-07T07:46:28Z</time>
      </trkpt>
      <trkpt lat="43.31407" lon="6.37892">
        <ele>177.6</ele>
        <time>2023-05-07T07:46:32Z</time>
      </trkpt>
      <trkpt lat="43.31402" lon="6.37895">
        <ele>177.2</ele>
        <time>2023-05-07T07:46:37Z</time>
      </trkpt>
      <trkpt lat="43.31396" lon="6.37904">
        <ele>177.7</ele>
        <time>2023-05-07T07:46:48Z</time>
      </trkpt>
      <trkpt lat="43.31394" lon="6.3791">
        <ele>178.1</ele>
        <time>2023-05-07T07:46:52Z</time>
      </trkpt>
      <trkpt lat="43.31391" lon="6.37915">
        <ele>178.4</ele>
        <time>2023-05-07T07:46:57Z</time>
      </trkpt>
      <trkpt lat="43.3139" lon="6.37922">
        <ele>178.6</ele>
        <time>2023-05-07T07:47:01Z</time>
      </trkpt>
      <trkpt lat="43.31388" lon="6.37929">
        <ele>178.5</ele>
        <time>2023-05-07T07:47:06Z</time>
      </trkpt>
      <trkpt lat="43.31388" lon="6.37938">
        <ele>179</ele>
        <time>2023-05-07T07:47:12Z</time>
      </trkpt>
      <trkpt lat="43.31387" lon="6.37947">
        <ele>179.7</ele>
        <time>2023-05-07T07:47:19Z</time>
      </trkpt>
      <trkpt lat="43.31385" lon="6.37953">
        <ele>180</ele>
        <time>2023-05-07T07:47:24Z</time>
      </trkpt>
      <trkpt lat="43.31383" lon="6.37959">
        <ele>180.2</ele>
        <time>2023-05-07T07:47:30Z</time>
      </trkpt>
      <trkpt lat="43.3138" lon="6.37968">
        <ele>180.2</ele>
        <time>2023-05-07T07:47:35Z</time>
      </trkpt>
      <trkpt lat="43.31376" lon="6.37976">
        <ele>179.8</ele>
        <time>2023-05-07T07:47:41Z</time>
      </trkpt>
      <trkpt lat="43.31374" lon="6.37983">
        <ele>179.3</ele>
        <time>2023-05-07T07:47:46Z</time>
      </trkpt>
      <trkpt lat="43.31371" lon="6.3799">
        <ele>178.8</ele>
        <time>2023-05-07T07:47:52Z</time>
      </trkpt>
      <trkpt lat="43.3137" lon="6.37997">
        <ele>178.7</ele>
        <time>2023-05-07T07:47:56Z</time>
      </trkpt>
      <trkpt lat="43.31368" lon="6.38004">
        <ele>178.9</ele>
        <time>2023-05-07T07:48:02Z</time>
      </trkpt>
      <trkpt lat="43.31365" lon="6.38013">
        <ele>178.8</ele>
        <time>2023-05-07T07:48:09Z</time>
      </trkpt>
      <trkpt lat="43.31361" lon="6.38021">
        <ele>178.8</ele>
        <time>2023-05-07T07:48:17Z</time>
      </trkpt>
      <trkpt lat="43.31357" lon="6.38026">
        <ele>179.2</ele>
        <time>2023-05-07T07:48:21Z</time>
      </trkpt>
      <trkpt lat="43.31352" lon="6.3803">
        <ele>180</ele>
        <time>2023-05-07T07:48:27Z</time>
      </trkpt>
      <trkpt lat="43.31345" lon="6.38031">
        <ele>179.8</ele>
        <time>2023-05-07T07:48:38Z</time>
      </trkpt>
      <trkpt lat="43.31338" lon="6.38031">
        <ele>179.3</ele>
        <time>2023-05-07T07:48:43Z</time>
      </trkpt>
      <trkpt lat="43.31331" lon="6.38031">
        <ele>178.7</ele>
        <time>2023-05-07T07:48:50Z</time>
      </trkpt>
      <trkpt lat="43.31326" lon="6.38033">
        <ele>178.5</ele>
        <time>2023-05-07T07:48:56Z</time>
      </trkpt>
      <trkpt lat="43.31321" lon="6.38034">
        <ele>178.3</ele>
        <time>2023-05-07T07:49:02Z</time>
      </trkpt>
      <trkpt lat="43.31315" lon="6.38038">
        <ele>178.5</ele>
        <time>2023-05-07T07:49:06Z</time>
      </trkpt>
      <trkpt lat="43.31309" lon="6.38042">
        <ele>178.6</ele>
        <time>2023-05-07T07:49:12Z</time>
      </trkpt>
      <trkpt lat="43.31306" lon="6.38047">
        <ele>179</ele>
        <time>2023-05-07T07:49:16Z</time>
      </trkpt>
      <trkpt lat="43.31302" lon="6.38051">
        <ele>178.9</ele>
        <time>2023-05-07T07:49:22Z</time>
      </trkpt>
      <trkpt lat="43.31298" lon="6.38057">
        <ele>178.6</ele>
        <time>2023-05-07T07:49:27Z</time>
      </trkpt>
      <trkpt lat="43.31293" lon="6.38062">
        <ele>178.2</ele>
        <time>2023-05-07T07:49:33Z</time>
      </trkpt>
      <trkpt lat="43.3129" lon="6.3807">
        <ele>178.6</ele>
        <time>2023-05-07T07:49:38Z</time>
      </trkpt>
      <trkpt lat="43.31286" lon="6.38078">
        <ele>178.9</ele>
        <time>2023-05-07T07:49:45Z</time>
      </trkpt>
      <trkpt lat="43.31283" lon="6.38086">
        <ele>179.1</ele>
        <time>2023-05-07T07:49:50Z</time>
      </trkpt>
      <trkpt lat="43.3128" lon="6.38093">
        <ele>178.9</ele>
        <time>2023-05-07T07:49:55Z</time>
      </trkpt>
      <trkpt lat="43.31278" lon="6.381">
        <ele>178.6</ele>
        <time>2023-05-07T07:49:59Z</time>
      </trkpt>
      <trkpt lat="43.31275" lon="6.38106">
        <ele>178.4</ele>
        <time>2023-05-07T07:50:04Z</time>
      </trkpt>
      <trkpt lat="43.31275" lon="6.38113">
        <ele>178.9</ele>
        <time>2023-05-07T07:50:08Z</time>
      </trkpt>
      <trkpt lat="43.31275" lon="6.3812">
        <ele>179</ele>
        <time>2023-05-07T07:50:13Z</time>
      </trkpt>
      <trkpt lat="43.31275" lon="6.38127">
        <ele>178.9</ele>
        <time>2023-05-07T07:50:17Z</time>
      </trkpt>
      <trkpt lat="43.31274" lon="6.38133">
        <ele>178.8</ele>
        <time>2023-05-07T07:50:22Z</time>
      </trkpt>
      <trkpt lat="43.31273" lon="6.3814">
        <ele>178.8</ele>
        <time>2023-05-07T07:50:26Z</time>
      </trkpt>
      <trkpt lat="43.31272" lon="6.38147">
        <ele>179.4</ele>
        <time>2023-05-07T07:50:31Z</time>
      </trkpt>
      <trkpt lat="43.31269" lon="6.38152">
        <ele>179</ele>
        <time>2023-05-07T07:50:35Z</time>
      </trkpt>
      <trkpt lat="43.31265" lon="6.38156">
        <ele>178.5</ele>
        <time>2023-05-07T07:50:40Z</time>
      </trkpt>
      <trkpt lat="43.31262" lon="6.38165">
        <ele>178.7</ele>
        <time>2023-05-07T07:50:50Z</time>
      </trkpt>
      <trkpt lat="43.31261" lon="6.38172">
        <ele>179</ele>
        <time>2023-05-07T07:50:55Z</time>
      </trkpt>
      <trkpt lat="43.31259" lon="6.38178">
        <ele>179.3</ele>
        <time>2023-05-07T07:51:00Z</time>
      </trkpt>
      <trkpt lat="43.31258" lon="6.38185">
        <ele>179.5</ele>
        <time>2023-05-07T07:51:04Z</time>
      </trkpt>
      <trkpt lat="43.31256" lon="6.38192">
        <ele>179.6</ele>
        <time>2023-05-07T07:51:10Z</time>
      </trkpt>
      <trkpt lat="43.31254" lon="6.38199">
        <ele>179.4</ele>
        <time>2023-05-07T07:51:14Z</time>
      </trkpt>
      <trkpt lat="43.31252" lon="6.38206">
        <ele>179.2</ele>
        <time>2023-05-07T07:51:20Z</time>
      </trkpt>
      <trkpt lat="43.31248" lon="6.38209">
        <ele>178.8</ele>
        <time>2023-05-07T07:51:28Z</time>
      </trkpt>
      <trkpt lat="43.31244" lon="6.38212">
        <ele>179.6</ele>
        <time>2023-05-07T07:51:37Z</time>
      </trkpt>
      <trkpt lat="43.31238" lon="6.38211">
        <ele>180.1</ele>
        <time>2023-05-07T07:51:43Z</time>
      </trkpt>
      <trkpt lat="43.31232" lon="6.38209">
        <ele>180.5</ele>
        <time>2023-05-07T07:51:51Z</time>
      </trkpt>
      <trkpt lat="43.31228" lon="6.38203">
        <ele>180</ele>
        <time>2023-05-07T07:51:55Z</time>
      </trkpt>
      <trkpt lat="43.31223" lon="6.38196">
        <ele>179.2</ele>
        <time>2023-05-07T07:52:02Z</time>
      </trkpt>
      <trkpt lat="43.3122" lon="6.3819">
        <ele>179</ele>
        <time>2023-05-07T07:52:07Z</time>
      </trkpt>
      <trkpt lat="43.31216" lon="6.38184">
        <ele>178.7</ele>
        <time>2023-05-07T07:52:13Z</time>
      </trkpt>
      <trkpt lat="43.31215" lon="6.38178">
        <ele>177.9</ele>
        <time>2023-05-07T07:52:17Z</time>
      </trkpt>
      <trkpt lat="43.31213" lon="6.38172">
        <ele>177.1</ele>
        <time>2023-05-07T07:52:23Z</time>
      </trkpt>
      <trkpt lat="43.31211" lon="6.38167">
        <ele>176.5</ele>
        <time>2023-05-07T07:52:26Z</time>
      </trkpt>
      <trkpt lat="43.31208" lon="6.38161">
        <ele>176</ele>
        <time>2023-05-07T07:52:32Z</time>
      </trkpt>
      <trkpt lat="43.31205" lon="6.38157">
        <ele>176</ele>
        <time>2023-05-07T07:52:36Z</time>
      </trkpt>
      <trkpt lat="43.31201" lon="6.38153">
        <ele>175.9</ele>
        <time>2023-05-07T07:52:42Z</time>
      </trkpt>
      <trkpt lat="43.31194" lon="6.38157">
        <ele>177.7</ele>
        <time>2023-05-07T07:52:49Z</time>
      </trkpt>
      <trkpt lat="43.31186" lon="6.3816">
        <ele>177.6</ele>
        <time>2023-05-07T07:52:57Z</time>
      </trkpt>
      <trkpt lat="43.31181" lon="6.38164">
        <ele>178</ele>
        <time>2023-05-07T07:53:01Z</time>
      </trkpt>
      <trkpt lat="43.31177" lon="6.38169">
        <ele>178.5</ele>
        <time>2023-05-07T07:53:04Z</time>
      </trkpt>
      <trkpt lat="43.31172" lon="6.38173">
        <ele>178.9</ele>
        <time>2023-05-07T07:53:08Z</time>
      </trkpt>
      <trkpt lat="43.31167" lon="6.38177">
        <ele>179.3</ele>
        <time>2023-05-07T07:53:13Z</time>
      </trkpt>
      <trkpt lat="43.31164" lon="6.38182">
        <ele>180</ele>
        <time>2023-05-07T07:53:18Z</time>
      </trkpt>
      <trkpt lat="43.3116" lon="6.38186">
        <ele>180.7</ele>
        <time>2023-05-07T07:53:25Z</time>
      </trkpt>
      <trkpt lat="43.31154" lon="6.38185">
        <ele>180</ele>
        <time>2023-05-07T07:53:30Z</time>
      </trkpt>
      <trkpt lat="43.31147" lon="6.38184">
        <ele>179.3</ele>
        <time>2023-05-07T07:53:37Z</time>
      </trkpt>
      <trkpt lat="43.31141" lon="6.38179">
        <ele>177.7</ele>
        <time>2023-05-07T07:53:41Z</time>
      </trkpt>
      <trkpt lat="43.31134" lon="6.38173">
        <ele>178</ele>
        <time>2023-05-07T07:53:47Z</time>
      </trkpt>
      <trkpt lat="43.3113" lon="6.38168">
        <ele>178.2</ele>
        <time>2023-05-07T07:53:51Z</time>
      </trkpt>
      <trkpt lat="43.31125" lon="6.38162">
        <ele>178.3</ele>
        <time>2023-05-07T07:53:56Z</time>
      </trkpt>
      <trkpt lat="43.31121" lon="6.38157">
        <ele>178.3</ele>
        <time>2023-05-07T07:54:01Z</time>
      </trkpt>
      <trkpt lat="43.31117" lon="6.38152">
        <ele>178.1</ele>
        <time>2023-05-07T07:54:07Z</time>
      </trkpt>
      <trkpt lat="43.31112" lon="6.38149">
        <ele>178.7</ele>
        <time>2023-05-07T07:54:11Z</time>
      </trkpt>
      <trkpt lat="43.31106" lon="6.38145">
        <ele>178.4</ele>
        <time>2023-05-07T07:54:18Z</time>
      </trkpt>
      <trkpt lat="43.31101" lon="6.38143">
        <ele>178.4</ele>
        <time>2023-05-07T07:54:23Z</time>
      </trkpt>
      <trkpt lat="43.31095" lon="6.38141">
        <ele>178.4</ele>
        <time>2023-05-07T07:54:31Z</time>
      </trkpt>
      <trkpt lat="43.31088" lon="6.38139">
        <ele>178.4</ele>
        <time>2023-05-07T07:54:38Z</time>
      </trkpt>
      <trkpt lat="43.3108" lon="6.38136">
        <ele>177.9</ele>
        <time>2023-05-07T07:54:47Z</time>
      </trkpt>
      <trkpt lat="43.31074" lon="6.38135">
        <ele>177.6</ele>
        <time>2023-05-07T07:54:52Z</time>
      </trkpt>
      <trkpt lat="43.31068" lon="6.38134">
        <ele>177.1</ele>
        <time>2023-05-07T07:54:59Z</time>
      </trkpt>
      <trkpt lat="43.3106" lon="6.38135">
        <ele>177.3</ele>
        <time>2023-05-07T07:55:05Z</time>
      </trkpt>
      <trkpt lat="43.31052" lon="6.38135">
        <ele>177.1</ele>
        <time>2023-05-07T07:55:11Z</time>
      </trkpt>
      <trkpt lat="43.31047" lon="6.38136">
        <ele>176.8</ele>
        <time>2023-05-07T07:55:16Z</time>
      </trkpt>
      <trkpt lat="43.31042" lon="6.38136">
        <ele>176.5</ele>
        <time>2023-05-07T07:55:22Z</time>
      </trkpt>
      <trkpt lat="43.31037" lon="6.3814">
        <ele>177.1</ele>
        <time>2023-05-07T07:55:27Z</time>
      </trkpt>
      <trkpt lat="43.31031" lon="6.38143">
        <ele>177.4</ele>
        <time>2023-05-07T07:55:34Z</time>
      </trkpt>
      <trkpt lat="43.31027" lon="6.38149">
        <ele>178.1</ele>
        <time>2023-05-07T07:55:38Z</time>
      </trkpt>
      <trkpt lat="43.31022" lon="6.38155">
        <ele>177.8</ele>
        <time>2023-05-07T07:55:44Z</time>
      </trkpt>
      <trkpt lat="43.31018" lon="6.3816">
        <ele>177.3</ele>
        <time>2023-05-07T07:55:48Z</time>
      </trkpt>
      <trkpt lat="43.31014" lon="6.38165">
        <ele>176.7</ele>
        <time>2023-05-07T07:55:53Z</time>
      </trkpt>
      <trkpt lat="43.31012" lon="6.38171">
        <ele>176.8</ele>
        <time>2023-05-07T07:55:57Z</time>
      </trkpt>
      <trkpt lat="43.3101" lon="6.38177">
        <ele>176.7</ele>
        <time>2023-05-07T07:56:02Z</time>
      </trkpt>
      <trkpt lat="43.31008" lon="6.38186">
        <ele>176.6</ele>
        <time>2023-05-07T07:56:06Z</time>
      </trkpt>
      <trkpt lat="43.31005" lon="6.38194">
        <ele>176.5</ele>
        <time>2023-05-07T07:56:11Z</time>
      </trkpt>
      <trkpt lat="43.31003" lon="6.382">
        <ele>176.7</ele>
        <time>2023-05-07T07:56:16Z</time>
      </trkpt>
      <trkpt lat="43.31001" lon="6.38206">
        <ele>177</ele>
        <time>2023-05-07T07:56:21Z</time>
      </trkpt>
      <trkpt lat="43.30998" lon="6.38213">
        <ele>177.3</ele>
        <time>2023-05-07T07:56:27Z</time>
      </trkpt>
      <trkpt lat="43.30994" lon="6.38219">
        <ele>177.8</ele>
        <time>2023-05-07T07:56:35Z</time>
      </trkpt>
      <trkpt lat="43.3099" lon="6.38225">
        <ele>178.2</ele>
        <time>2023-05-07T07:56:39Z</time>
      </trkpt>
      <trkpt lat="43.30985" lon="6.38231">
        <ele>178.9</ele>
        <time>2023-05-07T07:56:45Z</time>
      </trkpt>
      <trkpt lat="43.30981" lon="6.38233">
        <ele>178.2</ele>
        <time>2023-05-07T07:56:50Z</time>
      </trkpt>
      <trkpt lat="43.30976" lon="6.38234">
        <ele>177.4</ele>
        <time>2023-05-07T07:56:56Z</time>
      </trkpt>
      <trkpt lat="43.30969" lon="6.38231">
        <ele>175.5</ele>
        <time>2023-05-07T07:57:02Z</time>
      </trkpt>
      <trkpt lat="43.30962" lon="6.38228">
        <ele>174.8</ele>
        <time>2023-05-07T07:57:09Z</time>
      </trkpt>
      <trkpt lat="43.30957" lon="6.38231">
        <ele>175.4</ele>
        <time>2023-05-07T07:57:14Z</time>
      </trkpt>
      <trkpt lat="43.30951" lon="6.38233">
        <ele>176</ele>
        <time>2023-05-07T07:57:21Z</time>
      </trkpt>
      <trkpt lat="43.30946" lon="6.38233">
        <ele>175.9</ele>
        <time>2023-05-07T07:57:26Z</time>
      </trkpt>
      <trkpt lat="43.30941" lon="6.38232">
        <ele>176</ele>
        <time>2023-05-07T07:57:33Z</time>
      </trkpt>
      <trkpt lat="43.30935" lon="6.38232">
        <ele>176.3</ele>
        <time>2023-05-07T07:57:38Z</time>
      </trkpt>
      <trkpt lat="43.30928" lon="6.38231">
        <ele>176.5</ele>
        <time>2023-05-07T07:57:45Z</time>
      </trkpt>
      <trkpt lat="43.30923" lon="6.38229">
        <ele>176.2</ele>
        <time>2023-05-07T07:57:50Z</time>
      </trkpt>
      <trkpt lat="43.30917" lon="6.38227">
        <ele>175.7</ele>
        <time>2023-05-07T07:57:56Z</time>
      </trkpt>
      <trkpt lat="43.3091" lon="6.38227">
        <ele>175.8</ele>
        <time>2023-05-07T07:58:02Z</time>
      </trkpt>
      <trkpt lat="43.30902" lon="6.38226">
        <ele>175.9</ele>
        <time>2023-05-07T07:58:10Z</time>
      </trkpt>
      <trkpt lat="43.30895" lon="6.38225">
        <ele>175.6</ele>
        <time>2023-05-07T07:58:16Z</time>
      </trkpt>
      <trkpt lat="43.30887" lon="6.38223">
        <ele>175.1</ele>
        <time>2023-05-07T07:58:24Z</time>
      </trkpt>
      <trkpt lat="43.30881" lon="6.38224">
        <ele>175.1</ele>
        <time>2023-05-07T07:58:29Z</time>
      </trkpt>
      <trkpt lat="43.30875" lon="6.38225">
        <ele>175.1</ele>
        <time>2023-05-07T07:58:35Z</time>
      </trkpt>
      <trkpt lat="43.3087" lon="6.38228">
        <ele>175.6</ele>
        <time>2023-05-07T07:58:40Z</time>
      </trkpt>
      <trkpt lat="43.30864" lon="6.3823">
        <ele>176.3</ele>
        <time>2023-05-07T07:58:47Z</time>
      </trkpt>
      <trkpt lat="43.30859" lon="6.38233">
        <ele>176.7</ele>
        <time>2023-05-07T07:58:51Z</time>
      </trkpt>
      <trkpt lat="43.30854" lon="6.38235">
        <ele>176.9</ele>
        <time>2023-05-07T07:58:56Z</time>
      </trkpt>
      <trkpt lat="43.30849" lon="6.38238">
        <ele>177.1</ele>
        <time>2023-05-07T07:59:00Z</time>
      </trkpt>
      <trkpt lat="43.30844" lon="6.3824">
        <ele>177.2</ele>
        <time>2023-05-07T07:59:05Z</time>
      </trkpt>
      <trkpt lat="43.30839" lon="6.3824">
        <ele>176.1</ele>
        <time>2023-05-07T07:59:10Z</time>
      </trkpt>
      <trkpt lat="43.30833" lon="6.38239">
        <ele>175.1</ele>
        <time>2023-05-07T07:59:16Z</time>
      </trkpt>
      <trkpt lat="43.30825" lon="6.38238">
        <ele>175</ele>
        <time>2023-05-07T07:59:23Z</time>
      </trkpt>
      <trkpt lat="43.30817" lon="6.38237">
        <ele>174.9</ele>
        <time>2023-05-07T07:59:31Z</time>
      </trkpt>
      <trkpt lat="43.30809" lon="6.38238">
        <ele>175.6</ele>
        <time>2023-05-07T07:59:39Z</time>
      </trkpt>
      <trkpt lat="43.308" lon="6.38239">
        <ele>175.9</ele>
        <time>2023-05-07T07:59:48Z</time>
      </trkpt>
      <trkpt lat="43.30795" lon="6.38239">
        <ele>175.7</ele>
        <time>2023-05-07T07:59:53Z</time>
      </trkpt>
      <trkpt lat="43.3079" lon="6.38239">
        <ele>175.6</ele>
        <time>2023-05-07T07:59:59Z</time>
      </trkpt>
      <trkpt lat="43.30784" lon="6.38237">
        <ele>174.9</ele>
        <time>2023-05-07T08:00:04Z</time>
      </trkpt>
      <trkpt lat="43.30778" lon="6.38236">
        <ele>174.4</ele>
        <time>2023-05-07T08:00:09Z</time>
      </trkpt>
      <trkpt lat="43.30771" lon="6.38234">
        <ele>174.9</ele>
        <time>2023-05-07T08:00:15Z</time>
      </trkpt>
      <trkpt lat="43.30765" lon="6.38232">
        <ele>175.3</ele>
        <time>2023-05-07T08:00:21Z</time>
      </trkpt>
      <trkpt lat="43.30758" lon="6.38229">
        <ele>175.2</ele>
        <time>2023-05-07T08:00:26Z</time>
      </trkpt>
      <trkpt lat="43.30752" lon="6.38225">
        <ele>174.8</ele>
        <time>2023-05-07T08:00:31Z</time>
      </trkpt>
      <trkpt lat="43.30745" lon="6.38222">
        <ele>176.4</ele>
        <time>2023-05-07T08:00:37Z</time>
      </trkpt>
      <trkpt lat="43.30738" lon="6.38218">
        <ele>179.1</ele>
        <time>2023-05-07T08:00:44Z</time>
      </trkpt>
      <trkpt lat="43.30735" lon="6.38212">
        <ele>179.5</ele>
        <time>2023-05-07T08:00:52Z</time>
      </trkpt>
      <trkpt lat="43.30732" lon="6.38206">
        <ele>179.6</ele>
        <time>2023-05-07T08:01:00Z</time>
      </trkpt>
      <trkpt lat="43.30737" lon="6.38198">
        <ele>176.8</ele>
        <time>2023-05-07T08:03:38Z</time>
      </trkpt>
      <trkpt lat="43.30743" lon="6.38195">
        <ele>174.8</ele>
        <time>2023-05-07T08:06:11Z</time>
      </trkpt>
      <trkpt lat="43.30748" lon="6.3819">
        <ele>174.9</ele>
        <time>2023-05-07T08:06:31Z</time>
      </trkpt>
      <trkpt lat="43.30753" lon="6.38186">
        <ele>176.3</ele>
        <time>2023-05-07T08:06:40Z</time>
      </trkpt>
      <trkpt lat="43.30758" lon="6.38182">
        <ele>178.1</ele>
        <time>2023-05-07T08:06:50Z</time>
      </trkpt>
      <trkpt lat="43.30763" lon="6.38186">
        <ele>176.9</ele>
        <time>2023-05-07T08:06:56Z</time>
      </trkpt>
      <trkpt lat="43.30767" lon="6.3819">
        <ele>175.8</ele>
        <time>2023-05-07T08:07:02Z</time>
      </trkpt>
      <trkpt lat="43.30772" lon="6.38191">
        <ele>176</ele>
        <time>2023-05-07T08:07:09Z</time>
      </trkpt>
      <trkpt lat="43.30776" lon="6.38191">
        <ele>176.1</ele>
        <time>2023-05-07T08:07:15Z</time>
      </trkpt>
      <trkpt lat="43.30781" lon="6.38189">
        <ele>176.7</ele>
        <time>2023-05-07T08:07:18Z</time>
      </trkpt>
      <trkpt lat="43.30786" lon="6.38187">
        <ele>176.8</ele>
        <time>2023-05-07T08:07:22Z</time>
      </trkpt>
      <trkpt lat="43.30791" lon="6.38184">
        <ele>176.7</ele>
        <time>2023-05-07T08:07:26Z</time>
      </trkpt>
      <trkpt lat="43.30796" lon="6.38182">
        <ele>176.4</ele>
        <time>2023-05-07T08:07:30Z</time>
      </trkpt>
      <trkpt lat="43.30801" lon="6.38179">
        <ele>176.3</ele>
        <time>2023-05-07T08:07:35Z</time>
      </trkpt>
      <trkpt lat="43.30805" lon="6.38175">
        <ele>175.9</ele>
        <time>2023-05-07T08:07:41Z</time>
      </trkpt>
      <trkpt lat="43.30809" lon="6.38168">
        <ele>176.6</ele>
        <time>2023-05-07T08:07:48Z</time>
      </trkpt>
      <trkpt lat="43.30813" lon="6.38161">
        <ele>178.7</ele>
        <time>2023-05-07T08:07:56Z</time>
      </trkpt>
      <trkpt lat="43.3082" lon="6.38155">
        <ele>180.4</ele>
        <time>2023-05-07T08:08:03Z</time>
      </trkpt>
      <trkpt lat="43.30826" lon="6.38149">
        <ele>181.8</ele>
        <time>2023-05-07T08:08:11Z</time>
      </trkpt>
      <trkpt lat="43.30833" lon="6.38147">
        <ele>181.7</ele>
        <time>2023-05-07T08:08:17Z</time>
      </trkpt>
      <trkpt lat="43.30839" lon="6.38144">
        <ele>182.1</ele>
        <time>2023-05-07T08:08:23Z</time>
      </trkpt>
      <trkpt lat="43.30845" lon="6.38143">
        <ele>182.1</ele>
        <time>2023-05-07T08:08:28Z</time>
      </trkpt>
      <trkpt lat="43.3085" lon="6.38142">
        <ele>182.3</ele>
        <time>2023-05-07T08:08:34Z</time>
      </trkpt>
      <trkpt lat="43.30855" lon="6.3814">
        <ele>182.8</ele>
        <time>2023-05-07T08:08:40Z</time>
      </trkpt>
      <trkpt lat="43.3086" lon="6.38138">
        <ele>183.4</ele>
        <time>2023-05-07T08:08:47Z</time>
      </trkpt>
      <trkpt lat="43.30865" lon="6.38136">
        <ele>183.7</ele>
        <time>2023-05-07T08:08:51Z</time>
      </trkpt>
      <trkpt lat="43.3087" lon="6.38134">
        <ele>183.9</ele>
        <time>2023-05-07T08:08:57Z</time>
      </trkpt>
      <trkpt lat="43.30876" lon="6.38133">
        <ele>183.9</ele>
        <time>2023-05-07T08:09:03Z</time>
      </trkpt>
      <trkpt lat="43.30881" lon="6.38131">
        <ele>184</ele>
        <time>2023-05-07T08:09:09Z</time>
      </trkpt>
      <trkpt lat="43.30886" lon="6.3813">
        <ele>183.9</ele>
        <time>2023-05-07T08:09:16Z</time>
      </trkpt>
      <trkpt lat="43.3089" lon="6.38129">
        <ele>184</ele>
        <time>2023-05-07T08:09:22Z</time>
      </trkpt>
      <trkpt lat="43.30898" lon="6.38128">
        <ele>184.4</ele>
        <time>2023-05-07T08:09:34Z</time>
      </trkpt>
      <trkpt lat="43.30903" lon="6.38129">
        <ele>184</ele>
        <time>2023-05-07T08:09:38Z</time>
      </trkpt>
      <trkpt lat="43.30908" lon="6.38129">
        <ele>183.7</ele>
        <time>2023-05-07T08:09:42Z</time>
      </trkpt>
      <trkpt lat="43.30915" lon="6.3813">
        <ele>183.4</ele>
        <time>2023-05-07T08:09:46Z</time>
      </trkpt>
      <trkpt lat="43.30921" lon="6.3813">
        <ele>183</ele>
        <time>2023-05-07T08:09:51Z</time>
      </trkpt>
      <trkpt lat="43.30928" lon="6.3813">
        <ele>183</ele>
        <time>2023-05-07T08:09:57Z</time>
      </trkpt>
      <trkpt lat="43.30935" lon="6.38129">
        <ele>182.9</ele>
        <time>2023-05-07T08:10:04Z</time>
      </trkpt>
      <trkpt lat="43.3094" lon="6.38127">
        <ele>183.3</ele>
        <time>2023-05-07T08:10:08Z</time>
      </trkpt>
      <trkpt lat="43.30944" lon="6.38125">
        <ele>183.5</ele>
        <time>2023-05-07T08:10:13Z</time>
      </trkpt>
      <trkpt lat="43.30949" lon="6.38121">
        <ele>182.3</ele>
        <time>2023-05-07T08:10:18Z</time>
      </trkpt>
      <trkpt lat="43.30953" lon="6.38116">
        <ele>180.7</ele>
        <time>2023-05-07T08:10:23Z</time>
      </trkpt>
      <trkpt lat="43.30955" lon="6.38109">
        <ele>181.5</ele>
        <time>2023-05-07T08:10:28Z</time>
      </trkpt>
      <trkpt lat="43.30956" lon="6.38101">
        <ele>182.4</ele>
        <time>2023-05-07T08:10:34Z</time>
      </trkpt>
      <trkpt lat="43.30959" lon="6.38095">
        <ele>182.6</ele>
        <time>2023-05-07T08:10:38Z</time>
      </trkpt>
      <trkpt lat="43.30961" lon="6.38088">
        <ele>182.9</ele>
        <time>2023-05-07T08:10:44Z</time>
      </trkpt>
      <trkpt lat="43.30964" lon="6.38077">
        <ele>184.3</ele>
        <time>2023-05-07T08:10:53Z</time>
      </trkpt>
      <trkpt lat="43.30968" lon="6.38072">
        <ele>183.7</ele>
        <time>2023-05-07T08:10:57Z</time>
      </trkpt>
      <trkpt lat="43.30972" lon="6.38066">
        <ele>183.1</ele>
        <time>2023-05-07T08:11:02Z</time>
      </trkpt>
      <trkpt lat="43.30975" lon="6.3806">
        <ele>183.7</ele>
        <time>2023-05-07T08:11:06Z</time>
      </trkpt>
      <trkpt lat="43.30978" lon="6.38053">
        <ele>184.8</ele>
        <time>2023-05-07T08:11:12Z</time>
      </trkpt>
      <trkpt lat="43.30982" lon="6.3805">
        <ele>184.5</ele>
        <time>2023-05-07T08:11:15Z</time>
      </trkpt>
      <trkpt lat="43.30986" lon="6.38047">
        <ele>184.1</ele>
        <time>2023-05-07T08:11:19Z</time>
      </trkpt>
      <trkpt lat="43.30993" lon="6.38041">
        <ele>183.7</ele>
        <time>2023-05-07T08:11:27Z</time>
      </trkpt>
      <trkpt lat="43.30997" lon="6.38037">
        <ele>183.8</ele>
        <time>2023-05-07T08:11:32Z</time>
      </trkpt>
      <trkpt lat="43.31001" lon="6.38032">
        <ele>184</ele>
        <time>2023-05-07T08:11:38Z</time>
      </trkpt>
      <trkpt lat="43.31008" lon="6.38025">
        <ele>184.7</ele>
        <time>2023-05-07T08:11:48Z</time>
      </trkpt>
      <trkpt lat="43.31015" lon="6.38021">
        <ele>184.6</ele>
        <time>2023-05-07T08:11:54Z</time>
      </trkpt>
      <trkpt lat="43.31021" lon="6.38016">
        <ele>184.4</ele>
        <time>2023-05-07T08:12:01Z</time>
      </trkpt>
      <trkpt lat="43.31026" lon="6.38014">
        <ele>183.6</ele>
        <time>2023-05-07T08:12:07Z</time>
      </trkpt>
      <trkpt lat="43.31031" lon="6.38012">
        <ele>183.1</ele>
        <time>2023-05-07T08:12:13Z</time>
      </trkpt>
      <trkpt lat="43.31036" lon="6.38008">
        <ele>183.7</ele>
        <time>2023-05-07T08:12:18Z</time>
      </trkpt>
      <trkpt lat="43.3104" lon="6.38004">
        <ele>184.3</ele>
        <time>2023-05-07T08:12:24Z</time>
      </trkpt>
      <trkpt lat="43.31046" lon="6.37996">
        <ele>186.2</ele>
        <time>2023-05-07T08:12:39Z</time>
      </trkpt>
      <trkpt lat="43.31051" lon="6.37993">
        <ele>186.2</ele>
        <time>2023-05-07T08:12:43Z</time>
      </trkpt>
      <trkpt lat="43.31056" lon="6.3799">
        <ele>186.3</ele>
        <time>2023-05-07T08:12:48Z</time>
      </trkpt>
      <trkpt lat="43.31063" lon="6.3799">
        <ele>185.9</ele>
        <time>2023-05-07T08:12:53Z</time>
      </trkpt>
      <trkpt lat="43.3107" lon="6.3799">
        <ele>185.5</ele>
        <time>2023-05-07T08:13:00Z</time>
      </trkpt>
      <trkpt lat="43.31075" lon="6.37989">
        <ele>185.9</ele>
        <time>2023-05-07T08:13:04Z</time>
      </trkpt>
      <trkpt lat="43.3108" lon="6.37987">
        <ele>186.3</ele>
        <time>2023-05-07T08:13:10Z</time>
      </trkpt>
      <trkpt lat="43.31084" lon="6.37985">
        <ele>187</ele>
        <time>2023-05-07T08:13:13Z</time>
      </trkpt>
      <trkpt lat="43.31089" lon="6.37983">
        <ele>187.2</ele>
        <time>2023-05-07T08:13:18Z</time>
      </trkpt>
      <trkpt lat="43.31093" lon="6.3798">
        <ele>187.4</ele>
        <time>2023-05-07T08:13:23Z</time>
      </trkpt>
      <trkpt lat="43.31097" lon="6.37978">
        <ele>187.5</ele>
        <time>2023-05-07T08:13:27Z</time>
      </trkpt>
      <trkpt lat="43.31102" lon="6.37975">
        <ele>188.1</ele>
        <time>2023-05-07T08:13:32Z</time>
      </trkpt>
      <trkpt lat="43.31106" lon="6.37971">
        <ele>188.6</ele>
        <time>2023-05-07T08:13:37Z</time>
      </trkpt>
      <trkpt lat="43.31111" lon="6.37969">
        <ele>188.7</ele>
        <time>2023-05-07T08:13:41Z</time>
      </trkpt>
      <trkpt lat="43.31115" lon="6.37966">
        <ele>188.8</ele>
        <time>2023-05-07T08:13:45Z</time>
      </trkpt>
      <trkpt lat="43.31123" lon="6.37961">
        <ele>188.9</ele>
        <time>2023-05-07T08:13:53Z</time>
      </trkpt>
      <trkpt lat="43.31131" lon="6.37958">
        <ele>188.1</ele>
        <time>2023-05-07T08:14:01Z</time>
      </trkpt>
      <trkpt lat="43.31136" lon="6.37954">
        <ele>188.5</ele>
        <time>2023-05-07T08:14:05Z</time>
      </trkpt>
      <trkpt lat="43.31141" lon="6.37949">
        <ele>188.1</ele>
        <time>2023-05-07T08:14:10Z</time>
      </trkpt>
      <trkpt lat="43.31146" lon="6.37946">
        <ele>186.4</ele>
        <time>2023-05-07T08:14:13Z</time>
      </trkpt>
      <trkpt lat="43.3115" lon="6.37943">
        <ele>184.5</ele>
        <time>2023-05-07T08:14:17Z</time>
      </trkpt>
      <trkpt lat="43.31155" lon="6.37937">
        <ele>182.9</ele>
        <time>2023-05-07T08:14:25Z</time>
      </trkpt>
      <trkpt lat="43.31157" lon="6.37931">
        <ele>183.3</ele>
        <time>2023-05-07T08:14:31Z</time>
      </trkpt>
      <trkpt lat="43.31158" lon="6.37925">
        <ele>183.7</ele>
        <time>2023-05-07T08:14:37Z</time>
      </trkpt>
      <trkpt lat="43.31156" lon="6.37919">
        <ele>186.4</ele>
        <time>2023-05-07T08:14:40Z</time>
      </trkpt>
      <trkpt lat="43.31154" lon="6.37913">
        <ele>189.5</ele>
        <time>2023-05-07T08:14:45Z</time>
      </trkpt>
      <trkpt lat="43.31157" lon="6.37902">
        <ele>191.8</ele>
        <time>2023-05-07T08:14:56Z</time>
      </trkpt>
      <trkpt lat="43.31164" lon="6.37899">
        <ele>189.8</ele>
        <time>2023-05-07T08:15:01Z</time>
      </trkpt>
      <trkpt lat="43.31171" lon="6.37895">
        <ele>188.6</ele>
        <time>2023-05-07T08:15:07Z</time>
      </trkpt>
      <trkpt lat="43.31176" lon="6.37892">
        <ele>188.2</ele>
        <time>2023-05-07T08:15:10Z</time>
      </trkpt>
      <trkpt lat="43.31181" lon="6.37889">
        <ele>187.8</ele>
        <time>2023-05-07T08:15:14Z</time>
      </trkpt>
      <trkpt lat="43.31185" lon="6.37885">
        <ele>187.7</ele>
        <time>2023-05-07T08:15:19Z</time>
      </trkpt>
      <trkpt lat="43.31189" lon="6.37881">
        <ele>187.4</ele>
        <time>2023-05-07T08:15:24Z</time>
      </trkpt>
      <trkpt lat="43.31193" lon="6.37877">
        <ele>187</ele>
        <time>2023-05-07T08:15:28Z</time>
      </trkpt>
      <trkpt lat="43.31197" lon="6.37873">
        <ele>186.4</ele>
        <time>2023-05-07T08:15:33Z</time>
      </trkpt>
      <trkpt lat="43.312" lon="6.37867">
        <ele>186.9</ele>
        <time>2023-05-07T08:15:38Z</time>
      </trkpt>
      <trkpt lat="43.31203" lon="6.37861">
        <ele>187.3</ele>
        <time>2023-05-07T08:15:43Z</time>
      </trkpt>
      <trkpt lat="43.31206" lon="6.37855">
        <ele>187.5</ele>
        <time>2023-05-07T08:15:47Z</time>
      </trkpt>
      <trkpt lat="43.31209" lon="6.37849">
        <ele>187.8</ele>
        <time>2023-05-07T08:15:53Z</time>
      </trkpt>
      <trkpt lat="43.31211" lon="6.37837">
        <ele>189.9</ele>
        <time>2023-05-07T08:16:03Z</time>
      </trkpt>
      <trkpt lat="43.31215" lon="6.37829">
        <ele>189.9</ele>
        <time>2023-05-07T08:16:08Z</time>
      </trkpt>
      <trkpt lat="43.31218" lon="6.3782">
        <ele>189.3</ele>
        <time>2023-05-07T08:16:14Z</time>
      </trkpt>
      <trkpt lat="43.31215" lon="6.37814">
        <ele>191.6</ele>
        <time>2023-05-07T08:16:18Z</time>
      </trkpt>
      <trkpt lat="43.31211" lon="6.37808">
        <ele>194</ele>
        <time>2023-05-07T08:16:24Z</time>
      </trkpt>
      <trkpt lat="43.31209" lon="6.37802">
        <ele>195.1</ele>
        <time>2023-05-07T08:16:29Z</time>
      </trkpt>
      <trkpt lat="43.31207" lon="6.37796">
        <ele>196</ele>
        <time>2023-05-07T08:16:34Z</time>
      </trkpt>
      <trkpt lat="43.31207" lon="6.37788">
        <ele>196.1</ele>
        <time>2023-05-07T08:16:39Z</time>
      </trkpt>
      <trkpt lat="43.31206" lon="6.37779">
        <ele>196.2</ele>
        <time>2023-05-07T08:16:45Z</time>
      </trkpt>
      <trkpt lat="43.31206" lon="6.37771">
        <ele>196</ele>
        <time>2023-05-07T08:16:51Z</time>
      </trkpt>
      <trkpt lat="43.31206" lon="6.37762">
        <ele>195.7</ele>
        <time>2023-05-07T08:16:59Z</time>
      </trkpt>
      <trkpt lat="43.31205" lon="6.37754">
        <ele>196.3</ele>
        <time>2023-05-07T08:17:04Z</time>
      </trkpt>
      <trkpt lat="43.31203" lon="6.37746">
        <ele>197</ele>
        <time>2023-05-07T08:17:11Z</time>
      </trkpt>
      <trkpt lat="43.31201" lon="6.37737">
        <ele>197.8</ele>
        <time>2023-05-07T08:17:16Z</time>
      </trkpt>
      <trkpt lat="43.31198" lon="6.37728">
        <ele>198.3</ele>
        <time>2023-05-07T08:17:22Z</time>
      </trkpt>
      <trkpt lat="43.31197" lon="6.37722">
        <ele>198.1</ele>
        <time>2023-05-07T08:18:08Z</time>
      </trkpt>
      <trkpt lat="43.31195" lon="6.37715">
        <ele>196.3</ele>
        <time>2023-05-07T08:19:07Z</time>
      </trkpt>
      <trkpt lat="43.31188" lon="6.37716">
        <ele>197</ele>
        <time>2023-05-07T08:19:38Z</time>
      </trkpt>
      <trkpt lat="43.31182" lon="6.37716">
        <ele>197.3</ele>
        <time>2023-05-07T08:19:45Z</time>
      </trkpt>
      <trkpt lat="43.31176" lon="6.37716">
        <ele>197.6</ele>
        <time>2023-05-07T08:19:53Z</time>
      </trkpt>
      <trkpt lat="43.3117" lon="6.37716">
        <ele>197.9</ele>
        <time>2023-05-07T08:19:56Z</time>
      </trkpt>
      <trkpt lat="43.31163" lon="6.37716">
        <ele>198.8</ele>
        <time>2023-05-07T08:19:59Z</time>
      </trkpt>
      <trkpt lat="43.31157" lon="6.37716">
        <ele>200.3</ele>
        <time>2023-05-07T08:20:03Z</time>
      </trkpt>
      <trkpt lat="43.3115" lon="6.37716">
        <ele>201.9</ele>
        <time>2023-05-07T08:20:07Z</time>
      </trkpt>
      <trkpt lat="43.31145" lon="6.37712">
        <ele>201.9</ele>
        <time>2023-05-07T08:20:13Z</time>
      </trkpt>
      <trkpt lat="43.31139" lon="6.37707">
        <ele>202.1</ele>
        <time>2023-05-07T08:20:21Z</time>
      </trkpt>
      <trkpt lat="43.31139" lon="6.37705">
        <ele>201.6</ele>
        <time>2023-05-07T08:20:53Z</time>
      </trkpt>
      <trkpt lat="43.31135" lon="6.37703">
        <ele>201.9</ele>
        <time>2023-05-07T08:21:33Z</time>
      </trkpt>
      <trkpt lat="43.3113" lon="6.37702">
        <ele>202.6</ele>
        <time>2023-05-07T08:21:54Z</time>
      </trkpt>
      <trkpt lat="43.31124" lon="6.37701">
        <ele>203.6</ele>
        <time>2023-05-07T08:22:00Z</time>
      </trkpt>
      <trkpt lat="43.31117" lon="6.377">
        <ele>204.5</ele>
        <time>2023-05-07T08:22:09Z</time>
      </trkpt>
      <trkpt lat="43.31111" lon="6.37698">
        <ele>204.9</ele>
        <time>2023-05-07T08:22:14Z</time>
      </trkpt>
      <trkpt lat="43.31105" lon="6.37695">
        <ele>205.9</ele>
        <time>2023-05-07T08:22:21Z</time>
      </trkpt>
      <trkpt lat="43.311" lon="6.37692">
        <ele>206.5</ele>
        <time>2023-05-07T08:22:25Z</time>
      </trkpt>
      <trkpt lat="43.31096" lon="6.3769">
        <ele>207</ele>
        <time>2023-05-07T08:22:29Z</time>
      </trkpt>
      <trkpt lat="43.31091" lon="6.37687">
        <ele>207.5</ele>
        <time>2023-05-07T08:22:33Z</time>
      </trkpt>
      <trkpt lat="43.31086" lon="6.37684">
        <ele>207.9</ele>
        <time>2023-05-07T08:22:38Z</time>
      </trkpt>
      <trkpt lat="43.31081" lon="6.3768">
        <ele>207.9</ele>
        <time>2023-05-07T08:22:44Z</time>
      </trkpt>
      <trkpt lat="43.31076" lon="6.37676">
        <ele>207.7</ele>
        <time>2023-05-07T08:22:51Z</time>
      </trkpt>
      <trkpt lat="43.3107" lon="6.37673">
        <ele>207.9</ele>
        <time>2023-05-07T08:22:57Z</time>
      </trkpt>
      <trkpt lat="43.31064" lon="6.37669">
        <ele>208</ele>
        <time>2023-05-07T08:23:05Z</time>
      </trkpt>
      <trkpt lat="43.31059" lon="6.37667">
        <ele>208.5</ele>
        <time>2023-05-07T08:23:11Z</time>
      </trkpt>
      <trkpt lat="43.31053" lon="6.37665">
        <ele>208.6</ele>
        <time>2023-05-07T08:23:19Z</time>
      </trkpt>
      <trkpt lat="43.31048" lon="6.37664">
        <ele>208.6</ele>
        <time>2023-05-07T08:23:25Z</time>
      </trkpt>
      <trkpt lat="43.31042" lon="6.37662">
        <ele>208.6</ele>
        <time>2023-05-07T08:23:33Z</time>
      </trkpt>
      <trkpt lat="43.31037" lon="6.37661">
        <ele>208.8</ele>
        <time>2023-05-07T08:23:40Z</time>
      </trkpt>
      <trkpt lat="43.31032" lon="6.3766">
        <ele>208.9</ele>
        <time>2023-05-07T08:23:47Z</time>
      </trkpt>
      <trkpt lat="43.31026" lon="6.37657">
        <ele>208.8</ele>
        <time>2023-05-07T08:23:53Z</time>
      </trkpt>
      <trkpt lat="43.3102" lon="6.37654">
        <ele>210.1</ele>
        <time>2023-05-07T08:24:01Z</time>
      </trkpt>
      <trkpt lat="43.31016" lon="6.37647">
        <ele>209.8</ele>
        <time>2023-05-07T08:24:08Z</time>
      </trkpt>
      <trkpt lat="43.31012" lon="6.37639">
        <ele>210.1</ele>
        <time>2023-05-07T08:24:16Z</time>
      </trkpt>
      <trkpt lat="43.31009" lon="6.3763">
        <ele>211</ele>
        <time>2023-05-07T08:24:22Z</time>
      </trkpt>
      <trkpt lat="43.31006" lon="6.37621">
        <ele>211.8</ele>
        <time>2023-05-07T08:24:29Z</time>
      </trkpt>
      <trkpt lat="43.31002" lon="6.37614">
        <ele>213.5</ele>
        <time>2023-05-07T08:24:34Z</time>
      </trkpt>
      <trkpt lat="43.30997" lon="6.37607">
        <ele>214.7</ele>
        <time>2023-05-07T08:24:41Z</time>
      </trkpt>
      <trkpt lat="43.30994" lon="6.376">
        <ele>215</ele>
        <time>2023-05-07T08:24:46Z</time>
      </trkpt>
      <trkpt lat="43.3099" lon="6.37593">
        <ele>215.1</ele>
        <time>2023-05-07T08:24:53Z</time>
      </trkpt>
      <trkpt lat="43.30986" lon="6.37588">
        <ele>215.8</ele>
        <time>2023-05-07T08:24:59Z</time>
      </trkpt>
      <trkpt lat="43.30981" lon="6.37583">
        <ele>216.4</ele>
        <time>2023-05-07T08:25:07Z</time>
      </trkpt>
      <trkpt lat="43.30979" lon="6.37577">
        <ele>215.9</ele>
        <time>2023-05-07T08:25:14Z</time>
      </trkpt>
      <trkpt lat="43.30977" lon="6.37571">
        <ele>215.4</ele>
        <time>2023-05-07T08:25:22Z</time>
      </trkpt>
      <trkpt lat="43.30972" lon="6.37565">
        <ele>216</ele>
        <time>2023-05-07T08:25:29Z</time>
      </trkpt>
      <trkpt lat="43.30967" lon="6.37558">
        <ele>215.9</ele>
        <time>2023-05-07T08:25:37Z</time>
      </trkpt>
      <trkpt lat="43.30961" lon="6.37554">
        <ele>216.3</ele>
        <time>2023-05-07T08:25:42Z</time>
      </trkpt>
      <trkpt lat="43.30954" lon="6.37549">
        <ele>216.5</ele>
        <time>2023-05-07T08:25:50Z</time>
      </trkpt>
      <trkpt lat="43.30949" lon="6.37547">
        <ele>216.9</ele>
        <time>2023-05-07T08:25:57Z</time>
      </trkpt>
      <trkpt lat="43.30944" lon="6.37544">
        <ele>217.3</ele>
        <time>2023-05-07T08:26:05Z</time>
      </trkpt>
      <trkpt lat="43.30939" lon="6.37545">
        <ele>218</ele>
        <time>2023-05-07T08:26:12Z</time>
      </trkpt>
      <trkpt lat="43.30934" lon="6.37546">
        <ele>218.8</ele>
        <time>2023-05-07T08:26:20Z</time>
      </trkpt>
      <trkpt lat="43.30928" lon="6.37545">
        <ele>218.9</ele>
        <time>2023-05-07T08:26:25Z</time>
      </trkpt>
      <trkpt lat="43.30921" lon="6.37543">
        <ele>219</ele>
        <time>2023-05-07T08:26:32Z</time>
      </trkpt>
      <trkpt lat="43.30915" lon="6.37546">
        <ele>219.9</ele>
        <time>2023-05-07T08:26:37Z</time>
      </trkpt>
      <trkpt lat="43.30908" lon="6.37548">
        <ele>220.1</ele>
        <time>2023-05-07T08:26:43Z</time>
      </trkpt>
      <trkpt lat="43.30904" lon="6.37552">
        <ele>220.5</ele>
        <time>2023-05-07T08:26:49Z</time>
      </trkpt>
      <trkpt lat="43.30899" lon="6.37555">
        <ele>221</ele>
        <time>2023-05-07T08:26:56Z</time>
      </trkpt>
      <trkpt lat="43.30896" lon="6.37562">
        <ele>221.9</ele>
        <time>2023-05-07T08:27:03Z</time>
      </trkpt>
      <trkpt lat="43.30892" lon="6.37568">
        <ele>222.7</ele>
        <time>2023-05-07T08:27:10Z</time>
      </trkpt>
      <trkpt lat="43.3089" lon="6.37574">
        <ele>223.5</ele>
        <time>2023-05-07T08:27:17Z</time>
      </trkpt>
      <trkpt lat="43.30888" lon="6.3758">
        <ele>224.1</ele>
        <time>2023-05-07T08:27:25Z</time>
      </trkpt>
      <trkpt lat="43.30887" lon="6.37586">
        <ele>224.7</ele>
        <time>2023-05-07T08:27:32Z</time>
      </trkpt>
      <trkpt lat="43.30885" lon="6.37592">
        <ele>225.5</ele>
        <time>2023-05-07T08:27:40Z</time>
      </trkpt>
      <trkpt lat="43.30881" lon="6.37599">
        <ele>225.7</ele>
        <time>2023-05-07T08:27:44Z</time>
      </trkpt>
      <trkpt lat="43.30877" lon="6.37606">
        <ele>226</ele>
        <time>2023-05-07T08:27:50Z</time>
      </trkpt>
      <trkpt lat="43.30872" lon="6.37614">
        <ele>225.9</ele>
        <time>2023-05-07T08:27:56Z</time>
      </trkpt>
      <trkpt lat="43.30866" lon="6.37621">
        <ele>225.7</ele>
        <time>2023-05-07T08:28:04Z</time>
      </trkpt>
      <trkpt lat="43.30864" lon="6.37631">
        <ele>227</ele>
        <time>2023-05-07T08:28:11Z</time>
      </trkpt>
      <trkpt lat="43.30861" lon="6.3764">
        <ele>228.2</ele>
        <time>2023-05-07T08:28:19Z</time>
      </trkpt>
      <trkpt lat="43.30856" lon="6.37643">
        <ele>227.1</ele>
        <time>2023-05-07T08:28:21Z</time>
      </trkpt>
      <trkpt lat="43.30851" lon="6.37646">
        <ele>226.2</ele>
        <time>2023-05-07T08:28:24Z</time>
      </trkpt>
      <trkpt lat="43.30845" lon="6.37648">
        <ele>225.3</ele>
        <time>2023-05-07T08:28:28Z</time>
      </trkpt>
      <trkpt lat="43.3084" lon="6.37651">
        <ele>224.4</ele>
        <time>2023-05-07T08:28:31Z</time>
      </trkpt>
      <trkpt lat="43.30841" lon="6.37658">
        <ele>226.5</ele>
        <time>2023-05-07T08:28:38Z</time>
      </trkpt>
      <trkpt lat="43.30841" lon="6.37665">
        <ele>228.5</ele>
        <time>2023-05-07T08:28:45Z</time>
      </trkpt>
      <trkpt lat="43.30838" lon="6.37672">
        <ele>229.1</ele>
        <time>2023-05-07T08:28:51Z</time>
      </trkpt>
      <trkpt lat="43.30835" lon="6.37678">
        <ele>229.5</ele>
        <time>2023-05-07T08:28:57Z</time>
      </trkpt>
      <trkpt lat="43.30833" lon="6.37685">
        <ele>230</ele>
        <time>2023-05-07T08:29:02Z</time>
      </trkpt>
      <trkpt lat="43.30831" lon="6.37691">
        <ele>230</ele>
        <time>2023-05-07T08:29:08Z</time>
      </trkpt>
      <trkpt lat="43.30831" lon="6.37701">
        <ele>231.6</ele>
        <time>2023-05-07T08:29:24Z</time>
      </trkpt>
      <trkpt lat="43.3083" lon="6.37708">
        <ele>231.9</ele>
        <time>2023-05-07T08:29:29Z</time>
      </trkpt>
      <trkpt lat="43.30828" lon="6.37714">
        <ele>232.2</ele>
        <time>2023-05-07T08:29:35Z</time>
      </trkpt>
      <trkpt lat="43.30824" lon="6.37725">
        <ele>232.9</ele>
        <time>2023-05-07T08:29:47Z</time>
      </trkpt>
      <trkpt lat="43.30821" lon="6.37736">
        <ele>235.7</ele>
        <time>2023-05-07T08:30:02Z</time>
      </trkpt>
      <trkpt lat="43.30817" lon="6.37742">
        <ele>236.7</ele>
        <time>2023-05-07T08:30:29Z</time>
      </trkpt>
      <trkpt lat="43.30809" lon="6.37737">
        <ele>232.1</ele>
        <time>2023-05-07T08:30:47Z</time>
      </trkpt>
      <trkpt lat="43.30805" lon="6.37734">
        <ele>229.6</ele>
        <time>2023-05-07T08:30:53Z</time>
      </trkpt>
      <trkpt lat="43.308" lon="6.37731">
        <ele>228.6</ele>
        <time>2023-05-07T08:31:00Z</time>
      </trkpt>
      <trkpt lat="43.30794" lon="6.37734">
        <ele>230.4</ele>
        <time>2023-05-07T08:31:16Z</time>
      </trkpt>
      <trkpt lat="43.30787" lon="6.37735">
        <ele>231.4</ele>
        <time>2023-05-07T08:31:36Z</time>
      </trkpt>
      <trkpt lat="43.30783" lon="6.37735">
        <ele>231.7</ele>
        <time>2023-05-07T08:32:02Z</time>
      </trkpt>
      <trkpt lat="43.30782" lon="6.37735">
        <ele>231.7</ele>
        <time>2023-05-07T08:32:32Z</time>
      </trkpt>
      <trkpt lat="43.30776" lon="6.37737">
        <ele>232.7</ele>
        <time>2023-05-07T08:33:40Z</time>
      </trkpt>
      <trkpt lat="43.30769" lon="6.37738">
        <ele>233.2</ele>
        <time>2023-05-07T08:34:58Z</time>
      </trkpt>
      <trkpt lat="43.30763" lon="6.3774">
        <ele>234</ele>
        <time>2023-05-07T08:35:05Z</time>
      </trkpt>
      <trkpt lat="43.30756" lon="6.37742">
        <ele>234.8</ele>
        <time>2023-05-07T08:35:14Z</time>
      </trkpt>
      <trkpt lat="43.3075" lon="6.37744">
        <ele>235.6</ele>
        <time>2023-05-07T08:35:20Z</time>
      </trkpt>
      <trkpt lat="43.30744" lon="6.37746">
        <ele>235.4</ele>
        <time>2023-05-07T08:35:27Z</time>
      </trkpt>
      <trkpt lat="43.30738" lon="6.37751">
        <ele>235.9</ele>
        <time>2023-05-07T08:35:35Z</time>
      </trkpt>
      <trkpt lat="43.30731" lon="6.37755">
        <ele>236.4</ele>
        <time>2023-05-07T08:35:45Z</time>
      </trkpt>
      <trkpt lat="43.30727" lon="6.37758">
        <ele>236.6</ele>
        <time>2023-05-07T08:35:49Z</time>
      </trkpt>
      <trkpt lat="43.30722" lon="6.37761">
        <ele>236.8</ele>
        <time>2023-05-07T08:35:54Z</time>
      </trkpt>
      <trkpt lat="43.30718" lon="6.37763">
        <ele>237.2</ele>
        <time>2023-05-07T08:35:58Z</time>
      </trkpt>
      <trkpt lat="43.30713" lon="6.37766">
        <ele>237.6</ele>
        <time>2023-05-07T08:36:03Z</time>
      </trkpt>
      <trkpt lat="43.30709" lon="6.37769">
        <ele>238</ele>
        <time>2023-05-07T08:36:06Z</time>
      </trkpt>
      <trkpt lat="43.30704" lon="6.37772">
        <ele>238.3</ele>
        <time>2023-05-07T08:36:10Z</time>
      </trkpt>
      <trkpt lat="43.307" lon="6.37774">
        <ele>238.6</ele>
        <time>2023-05-07T08:36:13Z</time>
      </trkpt>
      <trkpt lat="43.30695" lon="6.37777">
        <ele>238.8</ele>
        <time>2023-05-07T08:36:17Z</time>
      </trkpt>
      <trkpt lat="43.30688" lon="6.37781">
        <ele>239</ele>
        <time>2023-05-07T08:36:22Z</time>
      </trkpt>
      <trkpt lat="43.3068" lon="6.37785">
        <ele>239.1</ele>
        <time>2023-05-07T08:36:29Z</time>
      </trkpt>
      <trkpt lat="43.30677" lon="6.3779">
        <ele>240.1</ele>
        <time>2023-05-07T08:36:36Z</time>
      </trkpt>
      <trkpt lat="43.30673" lon="6.37794">
        <ele>241</ele>
        <time>2023-05-07T08:36:44Z</time>
      </trkpt>
      <trkpt lat="43.30669" lon="6.37797">
        <ele>241.5</ele>
        <time>2023-05-07T08:36:50Z</time>
      </trkpt>
      <trkpt lat="43.30665" lon="6.378">
        <ele>241.9</ele>
        <time>2023-05-07T08:36:56Z</time>
      </trkpt>
      <trkpt lat="43.30659" lon="6.37805">
        <ele>242.3</ele>
        <time>2023-05-07T08:37:03Z</time>
      </trkpt>
      <trkpt lat="43.30652" lon="6.3781">
        <ele>242.8</ele>
        <time>2023-05-07T08:37:11Z</time>
      </trkpt>
      <trkpt lat="43.30648" lon="6.37814">
        <ele>243.3</ele>
        <time>2023-05-07T08:37:16Z</time>
      </trkpt>
      <trkpt lat="43.30643" lon="6.37818">
        <ele>243.8</ele>
        <time>2023-05-07T08:37:22Z</time>
      </trkpt>
      <trkpt lat="43.30637" lon="6.37823">
        <ele>244.3</ele>
        <time>2023-05-07T08:37:28Z</time>
      </trkpt>
      <trkpt lat="43.3063" lon="6.37828">
        <ele>245.2</ele>
        <time>2023-05-07T08:37:36Z</time>
      </trkpt>
      <trkpt lat="43.30624" lon="6.37831">
        <ele>245.3</ele>
        <time>2023-05-07T08:37:44Z</time>
      </trkpt>
      <trkpt lat="43.30617" lon="6.37833">
        <ele>245.5</ele>
        <time>2023-05-07T08:37:53Z</time>
      </trkpt>
      <trkpt lat="43.3061" lon="6.37832">
        <ele>244.5</ele>
        <time>2023-05-07T08:37:59Z</time>
      </trkpt>
      <trkpt lat="43.30602" lon="6.37831">
        <ele>244.4</ele>
        <time>2023-05-07T08:38:06Z</time>
      </trkpt>
      <trkpt lat="43.30596" lon="6.37832">
        <ele>245</ele>
        <time>2023-05-07T08:38:12Z</time>
      </trkpt>
      <trkpt lat="43.3059" lon="6.37833">
        <ele>245.6</ele>
        <time>2023-05-07T08:38:18Z</time>
      </trkpt>
      <trkpt lat="43.30583" lon="6.37834">
        <ele>246.1</ele>
        <time>2023-05-07T08:38:26Z</time>
      </trkpt>
      <trkpt lat="43.30576" lon="6.37834">
        <ele>246.8</ele>
        <time>2023-05-07T08:38:34Z</time>
      </trkpt>
      <trkpt lat="43.30571" lon="6.37835">
        <ele>247.3</ele>
        <time>2023-05-07T08:38:40Z</time>
      </trkpt>
      <trkpt lat="43.30566" lon="6.37835">
        <ele>247.8</ele>
        <time>2023-05-07T08:38:47Z</time>
      </trkpt>
      <trkpt lat="43.30561" lon="6.37834">
        <ele>247.7</ele>
        <time>2023-05-07T08:38:52Z</time>
      </trkpt>
      <trkpt lat="43.30556" lon="6.37832">
        <ele>247.5</ele>
        <time>2023-05-07T08:38:59Z</time>
      </trkpt>
      <trkpt lat="43.30552" lon="6.37834">
        <ele>248.4</ele>
        <time>2023-05-07T08:39:04Z</time>
      </trkpt>
      <trkpt lat="43.30547" lon="6.37836">
        <ele>249.3</ele>
        <time>2023-05-07T08:39:11Z</time>
      </trkpt>
      <trkpt lat="43.30543" lon="6.37838">
        <ele>250</ele>
        <time>2023-05-07T08:39:18Z</time>
      </trkpt>
      <trkpt lat="43.30538" lon="6.37839">
        <ele>250.7</ele>
        <time>2023-05-07T08:39:27Z</time>
      </trkpt>
      <trkpt lat="43.30534" lon="6.37837">
        <ele>249.9</ele>
        <time>2023-05-07T08:39:32Z</time>
      </trkpt>
      <trkpt lat="43.30529" lon="6.37834">
        <ele>249.2</ele>
        <time>2023-05-07T08:39:40Z</time>
      </trkpt>
      <trkpt lat="43.30525" lon="6.37834">
        <ele>248.9</ele>
        <time>2023-05-07T08:40:07Z</time>
      </trkpt>
      <trkpt lat="43.30523" lon="6.37844">
        <ele>252.3</ele>
        <time>2023-05-07T08:40:30Z</time>
      </trkpt>
      <trkpt lat="43.30517" lon="6.37851">
        <ele>254.2</ele>
        <time>2023-05-07T08:40:49Z</time>
      </trkpt>
      <trkpt lat="43.30509" lon="6.37854">
        <ele>254.4</ele>
        <time>2023-05-07T08:41:07Z</time>
      </trkpt>
      <trkpt lat="43.30505" lon="6.37855">
        <ele>254.3</ele>
        <time>2023-05-07T08:41:15Z</time>
      </trkpt>
      <trkpt lat="43.305" lon="6.37856">
        <ele>254.2</ele>
        <time>2023-05-07T08:41:26Z</time>
      </trkpt>
      <trkpt lat="43.30497" lon="6.37856">
        <ele>253.7</ele>
        <time>2023-05-07T08:43:07Z</time>
      </trkpt>
      <trkpt lat="43.30492" lon="6.37859">
        <ele>253.9</ele>
        <time>2023-05-07T08:43:14Z</time>
      </trkpt>
      <trkpt lat="43.30487" lon="6.37861">
        <ele>254.1</ele>
        <time>2023-05-07T08:43:21Z</time>
      </trkpt>
      <trkpt lat="43.30479" lon="6.37862">
        <ele>253.3</ele>
        <time>2023-05-07T08:43:28Z</time>
      </trkpt>
      <trkpt lat="43.3047" lon="6.37863">
        <ele>252.4</ele>
        <time>2023-05-07T08:43:36Z</time>
      </trkpt>
      <trkpt lat="43.30464" lon="6.37866">
        <ele>252.7</ele>
        <time>2023-05-07T08:43:42Z</time>
      </trkpt>
      <trkpt lat="43.30457" lon="6.37869">
        <ele>252.9</ele>
        <time>2023-05-07T08:43:51Z</time>
      </trkpt>
      <trkpt lat="43.30453" lon="6.37873">
        <ele>253.9</ele>
        <time>2023-05-07T08:43:57Z</time>
      </trkpt>
      <trkpt lat="43.30448" lon="6.37877">
        <ele>254.8</ele>
        <time>2023-05-07T08:44:06Z</time>
      </trkpt>
      <trkpt lat="43.30443" lon="6.3788">
        <ele>255.2</ele>
        <time>2023-05-07T08:44:12Z</time>
      </trkpt>
      <trkpt lat="43.30437" lon="6.37882">
        <ele>256</ele>
        <time>2023-05-07T08:44:19Z</time>
      </trkpt>
      <trkpt lat="43.30432" lon="6.37882">
        <ele>255.8</ele>
        <time>2023-05-07T08:44:23Z</time>
      </trkpt>
      <trkpt lat="43.30426" lon="6.37882">
        <ele>255.6</ele>
        <time>2023-05-07T08:44:30Z</time>
      </trkpt>
      <trkpt lat="43.30421" lon="6.37881">
        <ele>255</ele>
        <time>2023-05-07T08:44:35Z</time>
      </trkpt>
      <trkpt lat="43.30415" lon="6.3788">
        <ele>254.6</ele>
        <time>2023-05-07T08:44:42Z</time>
      </trkpt>
      <trkpt lat="43.3041" lon="6.37882">
        <ele>255.6</ele>
        <time>2023-05-07T08:44:51Z</time>
      </trkpt>
      <trkpt lat="43.30405" lon="6.37883">
        <ele>256.5</ele>
        <time>2023-05-07T08:45:00Z</time>
      </trkpt>
      <trkpt lat="43.30399" lon="6.37879">
        <ele>255.4</ele>
        <time>2023-05-07T08:45:05Z</time>
      </trkpt>
      <trkpt lat="43.30392" lon="6.37875">
        <ele>254.3</ele>
        <time>2023-05-07T08:45:11Z</time>
      </trkpt>
      <trkpt lat="43.30386" lon="6.37871">
        <ele>254.8</ele>
        <time>2023-05-07T08:45:16Z</time>
      </trkpt>
      <trkpt lat="43.30379" lon="6.37867">
        <ele>257</ele>
        <time>2023-05-07T08:45:23Z</time>
      </trkpt>
      <trkpt lat="43.30376" lon="6.37858">
        <ele>256.7</ele>
        <time>2023-05-07T08:45:30Z</time>
      </trkpt>
      <trkpt lat="43.30372" lon="6.37848">
        <ele>257.6</ele>
        <time>2023-05-07T08:45:40Z</time>
      </trkpt>
      <trkpt lat="43.30369" lon="6.37841">
        <ele>258.5</ele>
        <time>2023-05-07T08:45:46Z</time>
      </trkpt>
      <trkpt lat="43.30366" lon="6.37834">
        <ele>259.3</ele>
        <time>2023-05-07T08:45:53Z</time>
      </trkpt>
      <trkpt lat="43.30363" lon="6.3783">
        <ele>260</ele>
        <time>2023-05-07T08:45:58Z</time>
      </trkpt>
      <trkpt lat="43.30359" lon="6.37825">
        <ele>260.1</ele>
        <time>2023-05-07T08:46:05Z</time>
      </trkpt>
      <trkpt lat="43.30355" lon="6.37821">
        <ele>260.3</ele>
        <time>2023-05-07T08:46:08Z</time>
      </trkpt>
      <trkpt lat="43.30352" lon="6.37818">
        <ele>260.5</ele>
        <time>2023-05-07T08:46:11Z</time>
      </trkpt>
      <trkpt lat="43.30348" lon="6.37814">
        <ele>260.8</ele>
        <time>2023-05-07T08:46:15Z</time>
      </trkpt>
      <trkpt lat="43.30344" lon="6.3781">
        <ele>261.1</ele>
        <time>2023-05-07T08:46:20Z</time>
      </trkpt>
      <trkpt lat="43.30341" lon="6.37805">
        <ele>260.8</ele>
        <time>2023-05-07T08:46:25Z</time>
      </trkpt>
      <trkpt lat="43.30338" lon="6.378">
        <ele>260.4</ele>
        <time>2023-05-07T08:46:32Z</time>
      </trkpt>
      <trkpt lat="43.30334" lon="6.37798">
        <ele>261.3</ele>
        <time>2023-05-07T08:46:36Z</time>
      </trkpt>
      <trkpt lat="43.30329" lon="6.37795">
        <ele>261.4</ele>
        <time>2023-05-07T08:46:43Z</time>
      </trkpt>
      <trkpt lat="43.30324" lon="6.37794">
        <ele>262</ele>
        <time>2023-05-07T08:46:49Z</time>
      </trkpt>
      <trkpt lat="43.30319" lon="6.37793">
        <ele>262.6</ele>
        <time>2023-05-07T08:46:56Z</time>
      </trkpt>
      <trkpt lat="43.30312" lon="6.37788">
        <ele>261.9</ele>
        <time>2023-05-07T08:47:10Z</time>
      </trkpt>
      <trkpt lat="43.30307" lon="6.37787">
        <ele>262.3</ele>
        <time>2023-05-07T08:47:16Z</time>
      </trkpt>
      <trkpt lat="43.30301" lon="6.37785">
        <ele>263.1</ele>
        <time>2023-05-07T08:47:24Z</time>
      </trkpt>
      <trkpt lat="43.30296" lon="6.37782">
        <ele>263.1</ele>
        <time>2023-05-07T08:47:29Z</time>
      </trkpt>
      <trkpt lat="43.30291" lon="6.37778">
        <ele>263.3</ele>
        <time>2023-05-07T08:47:34Z</time>
      </trkpt>
      <trkpt lat="43.30286" lon="6.37775">
        <ele>263.9</ele>
        <time>2023-05-07T08:47:39Z</time>
      </trkpt>
      <trkpt lat="43.30281" lon="6.37771">
        <ele>264.9</ele>
        <time>2023-05-07T08:47:45Z</time>
      </trkpt>
      <trkpt lat="43.30277" lon="6.37765">
        <ele>265.9</ele>
        <time>2023-05-07T08:47:51Z</time>
      </trkpt>
      <trkpt lat="43.30272" lon="6.37759">
        <ele>267.6</ele>
        <time>2023-05-07T08:47:58Z</time>
      </trkpt>
      <trkpt lat="43.3027" lon="6.37753">
        <ele>268.1</ele>
        <time>2023-05-07T08:48:02Z</time>
      </trkpt>
      <trkpt lat="43.30267" lon="6.37746">
        <ele>268.3</ele>
        <time>2023-05-07T08:48:07Z</time>
      </trkpt>
      <trkpt lat="43.30265" lon="6.3774">
        <ele>268.4</ele>
        <time>2023-05-07T08:48:11Z</time>
      </trkpt>
      <trkpt lat="43.30262" lon="6.37733">
        <ele>268.4</ele>
        <time>2023-05-07T08:48:17Z</time>
      </trkpt>
      <trkpt lat="43.30259" lon="6.37725">
        <ele>268.6</ele>
        <time>2023-05-07T08:48:22Z</time>
      </trkpt>
      <trkpt lat="43.30255" lon="6.37716">
        <ele>268.8</ele>
        <time>2023-05-07T08:48:28Z</time>
      </trkpt>
      <trkpt lat="43.30252" lon="6.3771">
        <ele>269.5</ele>
        <time>2023-05-07T08:48:33Z</time>
      </trkpt>
      <trkpt lat="43.30248" lon="6.37704">
        <ele>269.6</ele>
        <time>2023-05-07T08:48:39Z</time>
      </trkpt>
      <trkpt lat="43.30247" lon="6.37698">
        <ele>268.4</ele>
        <time>2023-05-07T08:48:44Z</time>
      </trkpt>
      <trkpt lat="43.30246" lon="6.37691">
        <ele>267</ele>
        <time>2023-05-07T08:48:50Z</time>
      </trkpt>
      <trkpt lat="43.30243" lon="6.37686">
        <ele>266.2</ele>
        <time>2023-05-07T08:48:55Z</time>
      </trkpt>
      <trkpt lat="43.30239" lon="6.3768">
        <ele>265.4</ele>
        <time>2023-05-07T08:49:02Z</time>
      </trkpt>
      <trkpt lat="43.30232" lon="6.37679">
        <ele>266.7</ele>
        <time>2023-05-07T08:49:06Z</time>
      </trkpt>
      <trkpt lat="43.30224" lon="6.37677">
        <ele>267.9</ele>
        <time>2023-05-07T08:49:11Z</time>
      </trkpt>
      <trkpt lat="43.30219" lon="6.37676">
        <ele>266.5</ele>
        <time>2023-05-07T08:49:15Z</time>
      </trkpt>
      <trkpt lat="43.30214" lon="6.37675">
        <ele>263.9</ele>
        <time>2023-05-07T08:49:21Z</time>
      </trkpt>
      <trkpt lat="43.3021" lon="6.37679">
        <ele>263.1</ele>
        <time>2023-05-07T08:49:29Z</time>
      </trkpt>
      <trkpt lat="43.30206" lon="6.37682">
        <ele>262.4</ele>
        <time>2023-05-07T08:49:38Z</time>
      </trkpt>
      <trkpt lat="43.30205" lon="6.37691">
        <ele>264.7</ele>
        <time>2023-05-07T08:49:45Z</time>
      </trkpt>
      <trkpt lat="43.30204" lon="6.37699">
        <ele>266.6</ele>
        <time>2023-05-07T08:49:52Z</time>
      </trkpt>
      <trkpt lat="43.30202" lon="6.37705">
        <ele>267.1</ele>
        <time>2023-05-07T08:49:58Z</time>
      </trkpt>
      <trkpt lat="43.302" lon="6.37711">
        <ele>267.7</ele>
        <time>2023-05-07T08:50:06Z</time>
      </trkpt>
      <trkpt lat="43.30197" lon="6.37717">
        <ele>267.7</ele>
        <time>2023-05-07T08:50:11Z</time>
      </trkpt>
      <trkpt lat="43.30194" lon="6.37722">
        <ele>267.8</ele>
        <time>2023-05-07T08:50:17Z</time>
      </trkpt>
      <trkpt lat="43.3019" lon="6.37727">
        <ele>267.8</ele>
        <time>2023-05-07T08:50:22Z</time>
      </trkpt>
      <trkpt lat="43.30185" lon="6.37731">
        <ele>268</ele>
        <time>2023-05-07T08:50:29Z</time>
      </trkpt>
      <trkpt lat="43.30181" lon="6.37734">
        <ele>267.4</ele>
        <time>2023-05-07T08:50:34Z</time>
      </trkpt>
      <trkpt lat="43.30176" lon="6.37736">
        <ele>267</ele>
        <time>2023-05-07T08:50:40Z</time>
      </trkpt>
      <trkpt lat="43.30171" lon="6.37741">
        <ele>267.5</ele>
        <time>2023-05-07T08:50:45Z</time>
      </trkpt>
      <trkpt lat="43.30166" lon="6.37746">
        <ele>268</ele>
        <time>2023-05-07T08:50:52Z</time>
      </trkpt>
      <trkpt lat="43.30163" lon="6.37753">
        <ele>269.2</ele>
        <time>2023-05-07T08:50:59Z</time>
      </trkpt>
      <trkpt lat="43.3016" lon="6.3776">
        <ele>269.7</ele>
        <time>2023-05-07T08:51:06Z</time>
      </trkpt>
      <trkpt lat="43.30158" lon="6.37767">
        <ele>270.7</ele>
        <time>2023-05-07T08:51:11Z</time>
      </trkpt>
      <trkpt lat="43.30156" lon="6.37774">
        <ele>271.8</ele>
        <time>2023-05-07T08:51:17Z</time>
      </trkpt>
      <trkpt lat="43.30155" lon="6.37781">
        <ele>273.3</ele>
        <time>2023-05-07T08:51:22Z</time>
      </trkpt>
      <trkpt lat="43.30154" lon="6.37788">
        <ele>275</ele>
        <time>2023-05-07T08:51:29Z</time>
      </trkpt>
      <trkpt lat="43.30155" lon="6.37796">
        <ele>277.4</ele>
        <time>2023-05-07T08:51:35Z</time>
      </trkpt>
      <trkpt lat="43.30155" lon="6.37804">
        <ele>279.7</ele>
        <time>2023-05-07T08:51:41Z</time>
      </trkpt>
      <trkpt lat="43.30151" lon="6.37807">
        <ele>280.2</ele>
        <time>2023-05-07T08:52:05Z</time>
      </trkpt>
      <trkpt lat="43.30146" lon="6.37805">
        <ele>279.2</ele>
        <time>2023-05-07T08:52:07Z</time>
      </trkpt>
      <trkpt lat="43.30141" lon="6.37803">
        <ele>277.8</ele>
        <time>2023-05-07T08:52:10Z</time>
      </trkpt>
      <trkpt lat="43.30136" lon="6.378">
        <ele>276.3</ele>
        <time>2023-05-07T08:52:13Z</time>
      </trkpt>
      <trkpt lat="43.30131" lon="6.37798">
        <ele>274.9</ele>
        <time>2023-05-07T08:52:16Z</time>
      </trkpt>
      <trkpt lat="43.30125" lon="6.37797">
        <ele>273.7</ele>
        <time>2023-05-07T08:52:21Z</time>
      </trkpt>
      <trkpt lat="43.30118" lon="6.37795">
        <ele>272.6</ele>
        <time>2023-05-07T08:52:28Z</time>
      </trkpt>
      <trkpt lat="43.30114" lon="6.37798">
        <ele>273.7</ele>
        <time>2023-05-07T08:52:34Z</time>
      </trkpt>
      <trkpt lat="43.3011" lon="6.37801">
        <ele>274.5</ele>
        <time>2023-05-07T08:52:41Z</time>
      </trkpt>
      <trkpt lat="43.30106" lon="6.37806">
        <ele>274.8</ele>
        <time>2023-05-07T08:52:48Z</time>
      </trkpt>
      <trkpt lat="43.30101" lon="6.3781">
        <ele>274.9</ele>
        <time>2023-05-07T08:52:57Z</time>
      </trkpt>
      <trkpt lat="43.301" lon="6.37816">
        <ele>276.9</ele>
        <time>2023-05-07T08:53:02Z</time>
      </trkpt>
      <trkpt lat="43.30098" lon="6.37822">
        <ele>278.9</ele>
        <time>2023-05-07T08:53:09Z</time>
      </trkpt>
      <trkpt lat="43.30093" lon="6.3783">
        <ele>280.7</ele>
        <time>2023-05-07T08:53:21Z</time>
      </trkpt>
      <trkpt lat="43.30089" lon="6.37833">
        <ele>280.5</ele>
        <time>2023-05-07T08:53:26Z</time>
      </trkpt>
      <trkpt lat="43.30084" lon="6.37836">
        <ele>280.4</ele>
        <time>2023-05-07T08:53:33Z</time>
      </trkpt>
      <trkpt lat="43.30078" lon="6.37838">
        <ele>280</ele>
        <time>2023-05-07T08:53:38Z</time>
      </trkpt>
      <trkpt lat="43.30071" lon="6.3784">
        <ele>279.8</ele>
        <time>2023-05-07T08:53:44Z</time>
      </trkpt>
      <trkpt lat="43.30066" lon="6.37843">
        <ele>280</ele>
        <time>2023-05-07T08:53:50Z</time>
      </trkpt>
      <trkpt lat="43.30061" lon="6.37845">
        <ele>280.4</ele>
        <time>2023-05-07T08:53:57Z</time>
      </trkpt>
      <trkpt lat="43.30055" lon="6.37852">
        <ele>282.7</ele>
        <time>2023-05-07T08:54:12Z</time>
      </trkpt>
      <trkpt lat="43.30049" lon="6.37857">
        <ele>284.5</ele>
        <time>2023-05-07T08:54:20Z</time>
      </trkpt>
      <trkpt lat="43.30043" lon="6.37862">
        <ele>285.6</ele>
        <time>2023-05-07T08:54:28Z</time>
      </trkpt>
      <trkpt lat="43.30037" lon="6.3787">
        <ele>288.7</ele>
        <time>2023-05-07T08:54:47Z</time>
      </trkpt>
      <trkpt lat="43.30029" lon="6.37871">
        <ele>287.8</ele>
        <time>2023-05-07T08:55:05Z</time>
      </trkpt>
      <trkpt lat="43.3002" lon="6.37871">
        <ele>289</ele>
        <time>2023-05-07T08:55:26Z</time>
      </trkpt>
      <trkpt lat="43.30012" lon="6.37869">
        <ele>289.6</ele>
        <time>2023-05-07T08:56:22Z</time>
      </trkpt>
      <trkpt lat="43.30009" lon="6.37869">
        <ele>290.1</ele>
        <time>2023-05-07T08:56:40Z</time>
      </trkpt>
      <trkpt lat="43.30005" lon="6.37869">
        <ele>290.8</ele>
        <time>2023-05-07T08:56:44Z</time>
      </trkpt>
      <trkpt lat="43.3" lon="6.37868">
        <ele>291.5</ele>
        <time>2023-05-07T08:56:51Z</time>
      </trkpt>
      <trkpt lat="43.30002" lon="6.37866">
        <ele>290.9</ele>
        <time>2023-05-07T08:57:02Z</time>
      </trkpt>
      <trkpt lat="43.30001" lon="6.37863">
        <ele>290.9</ele>
        <time>2023-05-07T08:57:22Z</time>
      </trkpt>
      <trkpt lat="43.3" lon="6.37863">
        <ele>291.1</ele>
        <time>2023-05-07T08:57:45Z</time>
      </trkpt>
      <trkpt lat="43.30003" lon="6.37858">
        <ele>290.8</ele>
        <time>2023-05-07T08:58:02Z</time>
      </trkpt>
      <trkpt lat="43.30007" lon="6.37853">
        <ele>290.3</ele>
        <time>2023-05-07T08:58:08Z</time>
      </trkpt>
      <trkpt lat="43.30011" lon="6.37848">
        <ele>289.3</ele>
        <time>2023-05-07T08:58:16Z</time>
      </trkpt>
      <trkpt lat="43.30015" lon="6.37845">
        <ele>287.6</ele>
        <time>2023-05-07T08:58:24Z</time>
      </trkpt>
      <trkpt lat="43.30019" lon="6.37842">
        <ele>285.6</ele>
        <time>2023-05-07T08:58:33Z</time>
      </trkpt>
      <trkpt lat="43.30025" lon="6.37833">
        <ele>281.8</ele>
        <time>2023-05-07T08:58:42Z</time>
      </trkpt>
      <trkpt lat="43.30029" lon="6.37826">
        <ele>280.5</ele>
        <time>2023-05-07T08:58:52Z</time>
      </trkpt>
      <trkpt lat="43.3003" lon="6.37819">
        <ele>281</ele>
        <time>2023-05-07T08:58:57Z</time>
      </trkpt>
      <trkpt lat="43.3003" lon="6.37811">
        <ele>281.5</ele>
        <time>2023-05-07T08:59:03Z</time>
      </trkpt>
      <trkpt lat="43.30028" lon="6.37803">
        <ele>282.4</ele>
        <time>2023-05-07T08:59:14Z</time>
      </trkpt>
      <trkpt lat="43.30021" lon="6.37796">
        <ele>283.8</ele>
        <time>2023-05-07T08:59:26Z</time>
      </trkpt>
      <trkpt lat="43.30021" lon="6.37788">
        <ele>282</ele>
        <time>2023-05-07T08:59:47Z</time>
      </trkpt>
      <trkpt lat="43.30015" lon="6.37791">
        <ele>285.1</ele>
        <time>2023-05-07T09:00:09Z</time>
      </trkpt>
      <trkpt lat="43.30012" lon="6.37786">
        <ele>285.1</ele>
        <time>2023-05-07T09:00:15Z</time>
      </trkpt>
      <trkpt lat="43.30009" lon="6.3778">
        <ele>285</ele>
        <time>2023-05-07T09:00:23Z</time>
      </trkpt>
      <trkpt lat="43.30008" lon="6.37773">
        <ele>285.1</ele>
        <time>2023-05-07T09:00:29Z</time>
      </trkpt>
      <trkpt lat="43.30007" lon="6.37766">
        <ele>285.8</ele>
        <time>2023-05-07T09:00:37Z</time>
      </trkpt>
      <trkpt lat="43.30005" lon="6.37759">
        <ele>286.3</ele>
        <time>2023-05-07T09:00:41Z</time>
      </trkpt>
      <trkpt lat="43.30002" lon="6.37752">
        <ele>286.2</ele>
        <time>2023-05-07T09:00:47Z</time>
      </trkpt>
      <trkpt lat="43.3" lon="6.37745">
        <ele>287</ele>
        <time>2023-05-07T09:00:52Z</time>
      </trkpt>
      <trkpt lat="43.29997" lon="6.37738">
        <ele>289.2</ele>
        <time>2023-05-07T09:00:58Z</time>
      </trkpt>
      <trkpt lat="43.29996" lon="6.37731">
        <ele>290.8</ele>
        <time>2023-05-07T09:01:03Z</time>
      </trkpt>
      <trkpt lat="43.29994" lon="6.37723">
        <ele>292.3</ele>
        <time>2023-05-07T09:01:10Z</time>
      </trkpt>
      <trkpt lat="43.29993" lon="6.37716">
        <ele>294.7</ele>
        <time>2023-05-07T09:01:21Z</time>
      </trkpt>
      <trkpt lat="43.29988" lon="6.37714">
        <ele>296.6</ele>
        <time>2023-05-07T09:01:35Z</time>
      </trkpt>
      <trkpt lat="43.29983" lon="6.37712">
        <ele>298.2</ele>
        <time>2023-05-07T09:01:50Z</time>
      </trkpt>
      <trkpt lat="43.29982" lon="6.37701">
        <ele>299.9</ele>
        <time>2023-05-07T09:02:19Z</time>
      </trkpt>
      <trkpt lat="43.29979" lon="6.37698">
        <ele>300.2</ele>
        <time>2023-05-07T09:02:40Z</time>
      </trkpt>
      <trkpt lat="43.29986" lon="6.37699">
        <ele>300.2</ele>
        <time>2023-05-07T09:02:47Z</time>
      </trkpt>
      <trkpt lat="43.29992" lon="6.37699">
        <ele>300.1</ele>
        <time>2023-05-07T09:02:54Z</time>
      </trkpt>
      <trkpt lat="43.29997" lon="6.377">
        <ele>299.7</ele>
        <time>2023-05-07T09:03:01Z</time>
      </trkpt>
      <trkpt lat="43.30001" lon="6.37701">
        <ele>299.3</ele>
        <time>2023-05-07T09:03:07Z</time>
      </trkpt>
      <trkpt lat="43.30006" lon="6.37703">
        <ele>299.2</ele>
        <time>2023-05-07T09:03:15Z</time>
      </trkpt>
      <trkpt lat="43.3001" lon="6.37705">
        <ele>299.2</ele>
        <time>2023-05-07T09:03:23Z</time>
      </trkpt>
      <trkpt lat="43.30017" lon="6.37711">
        <ele>298.5</ele>
        <time>2023-05-07T09:03:35Z</time>
      </trkpt>
      <trkpt lat="43.30022" lon="6.37713">
        <ele>299</ele>
        <time>2023-05-07T09:03:40Z</time>
      </trkpt>
      <trkpt lat="43.30027" lon="6.37715">
        <ele>299.6</ele>
        <time>2023-05-07T09:03:47Z</time>
      </trkpt>
      <trkpt lat="43.30034" lon="6.37708">
        <ele>299.3</ele>
        <time>2023-05-07T09:04:00Z</time>
      </trkpt>
      <trkpt lat="43.30036" lon="6.37702">
        <ele>300.2</ele>
        <time>2023-05-07T09:04:06Z</time>
      </trkpt>
      <trkpt lat="43.30037" lon="6.37696">
        <ele>301</ele>
        <time>2023-05-07T09:04:13Z</time>
      </trkpt>
      <trkpt lat="43.3004" lon="6.37689">
        <ele>301.2</ele>
        <time>2023-05-07T09:04:18Z</time>
      </trkpt>
      <trkpt lat="43.30042" lon="6.37681">
        <ele>301.3</ele>
        <time>2023-05-07T09:04:24Z</time>
      </trkpt>
      <trkpt lat="43.30044" lon="6.37674">
        <ele>301.5</ele>
        <time>2023-05-07T09:04:29Z</time>
      </trkpt>
      <trkpt lat="43.30046" lon="6.37666">
        <ele>301.5</ele>
        <time>2023-05-07T09:04:35Z</time>
      </trkpt>
      <trkpt lat="43.30046" lon="6.37656">
        <ele>302.5</ele>
        <time>2023-05-07T09:04:42Z</time>
      </trkpt>
      <trkpt lat="43.30045" lon="6.37645">
        <ele>303.5</ele>
        <time>2023-05-07T09:04:50Z</time>
      </trkpt>
      <trkpt lat="43.30047" lon="6.37638">
        <ele>303.3</ele>
        <time>2023-05-07T09:04:54Z</time>
      </trkpt>
      <trkpt lat="43.30048" lon="6.37631">
        <ele>302.7</ele>
        <time>2023-05-07T09:04:58Z</time>
      </trkpt>
      <trkpt lat="43.3005" lon="6.37623">
        <ele>302.1</ele>
        <time>2023-05-07T09:05:03Z</time>
      </trkpt>
      <trkpt lat="43.30051" lon="6.37616">
        <ele>301.4</ele>
        <time>2023-05-07T09:05:08Z</time>
      </trkpt>
      <trkpt lat="43.30053" lon="6.3761">
        <ele>300.4</ele>
        <time>2023-05-07T09:05:12Z</time>
      </trkpt>
      <trkpt lat="43.30055" lon="6.37603">
        <ele>299.3</ele>
        <time>2023-05-07T09:05:18Z</time>
      </trkpt>
      <trkpt lat="43.30054" lon="6.37596">
        <ele>300.1</ele>
        <time>2023-05-07T09:05:23Z</time>
      </trkpt>
      <trkpt lat="43.30052" lon="6.37588">
        <ele>300.9</ele>
        <time>2023-05-07T09:05:29Z</time>
      </trkpt>
      <trkpt lat="43.3005" lon="6.37577">
        <ele>301.8</ele>
        <time>2023-05-07T09:05:37Z</time>
      </trkpt>
      <trkpt lat="43.30048" lon="6.37566">
        <ele>302.6</ele>
        <time>2023-05-07T09:05:45Z</time>
      </trkpt>
      <trkpt lat="43.30048" lon="6.37558">
        <ele>302.7</ele>
        <time>2023-05-07T09:05:51Z</time>
      </trkpt>
      <trkpt lat="43.30047" lon="6.37549">
        <ele>302.5</ele>
        <time>2023-05-07T09:05:59Z</time>
      </trkpt>
      <trkpt lat="43.30046" lon="6.3754">
        <ele>302.5</ele>
        <time>2023-05-07T09:06:06Z</time>
      </trkpt>
      <trkpt lat="43.30045" lon="6.3753">
        <ele>302.6</ele>
        <time>2023-05-07T09:06:15Z</time>
      </trkpt>
      <trkpt lat="43.30043" lon="6.37519">
        <ele>303.4</ele>
        <time>2023-05-07T09:06:26Z</time>
      </trkpt>
      <trkpt lat="43.30038" lon="6.37511">
        <ele>306.1</ele>
        <time>2023-05-07T09:06:35Z</time>
      </trkpt>
      <trkpt lat="43.30033" lon="6.37502">
        <ele>308.9</ele>
        <time>2023-05-07T09:06:46Z</time>
      </trkpt>
      <trkpt lat="43.3003" lon="6.37497">
        <ele>310.7</ele>
        <time>2023-05-07T09:06:54Z</time>
      </trkpt>
      <trkpt lat="43.30027" lon="6.37491">
        <ele>312.3</ele>
        <time>2023-05-07T09:07:04Z</time>
      </trkpt>
      <trkpt lat="43.3003" lon="6.3748">
        <ele>310.8</ele>
        <time>2023-05-07T09:07:20Z</time>
      </trkpt>
      <trkpt lat="43.3003" lon="6.37472">
        <ele>310.8</ele>
        <time>2023-05-07T09:07:26Z</time>
      </trkpt>
      <trkpt lat="43.3003" lon="6.37463">
        <ele>310.9</ele>
        <time>2023-05-07T09:07:33Z</time>
      </trkpt>
      <trkpt lat="43.30029" lon="6.37457">
        <ele>311.6</ele>
        <time>2023-05-07T09:07:37Z</time>
      </trkpt>
      <trkpt lat="43.30028" lon="6.37451">
        <ele>312.1</ele>
        <time>2023-05-07T09:07:41Z</time>
      </trkpt>
      <trkpt lat="43.30026" lon="6.37445">
        <ele>312.4</ele>
        <time>2023-05-07T09:07:45Z</time>
      </trkpt>
      <trkpt lat="43.30025" lon="6.37439">
        <ele>312.4</ele>
        <time>2023-05-07T09:07:50Z</time>
      </trkpt>
      <trkpt lat="43.30021" lon="6.37433">
        <ele>313</ele>
        <time>2023-05-07T09:07:55Z</time>
      </trkpt>
      <trkpt lat="43.30016" lon="6.37427">
        <ele>313.3</ele>
        <time>2023-05-07T09:08:02Z</time>
      </trkpt>
      <trkpt lat="43.30012" lon="6.37424">
        <ele>313.6</ele>
        <time>2023-05-07T09:08:08Z</time>
      </trkpt>
      <trkpt lat="43.30008" lon="6.37421">
        <ele>313.7</ele>
        <time>2023-05-07T09:08:15Z</time>
      </trkpt>
      <trkpt lat="43.30003" lon="6.37421">
        <ele>314.4</ele>
        <time>2023-05-07T09:08:23Z</time>
      </trkpt>
      <trkpt lat="43.29998" lon="6.37421">
        <ele>315.1</ele>
        <time>2023-05-07T09:08:31Z</time>
      </trkpt>
      <trkpt lat="43.29992" lon="6.3742">
        <ele>315.9</ele>
        <time>2023-05-07T09:08:36Z</time>
      </trkpt>
      <trkpt lat="43.29985" lon="6.37419">
        <ele>316.6</ele>
        <time>2023-05-07T09:08:42Z</time>
      </trkpt>
      <trkpt lat="43.29982" lon="6.37412">
        <ele>315.4</ele>
        <time>2023-05-07T09:09:05Z</time>
      </trkpt>
      <trkpt lat="43.29976" lon="6.37416">
        <ele>317.3</ele>
        <time>2023-05-07T09:09:19Z</time>
      </trkpt>
      <trkpt lat="43.29971" lon="6.37414">
        <ele>317.6</ele>
        <time>2023-05-07T09:09:25Z</time>
      </trkpt>
      <trkpt lat="43.29965" lon="6.37412">
        <ele>318.2</ele>
        <time>2023-05-07T09:09:34Z</time>
      </trkpt>
      <trkpt lat="43.29961" lon="6.37409">
        <ele>318.2</ele>
        <time>2023-05-07T09:09:39Z</time>
      </trkpt>
      <trkpt lat="43.29956" lon="6.37405">
        <ele>318.1</ele>
        <time>2023-05-07T09:09:47Z</time>
      </trkpt>
      <trkpt lat="43.2995" lon="6.37403">
        <ele>318.7</ele>
        <time>2023-05-07T09:09:55Z</time>
      </trkpt>
      <trkpt lat="43.29944" lon="6.374">
        <ele>319.3</ele>
        <time>2023-05-07T09:10:04Z</time>
      </trkpt>
      <trkpt lat="43.29937" lon="6.37396">
        <ele>319.8</ele>
        <time>2023-05-07T09:10:11Z</time>
      </trkpt>
      <trkpt lat="43.2993" lon="6.37391">
        <ele>320.3</ele>
        <time>2023-05-07T09:10:19Z</time>
      </trkpt>
      <trkpt lat="43.29926" lon="6.37388">
        <ele>320.2</ele>
        <time>2023-05-07T09:10:26Z</time>
      </trkpt>
      <trkpt lat="43.29922" lon="6.37384">
        <ele>320.2</ele>
        <time>2023-05-07T09:10:35Z</time>
      </trkpt>
      <trkpt lat="43.29915" lon="6.37382">
        <ele>321.4</ele>
        <time>2023-05-07T09:10:41Z</time>
      </trkpt>
      <trkpt lat="43.29908" lon="6.37379">
        <ele>322.8</ele>
        <time>2023-05-07T09:10:48Z</time>
      </trkpt>
      <trkpt lat="43.29902" lon="6.37374">
        <ele>323.2</ele>
        <time>2023-05-07T09:11:04Z</time>
      </trkpt>
      <trkpt lat="43.299" lon="6.37375">
        <ele>324.1</ele>
        <time>2023-05-07T09:11:23Z</time>
      </trkpt>
      <trkpt lat="43.29895" lon="6.37367">
        <ele>323.1</ele>
        <time>2023-05-07T09:11:43Z</time>
      </trkpt>
      <trkpt lat="43.29892" lon="6.37363">
        <ele>322.9</ele>
        <time>2023-05-07T09:11:49Z</time>
      </trkpt>
      <trkpt lat="43.29888" lon="6.37359">
        <ele>322.6</ele>
        <time>2023-05-07T09:11:58Z</time>
      </trkpt>
      <trkpt lat="43.29883" lon="6.37356">
        <ele>323.2</ele>
        <time>2023-05-07T09:12:03Z</time>
      </trkpt>
      <trkpt lat="43.29877" lon="6.37352">
        <ele>323.8</ele>
        <time>2023-05-07T09:12:09Z</time>
      </trkpt>
      <trkpt lat="43.29872" lon="6.37349">
        <ele>324.3</ele>
        <time>2023-05-07T09:12:14Z</time>
      </trkpt>
      <trkpt lat="43.29866" lon="6.37345">
        <ele>324.7</ele>
        <time>2023-05-07T09:12:21Z</time>
      </trkpt>
      <trkpt lat="43.29861" lon="6.37341">
        <ele>325</ele>
        <time>2023-05-07T09:12:28Z</time>
      </trkpt>
      <trkpt lat="43.29855" lon="6.37337">
        <ele>325.7</ele>
        <time>2023-05-07T09:12:38Z</time>
      </trkpt>
      <trkpt lat="43.29851" lon="6.37333">
        <ele>325.7</ele>
        <time>2023-05-07T09:12:41Z</time>
      </trkpt>
      <trkpt lat="43.29848" lon="6.37329">
        <ele>325.9</ele>
        <time>2023-05-07T09:12:45Z</time>
      </trkpt>
      <trkpt lat="43.29844" lon="6.37324">
        <ele>326.2</ele>
        <time>2023-05-07T09:12:49Z</time>
      </trkpt>
      <trkpt lat="43.2984" lon="6.3732">
        <ele>326.7</ele>
        <time>2023-05-07T09:12:53Z</time>
      </trkpt>
      <trkpt lat="43.29837" lon="6.37314">
        <ele>326.4</ele>
        <time>2023-05-07T09:12:56Z</time>
      </trkpt>
      <trkpt lat="43.29834" lon="6.37308">
        <ele>326.3</ele>
        <time>2023-05-07T09:13:00Z</time>
      </trkpt>
      <trkpt lat="43.29831" lon="6.37302">
        <ele>326.6</ele>
        <time>2023-05-07T09:13:04Z</time>
      </trkpt>
      <trkpt lat="43.29828" lon="6.37296">
        <ele>327.1</ele>
        <time>2023-05-07T09:13:08Z</time>
      </trkpt>
      <trkpt lat="43.29824" lon="6.37288">
        <ele>328</ele>
        <time>2023-05-07T09:13:14Z</time>
      </trkpt>
      <trkpt lat="43.2982" lon="6.3728">
        <ele>329</ele>
        <time>2023-05-07T09:13:22Z</time>
      </trkpt>
      <trkpt lat="43.29822" lon="6.37271">
        <ele>327.8</ele>
        <time>2023-05-07T09:13:28Z</time>
      </trkpt>
      <trkpt lat="43.29823" lon="6.37262">
        <ele>327.1</ele>
        <time>2023-05-07T09:13:35Z</time>
      </trkpt>
      <trkpt lat="43.29823" lon="6.3725">
        <ele>327.3</ele>
        <time>2023-05-07T09:13:45Z</time>
      </trkpt>
      <trkpt lat="43.29821" lon="6.37242">
        <ele>328</ele>
        <time>2023-05-07T09:13:52Z</time>
      </trkpt>
      <trkpt lat="43.29819" lon="6.37233">
        <ele>328.5</ele>
        <time>2023-05-07T09:14:01Z</time>
      </trkpt>
      <trkpt lat="43.29816" lon="6.37227">
        <ele>329.8</ele>
        <time>2023-05-07T09:14:07Z</time>
      </trkpt>
      <trkpt lat="43.29812" lon="6.37221">
        <ele>330.7</ele>
        <time>2023-05-07T09:14:14Z</time>
      </trkpt>
      <trkpt lat="43.29809" lon="6.37216">
        <ele>331.1</ele>
        <time>2023-05-07T09:14:20Z</time>
      </trkpt>
      <trkpt lat="43.29805" lon="6.37211">
        <ele>331.4</ele>
        <time>2023-05-07T09:14:27Z</time>
      </trkpt>
      <trkpt lat="43.298" lon="6.37207">
        <ele>332.2</ele>
        <time>2023-05-07T09:14:34Z</time>
      </trkpt>
      <trkpt lat="43.29794" lon="6.37202">
        <ele>332.9</ele>
        <time>2023-05-07T09:14:44Z</time>
      </trkpt>
      <trkpt lat="43.29789" lon="6.37199">
        <ele>333.6</ele>
        <time>2023-05-07T09:14:53Z</time>
      </trkpt>
      <trkpt lat="43.29784" lon="6.37195">
        <ele>334.2</ele>
        <time>2023-05-07T09:15:03Z</time>
      </trkpt>
      <trkpt lat="43.29778" lon="6.3719">
        <ele>334.2</ele>
        <time>2023-05-07T09:15:10Z</time>
      </trkpt>
      <trkpt lat="43.29772" lon="6.37185">
        <ele>334.4</ele>
        <time>2023-05-07T09:15:18Z</time>
      </trkpt>
      <trkpt lat="43.29766" lon="6.37181">
        <ele>335.3</ele>
        <time>2023-05-07T09:15:25Z</time>
      </trkpt>
      <trkpt lat="43.29759" lon="6.37176">
        <ele>336.6</ele>
        <time>2023-05-07T09:15:35Z</time>
      </trkpt>
      <trkpt lat="43.29756" lon="6.37167">
        <ele>335.4</ele>
        <time>2023-05-07T09:15:42Z</time>
      </trkpt>
      <trkpt lat="43.29752" lon="6.37157">
        <ele>335.2</ele>
        <time>2023-05-07T09:15:50Z</time>
      </trkpt>
      <trkpt lat="43.29749" lon="6.37151">
        <ele>335.6</ele>
        <time>2023-05-07T09:15:56Z</time>
      </trkpt>
      <trkpt lat="43.29746" lon="6.37145">
        <ele>335.7</ele>
        <time>2023-05-07T09:16:02Z</time>
      </trkpt>
      <trkpt lat="43.29743" lon="6.37141">
        <ele>336.4</ele>
        <time>2023-05-07T09:16:07Z</time>
      </trkpt>
      <trkpt lat="43.29739" lon="6.37137">
        <ele>336.9</ele>
        <time>2023-05-07T09:16:15Z</time>
      </trkpt>
      <trkpt lat="43.29735" lon="6.37132">
        <ele>337.4</ele>
        <time>2023-05-07T09:16:22Z</time>
      </trkpt>
      <trkpt lat="43.2973" lon="6.37127">
        <ele>337.7</ele>
        <time>2023-05-07T09:16:30Z</time>
      </trkpt>
      <trkpt lat="43.29725" lon="6.37126">
        <ele>339.4</ele>
        <time>2023-05-07T09:16:34Z</time>
      </trkpt>
      <trkpt lat="43.2972" lon="6.37126">
        <ele>340.3</ele>
        <time>2023-05-07T09:16:38Z</time>
      </trkpt>
      <trkpt lat="43.29715" lon="6.37125">
        <ele>340.4</ele>
        <time>2023-05-07T09:16:42Z</time>
      </trkpt>
      <trkpt lat="43.2971" lon="6.37124">
        <ele>340.6</ele>
        <time>2023-05-07T09:16:47Z</time>
      </trkpt>
      <trkpt lat="43.29704" lon="6.37123">
        <ele>340.5</ele>
        <time>2023-05-07T09:16:52Z</time>
      </trkpt>
      <trkpt lat="43.29697" lon="6.37121">
        <ele>340.4</ele>
        <time>2023-05-07T09:16:58Z</time>
      </trkpt>
      <trkpt lat="43.29692" lon="6.37121">
        <ele>340.2</ele>
        <time>2023-05-07T09:17:03Z</time>
      </trkpt>
      <trkpt lat="43.29687" lon="6.37121">
        <ele>339.6</ele>
        <time>2023-05-07T09:17:10Z</time>
      </trkpt>
      <trkpt lat="43.29682" lon="6.37125">
        <ele>340.2</ele>
        <time>2023-05-07T09:17:16Z</time>
      </trkpt>
      <trkpt lat="43.29676" lon="6.37128">
        <ele>340.8</ele>
        <time>2023-05-07T09:17:23Z</time>
      </trkpt>
      <trkpt lat="43.29671" lon="6.37129">
        <ele>340.5</ele>
        <time>2023-05-07T09:17:28Z</time>
      </trkpt>
      <trkpt lat="43.29665" lon="6.3713">
        <ele>340.2</ele>
        <time>2023-05-07T09:17:35Z</time>
      </trkpt>
      <trkpt lat="43.29659" lon="6.37134">
        <ele>340.9</ele>
        <time>2023-05-07T09:17:40Z</time>
      </trkpt>
      <trkpt lat="43.29653" lon="6.37138">
        <ele>341.7</ele>
        <time>2023-05-07T09:17:47Z</time>
      </trkpt>
      <trkpt lat="43.29648" lon="6.3714">
        <ele>341.8</ele>
        <time>2023-05-07T09:17:53Z</time>
      </trkpt>
      <trkpt lat="43.29643" lon="6.37142">
        <ele>342</ele>
        <time>2023-05-07T09:18:00Z</time>
      </trkpt>
      <trkpt lat="43.29638" lon="6.37143">
        <ele>341.8</ele>
        <time>2023-05-07T09:18:05Z</time>
      </trkpt>
      <trkpt lat="43.29632" lon="6.37144">
        <ele>341.9</ele>
        <time>2023-05-07T09:18:13Z</time>
      </trkpt>
      <trkpt lat="43.29628" lon="6.37148">
        <ele>343.5</ele>
        <time>2023-05-07T09:18:20Z</time>
      </trkpt>
      <trkpt lat="43.29624" lon="6.37152">
        <ele>345.1</ele>
        <time>2023-05-07T09:18:27Z</time>
      </trkpt>
      <trkpt lat="43.29618" lon="6.37154">
        <ele>345.5</ele>
        <time>2023-05-07T09:18:33Z</time>
      </trkpt>
      <trkpt lat="43.29611" lon="6.37156">
        <ele>346</ele>
        <time>2023-05-07T09:18:41Z</time>
      </trkpt>
      <trkpt lat="43.29603" lon="6.37151">
        <ele>344.7</ele>
        <time>2023-05-07T09:18:53Z</time>
      </trkpt>
      <trkpt lat="43.29599" lon="6.37153">
        <ele>346</ele>
        <time>2023-05-07T09:18:58Z</time>
      </trkpt>
      <trkpt lat="43.29594" lon="6.37154">
        <ele>347.3</ele>
        <time>2023-05-07T09:19:05Z</time>
      </trkpt>
      <trkpt lat="43.29589" lon="6.37153">
        <ele>347.2</ele>
        <time>2023-05-07T09:19:11Z</time>
      </trkpt>
      <trkpt lat="43.29583" lon="6.37151">
        <ele>347.3</ele>
        <time>2023-05-07T09:19:19Z</time>
      </trkpt>
      <trkpt lat="43.29579" lon="6.37147">
        <ele>347.6</ele>
        <time>2023-05-07T09:19:25Z</time>
      </trkpt>
      <trkpt lat="43.29575" lon="6.37142">
        <ele>348.3</ele>
        <time>2023-05-07T09:19:32Z</time>
      </trkpt>
      <trkpt lat="43.29574" lon="6.37135">
        <ele>347.2</ele>
        <time>2023-05-07T09:19:37Z</time>
      </trkpt>
      <trkpt lat="43.29572" lon="6.37127">
        <ele>346.7</ele>
        <time>2023-05-07T09:19:44Z</time>
      </trkpt>
      <trkpt lat="43.29566" lon="6.37119">
        <ele>349.1</ele>
        <time>2023-05-07T09:19:50Z</time>
      </trkpt>
      <trkpt lat="43.29559" lon="6.37111">
        <ele>351</ele>
        <time>2023-05-07T09:19:58Z</time>
      </trkpt>
      <trkpt lat="43.29558" lon="6.37104">
        <ele>349.8</ele>
        <time>2023-05-07T09:20:04Z</time>
      </trkpt>
      <trkpt lat="43.29556" lon="6.37097">
        <ele>348.7</ele>
        <time>2023-05-07T09:20:12Z</time>
      </trkpt>
      <trkpt lat="43.29553" lon="6.3709">
        <ele>348.4</ele>
        <time>2023-05-07T09:20:18Z</time>
      </trkpt>
      <trkpt lat="43.2955" lon="6.37083">
        <ele>348.1</ele>
        <time>2023-05-07T09:20:26Z</time>
      </trkpt>
      <trkpt lat="43.29547" lon="6.37077">
        <ele>348.6</ele>
        <time>2023-05-07T09:20:32Z</time>
      </trkpt>
      <trkpt lat="43.29543" lon="6.3707">
        <ele>348.9</ele>
        <time>2023-05-07T09:20:41Z</time>
      </trkpt>
      <trkpt lat="43.29539" lon="6.37065">
        <ele>349.9</ele>
        <time>2023-05-07T09:20:46Z</time>
      </trkpt>
      <trkpt lat="43.29534" lon="6.37059">
        <ele>350.8</ele>
        <time>2023-05-07T09:20:54Z</time>
      </trkpt>
      <trkpt lat="43.29528" lon="6.37055">
        <ele>352.4</ele>
        <time>2023-05-07T09:20:59Z</time>
      </trkpt>
      <trkpt lat="43.29522" lon="6.3705">
        <ele>352.2</ele>
        <time>2023-05-07T09:21:06Z</time>
      </trkpt>
      <trkpt lat="43.29515" lon="6.37046">
        <ele>352.4</ele>
        <time>2023-05-07T09:21:12Z</time>
      </trkpt>
      <trkpt lat="43.29507" lon="6.37042">
        <ele>352.4</ele>
        <time>2023-05-07T09:21:19Z</time>
      </trkpt>
      <trkpt lat="43.29503" lon="6.3704">
        <ele>352.5</ele>
        <time>2023-05-07T09:21:23Z</time>
      </trkpt>
      <trkpt lat="43.29498" lon="6.37038">
        <ele>352.3</ele>
        <time>2023-05-07T09:21:30Z</time>
      </trkpt>
      <trkpt lat="43.29494" lon="6.37036">
        <ele>351.4</ele>
        <time>2023-05-07T09:21:34Z</time>
      </trkpt>
      <trkpt lat="43.29489" lon="6.37033">
        <ele>350.4</ele>
        <time>2023-05-07T09:21:41Z</time>
      </trkpt>
      <trkpt lat="43.29483" lon="6.37031">
        <ele>349.8</ele>
        <time>2023-05-07T09:21:46Z</time>
      </trkpt>
      <trkpt lat="43.29477" lon="6.37029">
        <ele>349.3</ele>
        <time>2023-05-07T09:21:52Z</time>
      </trkpt>
      <trkpt lat="43.29473" lon="6.3703">
        <ele>349.8</ele>
        <time>2023-05-07T09:21:57Z</time>
      </trkpt>
      <trkpt lat="43.29468" lon="6.3703">
        <ele>350.3</ele>
        <time>2023-05-07T09:22:04Z</time>
      </trkpt>
      <trkpt lat="43.2946" lon="6.37026">
        <ele>348.6</ele>
        <time>2023-05-07T09:22:22Z</time>
      </trkpt>
      <trkpt lat="43.29455" lon="6.37025">
        <ele>348.3</ele>
        <time>2023-05-07T09:22:28Z</time>
      </trkpt>
      <trkpt lat="43.2945" lon="6.37024">
        <ele>347.9</ele>
        <time>2023-05-07T09:22:34Z</time>
      </trkpt>
      <trkpt lat="43.29454" lon="6.37025">
        <ele>348.3</ele>
        <time>2023-05-07T09:24:23Z</time>
      </trkpt>
      <trkpt lat="43.29446" lon="6.37024">
        <ele>348</ele>
        <time>2023-05-07T09:24:27Z</time>
      </trkpt>
      <trkpt lat="43.29438" lon="6.37023">
        <ele>347.6</ele>
        <time>2023-05-07T09:24:33Z</time>
      </trkpt>
      <trkpt lat="43.29433" lon="6.37024">
        <ele>347.8</ele>
        <time>2023-05-07T09:24:38Z</time>
      </trkpt>
      <trkpt lat="43.29428" lon="6.37024">
        <ele>348</ele>
        <time>2023-05-07T09:24:43Z</time>
      </trkpt>
      <trkpt lat="43.29421" lon="6.37026">
        <ele>349</ele>
        <time>2023-05-07T09:24:59Z</time>
      </trkpt>
      <trkpt lat="43.29417" lon="6.37026">
        <ele>349</ele>
        <time>2023-05-07T09:25:05Z</time>
      </trkpt>
      <trkpt lat="43.29412" lon="6.37026">
        <ele>347.6</ele>
        <time>2023-05-07T09:25:13Z</time>
      </trkpt>
      <trkpt lat="43.29407" lon="6.37029">
        <ele>347.5</ele>
        <time>2023-05-07T09:25:20Z</time>
      </trkpt>
      <trkpt lat="43.29402" lon="6.37032">
        <ele>347.3</ele>
        <time>2023-05-07T09:25:29Z</time>
      </trkpt>
      <trkpt lat="43.29398" lon="6.37037">
        <ele>348</ele>
        <time>2023-05-07T09:25:34Z</time>
      </trkpt>
      <trkpt lat="43.29393" lon="6.37041">
        <ele>348.6</ele>
        <time>2023-05-07T09:25:41Z</time>
      </trkpt>
      <trkpt lat="43.29387" lon="6.37045">
        <ele>347.6</ele>
        <time>2023-05-07T09:25:46Z</time>
      </trkpt>
      <trkpt lat="43.2938" lon="6.37048">
        <ele>346</ele>
        <time>2023-05-07T09:25:52Z</time>
      </trkpt>
      <trkpt lat="43.29376" lon="6.37051">
        <ele>345.1</ele>
        <time>2023-05-07T09:25:57Z</time>
      </trkpt>
      <trkpt lat="43.29371" lon="6.37054">
        <ele>344.3</ele>
        <time>2023-05-07T09:26:03Z</time>
      </trkpt>
      <trkpt lat="43.29369" lon="6.37066">
        <ele>347.5</ele>
        <time>2023-05-07T09:26:19Z</time>
      </trkpt>
      <trkpt lat="43.29366" lon="6.37073">
        <ele>347.7</ele>
        <time>2023-05-07T09:27:23Z</time>
      </trkpt>
      <trkpt lat="43.29366" lon="6.3708">
        <ele>349.3</ele>
        <time>2023-05-07T09:27:28Z</time>
      </trkpt>
      <trkpt lat="43.29365" lon="6.37086">
        <ele>350.8</ele>
        <time>2023-05-07T09:27:34Z</time>
      </trkpt>
      <trkpt lat="43.29363" lon="6.37093">
        <ele>350.9</ele>
        <time>2023-05-07T09:27:43Z</time>
      </trkpt>
      <trkpt lat="43.2936" lon="6.371">
        <ele>352.3</ele>
        <time>2023-05-07T09:27:54Z</time>
      </trkpt>
      <trkpt lat="43.29356" lon="6.37107">
        <ele>356.5</ele>
        <time>2023-05-07T09:28:16Z</time>
      </trkpt>
      <trkpt lat="43.29351" lon="6.37104">
        <ele>358</ele>
        <time>2023-05-07T09:28:22Z</time>
      </trkpt>
      <trkpt lat="43.29346" lon="6.37101">
        <ele>359.5</ele>
        <time>2023-05-07T09:28:29Z</time>
      </trkpt>
      <trkpt lat="43.2934" lon="6.37092">
        <ele>358.8</ele>
        <time>2023-05-07T09:28:45Z</time>
      </trkpt>
      <trkpt lat="43.2934" lon="6.37084">
        <ele>355.6</ele>
        <time>2023-05-07T09:29:11Z</time>
      </trkpt>
      <trkpt lat="43.29338" lon="6.37078">
        <ele>354.5</ele>
        <time>2023-05-07T09:31:09Z</time>
      </trkpt>
      <trkpt lat="43.29334" lon="6.37072">
        <ele>354.3</ele>
        <time>2023-05-07T09:31:48Z</time>
      </trkpt>
      <trkpt lat="43.29329" lon="6.37066">
        <ele>355.7</ele>
        <time>2023-05-07T09:32:34Z</time>
      </trkpt>
      <trkpt lat="43.29324" lon="6.37057">
        <ele>357</ele>
        <time>2023-05-07T09:32:41Z</time>
      </trkpt>
      <trkpt lat="43.29319" lon="6.37047">
        <ele>359.2</ele>
        <time>2023-05-07T09:32:50Z</time>
      </trkpt>
      <trkpt lat="43.29315" lon="6.37037">
        <ele>360.4</ele>
        <time>2023-05-07T09:33:05Z</time>
      </trkpt>
      <trkpt lat="43.29314" lon="6.37025">
        <ele>359.2</ele>
        <time>2023-05-07T09:33:21Z</time>
      </trkpt>
      <trkpt lat="43.29313" lon="6.37019">
        <ele>359.6</ele>
        <time>2023-05-07T09:33:26Z</time>
      </trkpt>
      <trkpt lat="43.29312" lon="6.37012">
        <ele>360.1</ele>
        <time>2023-05-07T09:33:33Z</time>
      </trkpt>
      <trkpt lat="43.29311" lon="6.37005">
        <ele>360.5</ele>
        <time>2023-05-07T09:33:59Z</time>
      </trkpt>
      <trkpt lat="43.29311" lon="6.36995">
        <ele>360.1</ele>
        <time>2023-05-07T09:34:32Z</time>
      </trkpt>
      <trkpt lat="43.29308" lon="6.36984">
        <ele>362.3</ele>
        <time>2023-05-07T09:34:46Z</time>
      </trkpt>
      <trkpt lat="43.29305" lon="6.36976">
        <ele>364.6</ele>
        <time>2023-05-07T09:35:03Z</time>
      </trkpt>
      <trkpt lat="43.29306" lon="6.36969">
        <ele>363.7</ele>
        <time>2023-05-07T09:35:36Z</time>
      </trkpt>
      <trkpt lat="43.29307" lon="6.36958">
        <ele>363.2</ele>
        <time>2023-05-07T09:35:52Z</time>
      </trkpt>
      <trkpt lat="43.29307" lon="6.36951">
        <ele>363.9</ele>
        <time>2023-05-07T09:36:01Z</time>
      </trkpt>
      <trkpt lat="43.29306" lon="6.36944">
        <ele>364.7</ele>
        <time>2023-05-07T09:36:12Z</time>
      </trkpt>
      <trkpt lat="43.29307" lon="6.36941">
        <ele>364.4</ele>
        <time>2023-05-07T09:36:57Z</time>
      </trkpt>
      <trkpt lat="43.29308" lon="6.36938">
        <ele>364.1</ele>
        <time>2023-05-07T09:40:15Z</time>
      </trkpt>
      <trkpt lat="43.29307" lon="6.36933">
        <ele>365.9</ele>
        <time>2023-05-07T09:41:03Z</time>
      </trkpt>
      <trkpt lat="43.2931" lon="6.36926">
        <ele>365</ele>
        <time>2023-05-07T09:41:10Z</time>
      </trkpt>
      <trkpt lat="43.29313" lon="6.36919">
        <ele>364.4</ele>
        <time>2023-05-07T09:41:17Z</time>
      </trkpt>
      <trkpt lat="43.29315" lon="6.36913">
        <ele>362.7</ele>
        <time>2023-05-07T09:41:22Z</time>
      </trkpt>
      <trkpt lat="43.29317" lon="6.36907">
        <ele>360.3</ele>
        <time>2023-05-07T09:41:29Z</time>
      </trkpt>
      <trkpt lat="43.29316" lon="6.36902">
        <ele>359.8</ele>
        <time>2023-05-07T09:41:53Z</time>
      </trkpt>
      <trkpt lat="43.29313" lon="6.36901">
        <ele>360.9</ele>
        <time>2023-05-07T09:42:47Z</time>
      </trkpt>
      <trkpt lat="43.29309" lon="6.36899">
        <ele>362.2</ele>
        <time>2023-05-07T09:42:51Z</time>
      </trkpt>
      <trkpt lat="43.29304" lon="6.36896">
        <ele>362.5</ele>
        <time>2023-05-07T09:42:57Z</time>
      </trkpt>
      <trkpt lat="43.29299" lon="6.36898">
        <ele>362.8</ele>
        <time>2023-05-07T09:43:02Z</time>
      </trkpt>
      <trkpt lat="43.29294" lon="6.36899">
        <ele>363.3</ele>
        <time>2023-05-07T09:43:08Z</time>
      </trkpt>
      <trkpt lat="43.2929" lon="6.36899">
        <ele>363.1</ele>
        <time>2023-05-07T09:43:12Z</time>
      </trkpt>
      <trkpt lat="43.29285" lon="6.36899">
        <ele>363</ele>
        <time>2023-05-07T09:43:19Z</time>
      </trkpt>
      <trkpt lat="43.2928" lon="6.36901">
        <ele>363.7</ele>
        <time>2023-05-07T09:43:24Z</time>
      </trkpt>
      <trkpt lat="43.29274" lon="6.36903">
        <ele>365.6</ele>
        <time>2023-05-07T09:43:32Z</time>
      </trkpt>
      <trkpt lat="43.29269" lon="6.36903">
        <ele>366.8</ele>
        <time>2023-05-07T09:43:38Z</time>
      </trkpt>
      <trkpt lat="43.29264" lon="6.36902">
        <ele>368.1</ele>
        <time>2023-05-07T09:43:45Z</time>
      </trkpt>
      <trkpt lat="43.29259" lon="6.36897">
        <ele>369</ele>
        <time>2023-05-07T09:43:49Z</time>
      </trkpt>
      <trkpt lat="43.29254" lon="6.36892">
        <ele>370.9</ele>
        <time>2023-05-07T09:43:55Z</time>
      </trkpt>
      <trkpt lat="43.29255" lon="6.36885">
        <ele>370.3</ele>
        <time>2023-05-07T09:44:00Z</time>
      </trkpt>
      <trkpt lat="43.29255" lon="6.36877">
        <ele>369.6</ele>
        <time>2023-05-07T09:44:06Z</time>
      </trkpt>
      <trkpt lat="43.29254" lon="6.36869">
        <ele>369.7</ele>
        <time>2023-05-07T09:44:11Z</time>
      </trkpt>
      <trkpt lat="43.29253" lon="6.36861">
        <ele>369.9</ele>
        <time>2023-05-07T09:44:17Z</time>
      </trkpt>
      <trkpt lat="43.29251" lon="6.36855">
        <ele>369.8</ele>
        <time>2023-05-07T09:44:21Z</time>
      </trkpt>
      <trkpt lat="43.29248" lon="6.36848">
        <ele>369.2</ele>
        <time>2023-05-07T09:44:28Z</time>
      </trkpt>
      <trkpt lat="43.29245" lon="6.36843">
        <ele>369.3</ele>
        <time>2023-05-07T09:44:32Z</time>
      </trkpt>
      <trkpt lat="43.29241" lon="6.36838">
        <ele>369.3</ele>
        <time>2023-05-07T09:44:37Z</time>
      </trkpt>
      <trkpt lat="43.29237" lon="6.36834">
        <ele>369.8</ele>
        <time>2023-05-07T09:44:41Z</time>
      </trkpt>
      <trkpt lat="43.29233" lon="6.3683">
        <ele>370.1</ele>
        <time>2023-05-07T09:44:46Z</time>
      </trkpt>
      <trkpt lat="43.29229" lon="6.36828">
        <ele>371.1</ele>
        <time>2023-05-07T09:44:49Z</time>
      </trkpt>
      <trkpt lat="43.29224" lon="6.36825">
        <ele>372.2</ele>
        <time>2023-05-07T09:44:55Z</time>
      </trkpt>
      <trkpt lat="43.2922" lon="6.36822">
        <ele>372.9</ele>
        <time>2023-05-07T09:45:00Z</time>
      </trkpt>
      <trkpt lat="43.29216" lon="6.36819">
        <ele>373.6</ele>
        <time>2023-05-07T09:45:06Z</time>
      </trkpt>
      <trkpt lat="43.29213" lon="6.36815">
        <ele>373.7</ele>
        <time>2023-05-07T09:45:10Z</time>
      </trkpt>
      <trkpt lat="43.29209" lon="6.36811">
        <ele>373.8</ele>
        <time>2023-05-07T09:45:16Z</time>
      </trkpt>
      <trkpt lat="43.29205" lon="6.36805">
        <ele>373.2</ele>
        <time>2023-05-07T09:45:20Z</time>
      </trkpt>
      <trkpt lat="43.292" lon="6.36798">
        <ele>372.4</ele>
        <time>2023-05-07T09:45:27Z</time>
      </trkpt>
      <trkpt lat="43.29192" lon="6.36793">
        <ele>373.3</ele>
        <time>2023-05-07T09:45:38Z</time>
      </trkpt>
      <trkpt lat="43.29188" lon="6.36791">
        <ele>373.5</ele>
        <time>2023-05-07T09:45:42Z</time>
      </trkpt>
      <trkpt lat="43.29183" lon="6.36788">
        <ele>373.7</ele>
        <time>2023-05-07T09:45:49Z</time>
      </trkpt>
      <trkpt lat="43.29175" lon="6.36783">
        <ele>373.9</ele>
        <time>2023-05-07T09:46:00Z</time>
      </trkpt>
      <trkpt lat="43.2917" lon="6.36781">
        <ele>374.2</ele>
        <time>2023-05-07T09:46:04Z</time>
      </trkpt>
      <trkpt lat="43.29165" lon="6.36778">
        <ele>374.2</ele>
        <time>2023-05-07T09:46:10Z</time>
      </trkpt>
      <trkpt lat="43.2916" lon="6.36778">
        <ele>374.1</ele>
        <time>2023-05-07T09:46:14Z</time>
      </trkpt>
      <trkpt lat="43.29155" lon="6.36777">
        <ele>374</ele>
        <time>2023-05-07T09:46:20Z</time>
      </trkpt>
      <trkpt lat="43.29151" lon="6.36778">
        <ele>374.7</ele>
        <time>2023-05-07T09:46:24Z</time>
      </trkpt>
      <trkpt lat="43.29146" lon="6.36779">
        <ele>375.3</ele>
        <time>2023-05-07T09:46:29Z</time>
      </trkpt>
      <trkpt lat="43.29142" lon="6.3678">
        <ele>375.9</ele>
        <time>2023-05-07T09:46:33Z</time>
      </trkpt>
      <trkpt lat="43.29137" lon="6.36781">
        <ele>376.3</ele>
        <time>2023-05-07T09:46:39Z</time>
      </trkpt>
      <trkpt lat="43.29129" lon="6.36785">
        <ele>377.4</ele>
        <time>2023-05-07T09:46:54Z</time>
      </trkpt>
      <trkpt lat="43.29124" lon="6.36787">
        <ele>377.6</ele>
        <time>2023-05-07T09:46:59Z</time>
      </trkpt>
      <trkpt lat="43.29118" lon="6.36788">
        <ele>377.8</ele>
        <time>2023-05-07T09:47:06Z</time>
      </trkpt>
      <trkpt lat="43.29113" lon="6.36791">
        <ele>378.8</ele>
        <time>2023-05-07T09:47:11Z</time>
      </trkpt>
      <trkpt lat="43.29108" lon="6.36794">
        <ele>380.6</ele>
        <time>2023-05-07T09:47:17Z</time>
      </trkpt>
      <trkpt lat="43.29103" lon="6.36795">
        <ele>381.7</ele>
        <time>2023-05-07T09:47:22Z</time>
      </trkpt>
      <trkpt lat="43.29097" lon="6.36796">
        <ele>382.7</ele>
        <time>2023-05-07T09:47:29Z</time>
      </trkpt>
      <trkpt lat="43.29093" lon="6.36797">
        <ele>383.4</ele>
        <time>2023-05-07T09:47:34Z</time>
      </trkpt>
      <trkpt lat="43.29088" lon="6.36797">
        <ele>384.1</ele>
        <time>2023-05-07T09:47:42Z</time>
      </trkpt>
      <trkpt lat="43.29084" lon="6.36794">
        <ele>383.6</ele>
        <time>2023-05-07T09:47:48Z</time>
      </trkpt>
      <trkpt lat="43.2908" lon="6.36791">
        <ele>384.4</ele>
        <time>2023-05-07T09:47:55Z</time>
      </trkpt>
      <trkpt lat="43.29076" lon="6.36786">
        <ele>384.8</ele>
        <time>2023-05-07T09:48:02Z</time>
      </trkpt>
      <trkpt lat="43.29072" lon="6.36781">
        <ele>385</ele>
        <time>2023-05-07T09:48:09Z</time>
      </trkpt>
      <trkpt lat="43.29068" lon="6.36776">
        <ele>384.9</ele>
        <time>2023-05-07T09:48:14Z</time>
      </trkpt>
      <trkpt lat="43.29064" lon="6.36771">
        <ele>384.7</ele>
        <time>2023-05-07T09:48:21Z</time>
      </trkpt>
      <trkpt lat="43.29059" lon="6.36766">
        <ele>384.8</ele>
        <time>2023-05-07T09:48:27Z</time>
      </trkpt>
      <trkpt lat="43.29054" lon="6.36761">
        <ele>384.9</ele>
        <time>2023-05-07T09:48:33Z</time>
      </trkpt>
      <trkpt lat="43.29049" lon="6.36757">
        <ele>384.9</ele>
        <time>2023-05-07T09:48:38Z</time>
      </trkpt>
      <trkpt lat="43.29044" lon="6.36752">
        <ele>385</ele>
        <time>2023-05-07T09:48:44Z</time>
      </trkpt>
      <trkpt lat="43.29039" lon="6.36746">
        <ele>384.7</ele>
        <time>2023-05-07T09:48:50Z</time>
      </trkpt>
      <trkpt lat="43.29033" lon="6.3674">
        <ele>384.3</ele>
        <time>2023-05-07T09:48:58Z</time>
      </trkpt>
      <trkpt lat="43.2903" lon="6.3674">
        <ele>385.3</ele>
        <time>2023-05-07T09:49:40Z</time>
      </trkpt>
      <trkpt lat="43.29027" lon="6.36739">
        <ele>385.7</ele>
        <time>2023-05-07T09:50:05Z</time>
      </trkpt>
      <trkpt lat="43.29021" lon="6.36738">
        <ele>386.1</ele>
        <time>2023-05-07T09:50:30Z</time>
      </trkpt>
      <trkpt lat="43.29015" lon="6.36737">
        <ele>386.5</ele>
        <time>2023-05-07T09:50:51Z</time>
      </trkpt>
      <trkpt lat="43.29009" lon="6.36736">
        <ele>386.8</ele>
        <time>2023-05-07T09:50:57Z</time>
      </trkpt>
      <trkpt lat="43.29003" lon="6.36735">
        <ele>387.1</ele>
        <time>2023-05-07T09:51:05Z</time>
      </trkpt>
      <trkpt lat="43.28997" lon="6.36735">
        <ele>387.2</ele>
        <time>2023-05-07T09:51:10Z</time>
      </trkpt>
      <trkpt lat="43.28991" lon="6.36735">
        <ele>386.7</ele>
        <time>2023-05-07T09:51:17Z</time>
      </trkpt>
      <trkpt lat="43.28987" lon="6.36738">
        <ele>387.6</ele>
        <time>2023-05-07T09:51:22Z</time>
      </trkpt>
      <trkpt lat="43.28982" lon="6.36741">
        <ele>388.6</ele>
        <time>2023-05-07T09:51:29Z</time>
      </trkpt>
      <trkpt lat="43.28974" lon="6.36741">
        <ele>387.9</ele>
        <time>2023-05-07T09:51:34Z</time>
      </trkpt>
      <trkpt lat="43.28966" lon="6.36741">
        <ele>386.6</ele>
        <time>2023-05-07T09:51:41Z</time>
      </trkpt>
      <trkpt lat="43.28961" lon="6.36744">
        <ele>386.8</ele>
        <time>2023-05-07T09:51:46Z</time>
      </trkpt>
      <trkpt lat="43.28955" lon="6.36747">
        <ele>387</ele>
        <time>2023-05-07T09:51:54Z</time>
      </trkpt>
      <trkpt lat="43.28952" lon="6.36752">
        <ele>388.1</ele>
        <time>2023-05-07T09:51:59Z</time>
      </trkpt>
      <trkpt lat="43.28948" lon="6.36756">
        <ele>389</ele>
        <time>2023-05-07T09:52:06Z</time>
      </trkpt>
      <trkpt lat="43.28944" lon="6.36759">
        <ele>389.3</ele>
        <time>2023-05-07T09:52:12Z</time>
      </trkpt>
      <trkpt lat="43.28939" lon="6.36762">
        <ele>390.6</ele>
        <time>2023-05-07T09:52:20Z</time>
      </trkpt>
      <trkpt lat="43.28934" lon="6.36764">
        <ele>391.6</ele>
        <time>2023-05-07T09:52:25Z</time>
      </trkpt>
      <trkpt lat="43.28928" lon="6.36766">
        <ele>392.7</ele>
        <time>2023-05-07T09:52:33Z</time>
      </trkpt>
      <trkpt lat="43.28927" lon="6.36771">
        <ele>394.7</ele>
        <time>2023-05-07T09:52:47Z</time>
      </trkpt>
      <trkpt lat="43.2893" lon="6.36774">
        <ele>395.6</ele>
        <time>2023-05-07T09:53:01Z</time>
      </trkpt>
      <trkpt lat="43.28934" lon="6.36773">
        <ele>395</ele>
        <time>2023-05-07T09:53:19Z</time>
      </trkpt>
      <trkpt lat="43.28939" lon="6.36771">
        <ele>393.7</ele>
        <time>2023-05-07T09:53:26Z</time>
      </trkpt>
      <trkpt lat="43.28944" lon="6.36768">
        <ele>392.5</ele>
        <time>2023-05-07T09:53:35Z</time>
      </trkpt>
      <trkpt lat="43.28948" lon="6.36764">
        <ele>391.9</ele>
        <time>2023-05-07T09:53:41Z</time>
      </trkpt>
      <trkpt lat="43.28952" lon="6.3676">
        <ele>391.4</ele>
        <time>2023-05-07T09:53:48Z</time>
      </trkpt>
      <trkpt lat="43.28958" lon="6.36759">
        <ele>392.2</ele>
        <time>2023-05-07T09:53:54Z</time>
      </trkpt>
      <trkpt lat="43.28963" lon="6.36757">
        <ele>392.9</ele>
        <time>2023-05-07T09:54:01Z</time>
      </trkpt>
      <trkpt lat="43.28969" lon="6.36757">
        <ele>394.3</ele>
        <time>2023-05-07T09:54:08Z</time>
      </trkpt>
      <trkpt lat="43.28975" lon="6.36757">
        <ele>395.2</ele>
        <time>2023-05-07T09:54:15Z</time>
      </trkpt>
      <trkpt lat="43.28982" lon="6.3676">
        <ele>396.7</ele>
        <time>2023-05-07T09:54:22Z</time>
      </trkpt>
      <trkpt lat="43.28989" lon="6.36762">
        <ele>398.1</ele>
        <time>2023-05-07T09:54:30Z</time>
      </trkpt>
      <trkpt lat="43.28996" lon="6.36766">
        <ele>399.9</ele>
        <time>2023-05-07T09:54:35Z</time>
      </trkpt>
      <trkpt lat="43.29002" lon="6.36769">
        <ele>401.2</ele>
        <time>2023-05-07T09:54:41Z</time>
      </trkpt>
      <trkpt lat="43.29007" lon="6.36771">
        <ele>401.2</ele>
        <time>2023-05-07T09:54:46Z</time>
      </trkpt>
      <trkpt lat="43.29011" lon="6.36772">
        <ele>401.1</ele>
        <time>2023-05-07T09:54:51Z</time>
      </trkpt>
      <trkpt lat="43.29016" lon="6.36775">
        <ele>401.5</ele>
        <time>2023-05-07T09:54:57Z</time>
      </trkpt>
      <trkpt lat="43.2902" lon="6.36777">
        <ele>401.8</ele>
        <time>2023-05-07T09:55:03Z</time>
      </trkpt>
      <trkpt lat="43.29025" lon="6.36781">
        <ele>402.6</ele>
        <time>2023-05-07T09:55:09Z</time>
      </trkpt>
      <trkpt lat="43.2903" lon="6.36785">
        <ele>402.8</ele>
        <time>2023-05-07T09:55:15Z</time>
      </trkpt>
      <trkpt lat="43.29034" lon="6.36791">
        <ele>403.6</ele>
        <time>2023-05-07T09:55:20Z</time>
      </trkpt>
      <trkpt lat="43.29038" lon="6.36797">
        <ele>404.5</ele>
        <time>2023-05-07T09:55:26Z</time>
      </trkpt>
      <trkpt lat="43.29042" lon="6.36801">
        <ele>404.8</ele>
        <time>2023-05-07T09:55:32Z</time>
      </trkpt>
      <trkpt lat="43.29045" lon="6.36805">
        <ele>405.2</ele>
        <time>2023-05-07T09:55:38Z</time>
      </trkpt>
      <trkpt lat="43.29049" lon="6.36812">
        <ele>406.1</ele>
        <time>2023-05-07T09:55:56Z</time>
      </trkpt>
      <trkpt lat="43.29045" lon="6.36808">
        <ele>406.4</ele>
        <time>2023-05-07T09:56:02Z</time>
      </trkpt>
      <trkpt lat="43.2904" lon="6.36804">
        <ele>406.5</ele>
        <time>2023-05-07T09:56:10Z</time>
      </trkpt>
      <trkpt lat="43.29035" lon="6.36799">
        <ele>406.4</ele>
        <time>2023-05-07T09:56:16Z</time>
      </trkpt>
      <trkpt lat="43.29029" lon="6.36794">
        <ele>406.4</ele>
        <time>2023-05-07T09:56:23Z</time>
      </trkpt>
      <trkpt lat="43.29024" lon="6.36791">
        <ele>406.4</ele>
        <time>2023-05-07T09:56:29Z</time>
      </trkpt>
      <trkpt lat="43.29019" lon="6.36788">
        <ele>406.1</ele>
        <time>2023-05-07T09:56:36Z</time>
      </trkpt>
      <trkpt lat="43.29014" lon="6.36787">
        <ele>406.5</ele>
        <time>2023-05-07T09:56:41Z</time>
      </trkpt>
      <trkpt lat="43.29008" lon="6.36786">
        <ele>407</ele>
        <time>2023-05-07T09:56:47Z</time>
      </trkpt>
      <trkpt lat="43.29003" lon="6.36787">
        <ele>408</ele>
        <time>2023-05-07T09:56:52Z</time>
      </trkpt>
      <trkpt lat="43.28998" lon="6.36787">
        <ele>408.6</ele>
        <time>2023-05-07T09:56:57Z</time>
      </trkpt>
      <trkpt lat="43.28993" lon="6.36789">
        <ele>409.1</ele>
        <time>2023-05-07T09:57:03Z</time>
      </trkpt>
      <trkpt lat="43.28987" lon="6.3679">
        <ele>409.6</ele>
        <time>2023-05-07T09:57:10Z</time>
      </trkpt>
      <trkpt lat="43.28982" lon="6.36791">
        <ele>409.7</ele>
        <time>2023-05-07T09:57:16Z</time>
      </trkpt>
      <trkpt lat="43.28977" lon="6.36791">
        <ele>409.8</ele>
        <time>2023-05-07T09:57:22Z</time>
      </trkpt>
      <trkpt lat="43.28972" lon="6.36795">
        <ele>411.2</ele>
        <time>2023-05-07T09:57:29Z</time>
      </trkpt>
      <trkpt lat="43.28966" lon="6.36799">
        <ele>411.4</ele>
        <time>2023-05-07T09:57:38Z</time>
      </trkpt>
      <trkpt lat="43.28961" lon="6.36804">
        <ele>411.9</ele>
        <time>2023-05-07T09:57:44Z</time>
      </trkpt>
      <trkpt lat="43.28956" lon="6.36808">
        <ele>412.5</ele>
        <time>2023-05-07T09:57:51Z</time>
      </trkpt>
      <trkpt lat="43.2895" lon="6.3681">
        <ele>411.4</ele>
        <time>2023-05-07T09:57:56Z</time>
      </trkpt>
      <trkpt lat="43.28943" lon="6.36811">
        <ele>410.9</ele>
        <time>2023-05-07T09:58:02Z</time>
      </trkpt>
      <trkpt lat="43.28938" lon="6.36811">
        <ele>411.3</ele>
        <time>2023-05-07T09:58:07Z</time>
      </trkpt>
      <trkpt lat="43.28933" lon="6.36811">
        <ele>411.8</ele>
        <time>2023-05-07T09:58:14Z</time>
      </trkpt>
      <trkpt lat="43.28928" lon="6.3681">
        <ele>411.8</ele>
        <time>2023-05-07T09:58:19Z</time>
      </trkpt>
      <trkpt lat="43.28923" lon="6.36809">
        <ele>411.9</ele>
        <time>2023-05-07T09:58:25Z</time>
      </trkpt>
      <trkpt lat="43.28918" lon="6.3681">
        <ele>412.6</ele>
        <time>2023-05-07T09:58:30Z</time>
      </trkpt>
      <trkpt lat="43.28912" lon="6.3681">
        <ele>411.6</ele>
        <time>2023-05-07T09:58:36Z</time>
      </trkpt>
      <trkpt lat="43.28907" lon="6.36813">
        <ele>411.5</ele>
        <time>2023-05-07T09:58:42Z</time>
      </trkpt>
      <trkpt lat="43.28902" lon="6.36816">
        <ele>411.5</ele>
        <time>2023-05-07T09:58:48Z</time>
      </trkpt>
      <trkpt lat="43.28898" lon="6.36822">
        <ele>412.8</ele>
        <time>2023-05-07T09:58:55Z</time>
      </trkpt>
      <trkpt lat="43.28893" lon="6.36827">
        <ele>414.1</ele>
        <time>2023-05-07T09:59:04Z</time>
      </trkpt>
      <trkpt lat="43.28889" lon="6.36831">
        <ele>414.9</ele>
        <time>2023-05-07T09:59:10Z</time>
      </trkpt>
      <trkpt lat="43.28885" lon="6.36835">
        <ele>416.4</ele>
        <time>2023-05-07T09:59:18Z</time>
      </trkpt>
      <trkpt lat="43.2888" lon="6.36841">
        <ele>418.2</ele>
        <time>2023-05-07T09:59:24Z</time>
      </trkpt>
      <trkpt lat="43.28874" lon="6.36847">
        <ele>419.8</ele>
        <time>2023-05-07T09:59:32Z</time>
      </trkpt>
      <trkpt lat="43.28869" lon="6.36846">
        <ele>418.9</ele>
        <time>2023-05-07T09:59:40Z</time>
      </trkpt>
      <trkpt lat="43.28864" lon="6.36845">
        <ele>418.1</ele>
        <time>2023-05-07T09:59:49Z</time>
      </trkpt>
      <trkpt lat="43.2886" lon="6.36842">
        <ele>417.1</ele>
        <time>2023-05-07T09:59:55Z</time>
      </trkpt>
      <trkpt lat="43.28856" lon="6.36838">
        <ele>417.7</ele>
        <time>2023-05-07T10:00:02Z</time>
      </trkpt>
      <trkpt lat="43.28851" lon="6.36833">
        <ele>418.3</ele>
        <time>2023-05-07T10:00:08Z</time>
      </trkpt>
      <trkpt lat="43.28846" lon="6.36828">
        <ele>418.6</ele>
        <time>2023-05-07T10:00:14Z</time>
      </trkpt>
      <trkpt lat="43.28842" lon="6.36823">
        <ele>418.4</ele>
        <time>2023-05-07T10:00:18Z</time>
      </trkpt>
      <trkpt lat="43.28837" lon="6.36817">
        <ele>418.1</ele>
        <time>2023-05-07T10:00:25Z</time>
      </trkpt>
      <trkpt lat="43.28831" lon="6.36816">
        <ele>419.8</ele>
        <time>2023-05-07T10:00:31Z</time>
      </trkpt>
      <trkpt lat="43.28825" lon="6.36815">
        <ele>421</ele>
        <time>2023-05-07T10:00:37Z</time>
      </trkpt>
      <trkpt lat="43.28821" lon="6.36814">
        <ele>421.7</ele>
        <time>2023-05-07T10:00:41Z</time>
      </trkpt>
      <trkpt lat="43.28816" lon="6.36812">
        <ele>422.4</ele>
        <time>2023-05-07T10:00:48Z</time>
      </trkpt>
      <trkpt lat="43.28812" lon="6.36808">
        <ele>422</ele>
        <time>2023-05-07T10:00:54Z</time>
      </trkpt>
      <trkpt lat="43.28808" lon="6.36804">
        <ele>422.1</ele>
        <time>2023-05-07T10:01:00Z</time>
      </trkpt>
      <trkpt lat="43.28806" lon="6.36792">
        <ele>421.3</ele>
        <time>2023-05-07T10:01:13Z</time>
      </trkpt>
      <trkpt lat="43.28803" lon="6.36785">
        <ele>422.5</ele>
        <time>2023-05-07T10:01:20Z</time>
      </trkpt>
      <trkpt lat="43.28799" lon="6.36777">
        <ele>423.6</ele>
        <time>2023-05-07T10:01:29Z</time>
      </trkpt>
      <trkpt lat="43.28796" lon="6.3677">
        <ele>423.6</ele>
        <time>2023-05-07T10:01:35Z</time>
      </trkpt>
      <trkpt lat="43.28793" lon="6.36762">
        <ele>423.6</ele>
        <time>2023-05-07T10:01:43Z</time>
      </trkpt>
      <trkpt lat="43.2879" lon="6.36755">
        <ele>423.7</ele>
        <time>2023-05-07T10:01:47Z</time>
      </trkpt>
      <trkpt lat="43.28786" lon="6.36747">
        <ele>423.8</ele>
        <time>2023-05-07T10:01:53Z</time>
      </trkpt>
      <trkpt lat="43.28784" lon="6.36741">
        <ele>423.3</ele>
        <time>2023-05-07T10:01:57Z</time>
      </trkpt>
      <trkpt lat="43.28782" lon="6.36735">
        <ele>422.9</ele>
        <time>2023-05-07T10:02:02Z</time>
      </trkpt>
      <trkpt lat="43.28779" lon="6.36728">
        <ele>422.8</ele>
        <time>2023-05-07T10:02:10Z</time>
      </trkpt>
      <trkpt lat="43.28776" lon="6.36724">
        <ele>423.6</ele>
        <time>2023-05-07T10:02:14Z</time>
      </trkpt>
      <trkpt lat="43.28772" lon="6.3672">
        <ele>424.1</ele>
        <time>2023-05-07T10:02:20Z</time>
      </trkpt>
      <trkpt lat="43.28768" lon="6.36715">
        <ele>424.6</ele>
        <time>2023-05-07T10:02:26Z</time>
      </trkpt>
      <trkpt lat="43.28763" lon="6.3671">
        <ele>424.8</ele>
        <time>2023-05-07T10:02:33Z</time>
      </trkpt>
      <trkpt lat="43.28759" lon="6.36707">
        <ele>425.6</ele>
        <time>2023-05-07T10:02:40Z</time>
      </trkpt>
      <trkpt lat="43.28754" lon="6.36704">
        <ele>426.4</ele>
        <time>2023-05-07T10:02:49Z</time>
      </trkpt>
      <trkpt lat="43.2875" lon="6.36702">
        <ele>427.4</ele>
        <time>2023-05-07T10:02:55Z</time>
      </trkpt>
      <trkpt lat="43.28745" lon="6.367">
        <ele>428</ele>
        <time>2023-05-07T10:03:03Z</time>
      </trkpt>
      <trkpt lat="43.2874" lon="6.36698">
        <ele>428.6</ele>
        <time>2023-05-07T10:03:09Z</time>
      </trkpt>
      <trkpt lat="43.28735" lon="6.36695">
        <ele>429.1</ele>
        <time>2023-05-07T10:03:17Z</time>
      </trkpt>
      <trkpt lat="43.2873" lon="6.36693">
        <ele>429.8</ele>
        <time>2023-05-07T10:03:23Z</time>
      </trkpt>
      <trkpt lat="43.28724" lon="6.3669">
        <ele>430.4</ele>
        <time>2023-05-07T10:03:32Z</time>
      </trkpt>
      <trkpt lat="43.28721" lon="6.36689">
        <ele>430.7</ele>
        <time>2023-05-07T10:04:57Z</time>
      </trkpt>
      <trkpt lat="43.28714" lon="6.36687">
        <ele>430.8</ele>
        <time>2023-05-07T10:05:30Z</time>
      </trkpt>
      <trkpt lat="43.28707" lon="6.36685">
        <ele>430.9</ele>
        <time>2023-05-07T10:05:42Z</time>
      </trkpt>
      <trkpt lat="43.28702" lon="6.36686">
        <ele>432.2</ele>
        <time>2023-05-07T10:05:47Z</time>
      </trkpt>
      <trkpt lat="43.28697" lon="6.36687">
        <ele>433.6</ele>
        <time>2023-05-07T10:05:54Z</time>
      </trkpt>
      <trkpt lat="43.28692" lon="6.36688">
        <ele>434.8</ele>
        <time>2023-05-07T10:05:59Z</time>
      </trkpt>
      <trkpt lat="43.28686" lon="6.36689">
        <ele>435.9</ele>
        <time>2023-05-07T10:06:06Z</time>
      </trkpt>
      <trkpt lat="43.28678" lon="6.36685">
        <ele>434.9</ele>
        <time>2023-05-07T10:06:17Z</time>
      </trkpt>
      <trkpt lat="43.2867" lon="6.36683">
        <ele>435</ele>
        <time>2023-05-07T10:06:35Z</time>
      </trkpt>
      <trkpt lat="43.28665" lon="6.36673">
        <ele>432.3</ele>
        <time>2023-05-07T10:30:06Z</time>
      </trkpt>
      <trkpt lat="43.2866" lon="6.36666">
        <ele>432.6</ele>
        <time>2023-05-07T10:48:29Z</time>
      </trkpt>
      <trkpt lat="43.28658" lon="6.36662">
        <ele>433.5</ele>
        <time>2023-05-07T10:50:24Z</time>
      </trkpt>
      <trkpt lat="43.28656" lon="6.36658">
        <ele>434.2</ele>
        <time>2023-05-07T10:52:28Z</time>
      </trkpt>
      <trkpt lat="43.28656" lon="6.36655">
        <ele>434</ele>
        <time>2023-05-07T10:52:33Z</time>
      </trkpt>
      <trkpt lat="43.28657" lon="6.36651">
        <ele>433.4</ele>
        <time>2023-05-07T10:52:40Z</time>
      </trkpt>
      <trkpt lat="43.28662" lon="6.36647">
        <ele>431.7</ele>
        <time>2023-05-07T10:52:55Z</time>
      </trkpt>
      <trkpt lat="43.28661" lon="6.36654">
        <ele>432</ele>
        <time>2023-05-07T10:53:39Z</time>
      </trkpt>
      <trkpt lat="43.28659" lon="6.36657">
        <ele>432.9</ele>
        <time>2023-05-07T10:54:05Z</time>
      </trkpt>
      <trkpt lat="43.2866" lon="6.36663">
        <ele>432.5</ele>
        <time>2023-05-07T10:54:44Z</time>
      </trkpt>
      <trkpt lat="43.28663" lon="6.36666">
        <ele>431</ele>
        <time>2023-05-07T10:55:18Z</time>
      </trkpt>
      <trkpt lat="43.28665" lon="6.36671">
        <ele>431.6</ele>
        <time>2023-05-07T10:55:54Z</time>
      </trkpt>
      <trkpt lat="43.28668" lon="6.36674">
        <ele>431.7</ele>
        <time>2023-05-07T10:56:26Z</time>
      </trkpt>
      <trkpt lat="43.2867" lon="6.36679">
        <ele>433.4</ele>
        <time>2023-05-07T10:57:04Z</time>
      </trkpt>
      <trkpt lat="43.28671" lon="6.3668">
        <ele>433.6</ele>
        <time>2023-05-07T10:57:32Z</time>
      </trkpt>
      <trkpt lat="43.28676" lon="6.36681">
        <ele>433.4</ele>
        <time>2023-05-07T10:57:43Z</time>
      </trkpt>
      <trkpt lat="43.28681" lon="6.36683">
        <ele>433.6</ele>
        <time>2023-05-07T10:57:52Z</time>
      </trkpt>
      <trkpt lat="43.28686" lon="6.36685">
        <ele>433.9</ele>
        <time>2023-05-07T10:58:02Z</time>
      </trkpt>
      <trkpt lat="43.28694" lon="6.36686">
        <ele>433.5</ele>
        <time>2023-05-07T10:58:17Z</time>
      </trkpt>
      <trkpt lat="43.28702" lon="6.36681">
        <ele>429.6</ele>
        <time>2023-05-07T10:58:32Z</time>
      </trkpt>
      <trkpt lat="43.28709" lon="6.36679">
        <ele>427.6</ele>
        <time>2023-05-07T10:58:46Z</time>
      </trkpt>
      <trkpt lat="43.28715" lon="6.36681">
        <ele>427.8</ele>
        <time>2023-05-07T10:58:55Z</time>
      </trkpt>
      <trkpt lat="43.2872" lon="6.36683">
        <ele>428</ele>
        <time>2023-05-07T10:59:04Z</time>
      </trkpt>
      <trkpt lat="43.28725" lon="6.36687">
        <ele>428.6</ele>
        <time>2023-05-07T10:59:20Z</time>
      </trkpt>
      <trkpt lat="43.28733" lon="6.36688">
        <ele>426.6</ele>
        <time>2023-05-07T10:59:46Z</time>
      </trkpt>
      <trkpt lat="43.28737" lon="6.36692">
        <ele>426.9</ele>
        <time>2023-05-07T10:59:55Z</time>
      </trkpt>
      <trkpt lat="43.28741" lon="6.36695">
        <ele>427.2</ele>
        <time>2023-05-07T11:00:05Z</time>
      </trkpt>
      <trkpt lat="43.28747" lon="6.36692">
        <ele>423.8</ele>
        <time>2023-05-07T11:00:12Z</time>
      </trkpt>
      <trkpt lat="43.28752" lon="6.36688">
        <ele>420.5</ele>
        <time>2023-05-07T11:00:20Z</time>
      </trkpt>
      <trkpt lat="43.28759" lon="6.36682">
        <ele>415.8</ele>
        <time>2023-05-07T11:00:42Z</time>
      </trkpt>
      <trkpt lat="43.28764" lon="6.36678">
        <ele>412.8</ele>
        <time>2023-05-07T11:01:03Z</time>
      </trkpt>
      <trkpt lat="43.28769" lon="6.36684">
        <ele>413.3</ele>
        <time>2023-05-07T11:01:11Z</time>
      </trkpt>
      <trkpt lat="43.28773" lon="6.36689">
        <ele>413.4</ele>
        <time>2023-05-07T11:01:18Z</time>
      </trkpt>
      <trkpt lat="43.28779" lon="6.36695">
        <ele>412.7</ele>
        <time>2023-05-07T11:01:29Z</time>
      </trkpt>
      <trkpt lat="43.28784" lon="6.367">
        <ele>411.8</ele>
        <time>2023-05-07T11:01:39Z</time>
      </trkpt>
      <trkpt lat="43.28789" lon="6.36705">
        <ele>410.6</ele>
        <time>2023-05-07T11:01:47Z</time>
      </trkpt>
      <trkpt lat="43.28794" lon="6.36709">
        <ele>409.2</ele>
        <time>2023-05-07T11:01:55Z</time>
      </trkpt>
      <trkpt lat="43.28798" lon="6.36713">
        <ele>408</ele>
        <time>2023-05-07T11:02:04Z</time>
      </trkpt>
      <trkpt lat="43.28802" lon="6.36716">
        <ele>406.6</ele>
        <time>2023-05-07T11:02:14Z</time>
      </trkpt>
      <trkpt lat="43.28809" lon="6.36718">
        <ele>404</ele>
        <time>2023-05-07T11:02:34Z</time>
      </trkpt>
      <trkpt lat="43.28812" lon="6.36717">
        <ele>403</ele>
        <time>2023-05-07T11:03:06Z</time>
      </trkpt>
      <trkpt lat="43.28815" lon="6.36725">
        <ele>402.6</ele>
        <time>2023-05-07T11:03:30Z</time>
      </trkpt>
      <trkpt lat="43.28819" lon="6.3673">
        <ele>402.3</ele>
        <time>2023-05-07T11:03:39Z</time>
      </trkpt>
      <trkpt lat="43.28822" lon="6.36735">
        <ele>401.8</ele>
        <time>2023-05-07T11:03:47Z</time>
      </trkpt>
      <trkpt lat="43.28827" lon="6.3674">
        <ele>400.6</ele>
        <time>2023-05-07T11:03:55Z</time>
      </trkpt>
      <trkpt lat="43.28831" lon="6.36745">
        <ele>399.3</ele>
        <time>2023-05-07T11:04:03Z</time>
      </trkpt>
      <trkpt lat="43.28834" lon="6.36752">
        <ele>398.9</ele>
        <time>2023-05-07T11:04:11Z</time>
      </trkpt>
      <trkpt lat="43.28837" lon="6.36758">
        <ele>398.7</ele>
        <time>2023-05-07T11:04:19Z</time>
      </trkpt>
      <trkpt lat="43.28843" lon="6.36757">
        <ele>396.1</ele>
        <time>2023-05-07T11:04:42Z</time>
      </trkpt>
      <trkpt lat="43.28848" lon="6.36756">
        <ele>393.7</ele>
        <time>2023-05-07T11:04:50Z</time>
      </trkpt>
      <trkpt lat="43.28853" lon="6.36754">
        <ele>391.1</ele>
        <time>2023-05-07T11:05:00Z</time>
      </trkpt>
      <trkpt lat="43.28859" lon="6.36746">
        <ele>387.3</ele>
        <time>2023-05-07T11:05:18Z</time>
      </trkpt>
      <trkpt lat="43.28865" lon="6.36744">
        <ele>385.7</ele>
        <time>2023-05-07T11:05:37Z</time>
      </trkpt>
      <trkpt lat="43.28869" lon="6.36744">
        <ele>384.8</ele>
        <time>2023-05-07T11:06:03Z</time>
      </trkpt>
      <trkpt lat="43.28875" lon="6.3675">
        <ele>383.5</ele>
        <time>2023-05-07T11:06:10Z</time>
      </trkpt>
      <trkpt lat="43.28881" lon="6.36755">
        <ele>384.5</ele>
        <time>2023-05-07T11:06:17Z</time>
      </trkpt>
      <trkpt lat="43.28886" lon="6.36753">
        <ele>382.9</ele>
        <time>2023-05-07T11:06:26Z</time>
      </trkpt>
      <trkpt lat="43.2889" lon="6.36751">
        <ele>381.7</ele>
        <time>2023-05-07T11:06:35Z</time>
      </trkpt>
      <trkpt lat="43.28894" lon="6.36747">
        <ele>381.3</ele>
        <time>2023-05-07T11:06:41Z</time>
      </trkpt>
      <trkpt lat="43.28898" lon="6.36742">
        <ele>380.8</ele>
        <time>2023-05-07T11:06:48Z</time>
      </trkpt>
      <trkpt lat="43.28904" lon="6.3674">
        <ele>380.6</ele>
        <time>2023-05-07T11:06:56Z</time>
      </trkpt>
      <trkpt lat="43.28909" lon="6.36738">
        <ele>380.2</ele>
        <time>2023-05-07T11:07:03Z</time>
      </trkpt>
      <trkpt lat="43.28915" lon="6.36738">
        <ele>380.4</ele>
        <time>2023-05-07T11:07:13Z</time>
      </trkpt>
      <trkpt lat="43.2892" lon="6.36738">
        <ele>380.6</ele>
        <time>2023-05-07T11:07:22Z</time>
      </trkpt>
      <trkpt lat="43.28927" lon="6.36741">
        <ele>382.3</ele>
        <time>2023-05-07T11:07:39Z</time>
      </trkpt>
      <trkpt lat="43.28933" lon="6.36743">
        <ele>383.2</ele>
        <time>2023-05-07T11:07:58Z</time>
      </trkpt>
      <trkpt lat="43.28938" lon="6.36738">
        <ele>381.1</ele>
        <time>2023-05-07T11:08:07Z</time>
      </trkpt>
      <trkpt lat="43.28942" lon="6.36733">
        <ele>379.1</ele>
        <time>2023-05-07T11:08:15Z</time>
      </trkpt>
      <trkpt lat="43.28947" lon="6.36729">
        <ele>377.9</ele>
        <time>2023-05-07T11:08:21Z</time>
      </trkpt>
      <trkpt lat="43.28952" lon="6.36724">
        <ele>376.8</ele>
        <time>2023-05-07T11:08:29Z</time>
      </trkpt>
      <trkpt lat="43.28957" lon="6.3672">
        <ele>375.8</ele>
        <time>2023-05-07T11:08:35Z</time>
      </trkpt>
      <trkpt lat="43.28962" lon="6.36716">
        <ele>374.6</ele>
        <time>2023-05-07T11:08:43Z</time>
      </trkpt>
      <trkpt lat="43.28967" lon="6.36712">
        <ele>373.2</ele>
        <time>2023-05-07T11:08:49Z</time>
      </trkpt>
      <trkpt lat="43.28972" lon="6.36707">
        <ele>371.8</ele>
        <time>2023-05-07T11:08:57Z</time>
      </trkpt>
      <trkpt lat="43.28978" lon="6.36704">
        <ele>371</ele>
        <time>2023-05-07T11:09:05Z</time>
      </trkpt>
      <trkpt lat="43.28983" lon="6.36701">
        <ele>370.2</ele>
        <time>2023-05-07T11:09:12Z</time>
      </trkpt>
      <trkpt lat="43.2899" lon="6.36703">
        <ele>371.9</ele>
        <time>2023-05-07T11:09:33Z</time>
      </trkpt>
      <trkpt lat="43.28996" lon="6.36701">
        <ele>371.6</ele>
        <time>2023-05-07T11:10:04Z</time>
      </trkpt>
      <trkpt lat="43.28999" lon="6.36696">
        <ele>369.6</ele>
        <time>2023-05-07T11:10:44Z</time>
      </trkpt>
      <trkpt lat="43.29005" lon="6.36695">
        <ele>368.9</ele>
        <time>2023-05-07T11:10:53Z</time>
      </trkpt>
      <trkpt lat="43.2901" lon="6.36693">
        <ele>367.9</ele>
        <time>2023-05-07T11:11:01Z</time>
      </trkpt>
      <trkpt lat="43.29015" lon="6.36691">
        <ele>366.5</ele>
        <time>2023-05-07T11:11:08Z</time>
      </trkpt>
      <trkpt lat="43.29019" lon="6.36688">
        <ele>365.2</ele>
        <time>2023-05-07T11:11:16Z</time>
      </trkpt>
      <trkpt lat="43.29024" lon="6.36688">
        <ele>365.1</ele>
        <time>2023-05-07T11:11:22Z</time>
      </trkpt>
      <trkpt lat="43.29029" lon="6.36688">
        <ele>364.8</ele>
        <time>2023-05-07T11:11:30Z</time>
      </trkpt>
      <trkpt lat="43.29035" lon="6.36688">
        <ele>363.7</ele>
        <time>2023-05-07T11:11:37Z</time>
      </trkpt>
      <trkpt lat="43.2904" lon="6.36688">
        <ele>362.7</ele>
        <time>2023-05-07T11:11:44Z</time>
      </trkpt>
      <trkpt lat="43.29045" lon="6.36689">
        <ele>361.9</ele>
        <time>2023-05-07T11:11:51Z</time>
      </trkpt>
      <trkpt lat="43.2905" lon="6.36689">
        <ele>361.1</ele>
        <time>2023-05-07T11:11:58Z</time>
      </trkpt>
      <trkpt lat="43.29056" lon="6.36693">
        <ele>361.3</ele>
        <time>2023-05-07T11:12:04Z</time>
      </trkpt>
      <trkpt lat="43.29062" lon="6.36697">
        <ele>359.6</ele>
        <time>2023-05-07T11:12:12Z</time>
      </trkpt>
      <trkpt lat="43.29066" lon="6.36701">
        <ele>358.9</ele>
        <time>2023-05-07T11:12:20Z</time>
      </trkpt>
      <trkpt lat="43.2907" lon="6.36705">
        <ele>358.3</ele>
        <time>2023-05-07T11:12:28Z</time>
      </trkpt>
      <trkpt lat="43.29075" lon="6.36705">
        <ele>356</ele>
        <time>2023-05-07T11:12:39Z</time>
      </trkpt>
      <trkpt lat="43.29079" lon="6.36704">
        <ele>353.6</ele>
        <time>2023-05-07T11:12:49Z</time>
      </trkpt>
      <trkpt lat="43.29085" lon="6.36703">
        <ele>350.5</ele>
        <time>2023-05-07T11:12:57Z</time>
      </trkpt>
      <trkpt lat="43.2909" lon="6.36702">
        <ele>347.5</ele>
        <time>2023-05-07T11:13:05Z</time>
      </trkpt>
      <trkpt lat="43.29096" lon="6.36704">
        <ele>345.6</ele>
        <time>2023-05-07T11:13:13Z</time>
      </trkpt>
      <trkpt lat="43.29101" lon="6.36706">
        <ele>343.8</ele>
        <time>2023-05-07T11:13:21Z</time>
      </trkpt>
      <trkpt lat="43.29107" lon="6.36708">
        <ele>341.8</ele>
        <time>2023-05-07T11:13:29Z</time>
      </trkpt>
      <trkpt lat="43.29112" lon="6.36709">
        <ele>340.3</ele>
        <time>2023-05-07T11:13:37Z</time>
      </trkpt>
      <trkpt lat="43.29117" lon="6.36708">
        <ele>339.4</ele>
        <time>2023-05-07T11:13:45Z</time>
      </trkpt>
      <trkpt lat="43.29122" lon="6.36706">
        <ele>338.5</ele>
        <time>2023-05-07T11:13:55Z</time>
      </trkpt>
      <trkpt lat="43.29128" lon="6.36706">
        <ele>337.9</ele>
        <time>2023-05-07T11:14:29Z</time>
      </trkpt>
      <trkpt lat="43.29133" lon="6.36705">
        <ele>337.4</ele>
        <time>2023-05-07T11:14:58Z</time>
      </trkpt>
      <trkpt lat="43.29138" lon="6.36704">
        <ele>336.3</ele>
        <time>2023-05-07T11:15:04Z</time>
      </trkpt>
      <trkpt lat="43.29142" lon="6.36702">
        <ele>336.1</ele>
        <time>2023-05-07T11:15:10Z</time>
      </trkpt>
      <trkpt lat="43.29147" lon="6.36702">
        <ele>337.2</ele>
        <time>2023-05-07T11:15:17Z</time>
      </trkpt>
      <trkpt lat="43.29151" lon="6.36702">
        <ele>338.2</ele>
        <time>2023-05-07T11:15:24Z</time>
      </trkpt>
      <trkpt lat="43.29156" lon="6.36702">
        <ele>339.2</ele>
        <time>2023-05-07T11:16:04Z</time>
      </trkpt>
      <trkpt lat="43.29161" lon="6.36701">
        <ele>340.2</ele>
        <time>2023-05-07T11:16:46Z</time>
      </trkpt>
      <trkpt lat="43.29165" lon="6.36701">
        <ele>341.2</ele>
        <time>2023-05-07T11:17:14Z</time>
      </trkpt>
      <trkpt lat="43.29168" lon="6.36697">
        <ele>339.6</ele>
        <time>2023-05-07T11:17:50Z</time>
      </trkpt>
      <trkpt lat="43.29175" lon="6.36703">
        <ele>340</ele>
        <time>2023-05-07T11:18:15Z</time>
      </trkpt>
      <trkpt lat="43.2918" lon="6.36706">
        <ele>339.5</ele>
        <time>2023-05-07T11:18:24Z</time>
      </trkpt>
      <trkpt lat="43.29185" lon="6.36708">
        <ele>339.1</ele>
        <time>2023-05-07T11:18:34Z</time>
      </trkpt>
      <trkpt lat="43.29188" lon="6.36709">
        <ele>338.6</ele>
        <time>2023-05-07T11:18:53Z</time>
      </trkpt>
      <trkpt lat="43.29183" lon="6.36702">
        <ele>337.3</ele>
        <time>2023-05-07T11:19:08Z</time>
      </trkpt>
      <trkpt lat="43.29179" lon="6.367">
        <ele>337.6</ele>
        <time>2023-05-07T11:19:16Z</time>
      </trkpt>
      <trkpt lat="43.29174" lon="6.36698">
        <ele>338.3</ele>
        <time>2023-05-07T11:19:26Z</time>
      </trkpt>
      <trkpt lat="43.2917" lon="6.36695">
        <ele>338.3</ele>
        <time>2023-05-07T11:19:46Z</time>
      </trkpt>
      <trkpt lat="43.29173" lon="6.36685">
        <ele>333</ele>
        <time>2023-05-07T11:20:15Z</time>
      </trkpt>
      <trkpt lat="43.29171" lon="6.3669">
        <ele>335.8</ele>
        <time>2023-05-07T11:20:49Z</time>
      </trkpt>
      <trkpt lat="43.29174" lon="6.36693">
        <ele>336.3</ele>
        <time>2023-05-07T11:21:27Z</time>
      </trkpt>
      <trkpt lat="43.29179" lon="6.36694">
        <ele>335.2</ele>
        <time>2023-05-07T11:22:17Z</time>
      </trkpt>
      <trkpt lat="43.29183" lon="6.36699">
        <ele>336</ele>
        <time>2023-05-07T11:22:31Z</time>
      </trkpt>
      <trkpt lat="43.29186" lon="6.36703">
        <ele>336.8</ele>
        <time>2023-05-07T11:22:43Z</time>
      </trkpt>
      <trkpt lat="43.29192" lon="6.36707">
        <ele>336.8</ele>
        <time>2023-05-07T11:22:52Z</time>
      </trkpt>
      <trkpt lat="43.29197" lon="6.36711">
        <ele>336.7</ele>
        <time>2023-05-07T11:23:00Z</time>
      </trkpt>
      <trkpt lat="43.29204" lon="6.36708">
        <ele>333.3</ele>
        <time>2023-05-07T11:23:26Z</time>
      </trkpt>
      <trkpt lat="43.29208" lon="6.36708">
        <ele>332</ele>
        <time>2023-05-07T11:23:46Z</time>
      </trkpt>
      <trkpt lat="43.29214" lon="6.36711">
        <ele>331.4</ele>
        <time>2023-05-07T11:23:54Z</time>
      </trkpt>
      <trkpt lat="43.29219" lon="6.36714">
        <ele>330.8</ele>
        <time>2023-05-07T11:24:01Z</time>
      </trkpt>
      <trkpt lat="43.29225" lon="6.36716">
        <ele>329.5</ele>
        <time>2023-05-07T11:24:08Z</time>
      </trkpt>
      <trkpt lat="43.29231" lon="6.36718">
        <ele>328.3</ele>
        <time>2023-05-07T11:24:16Z</time>
      </trkpt>
      <trkpt lat="43.29237" lon="6.36717">
        <ele>325.9</ele>
        <time>2023-05-07T11:24:28Z</time>
      </trkpt>
      <trkpt lat="43.29242" lon="6.36716">
        <ele>323.5</ele>
        <time>2023-05-07T11:24:39Z</time>
      </trkpt>
      <trkpt lat="43.29248" lon="6.36718">
        <ele>322.3</ele>
        <time>2023-05-07T11:24:47Z</time>
      </trkpt>
      <trkpt lat="43.29253" lon="6.36719">
        <ele>320.6</ele>
        <time>2023-05-07T11:24:55Z</time>
      </trkpt>
      <trkpt lat="43.29258" lon="6.36724">
        <ele>319.6</ele>
        <time>2023-05-07T11:25:06Z</time>
      </trkpt>
      <trkpt lat="43.29262" lon="6.36728">
        <ele>318.3</ele>
        <time>2023-05-07T11:25:15Z</time>
      </trkpt>
      <trkpt lat="43.29265" lon="6.36734">
        <ele>318.9</ele>
        <time>2023-05-07T11:25:25Z</time>
      </trkpt>
      <trkpt lat="43.29267" lon="6.36739">
        <ele>319.7</ele>
        <time>2023-05-07T11:25:33Z</time>
      </trkpt>
      <trkpt lat="43.29275" lon="6.36739">
        <ele>315.4</ele>
        <time>2023-05-07T11:26:03Z</time>
      </trkpt>
      <trkpt lat="43.29279" lon="6.36744">
        <ele>315.9</ele>
        <time>2023-05-07T11:28:17Z</time>
      </trkpt>
      <trkpt lat="43.29283" lon="6.36745">
        <ele>315.3</ele>
        <time>2023-05-07T11:28:38Z</time>
      </trkpt>
      <trkpt lat="43.29289" lon="6.36745">
        <ele>313.7</ele>
        <time>2023-05-07T11:28:46Z</time>
      </trkpt>
      <trkpt lat="43.29294" lon="6.36744">
        <ele>312.2</ele>
        <time>2023-05-07T11:28:54Z</time>
      </trkpt>
      <trkpt lat="43.29301" lon="6.36738">
        <ele>309.5</ele>
        <time>2023-05-07T11:29:14Z</time>
      </trkpt>
      <trkpt lat="43.29306" lon="6.3674">
        <ele>308.7</ele>
        <time>2023-05-07T11:29:23Z</time>
      </trkpt>
      <trkpt lat="43.29311" lon="6.36741">
        <ele>307.4</ele>
        <time>2023-05-07T11:29:33Z</time>
      </trkpt>
      <trkpt lat="43.29316" lon="6.36744">
        <ele>306</ele>
        <time>2023-05-07T11:29:45Z</time>
      </trkpt>
      <trkpt lat="43.2932" lon="6.36746">
        <ele>304.4</ele>
        <time>2023-05-07T11:29:56Z</time>
      </trkpt>
      <trkpt lat="43.29326" lon="6.3675">
        <ele>302.2</ele>
        <time>2023-05-07T11:30:07Z</time>
      </trkpt>
      <trkpt lat="43.29331" lon="6.36753">
        <ele>300.7</ele>
        <time>2023-05-07T11:30:16Z</time>
      </trkpt>
      <trkpt lat="43.29337" lon="6.36761">
        <ele>300.4</ele>
        <time>2023-05-07T11:30:40Z</time>
      </trkpt>
      <trkpt lat="43.29342" lon="6.36763">
        <ele>299.1</ele>
        <time>2023-05-07T11:30:48Z</time>
      </trkpt>
      <trkpt lat="43.29347" lon="6.36764">
        <ele>297.9</ele>
        <time>2023-05-07T11:30:57Z</time>
      </trkpt>
      <trkpt lat="43.29352" lon="6.36766">
        <ele>297</ele>
        <time>2023-05-07T11:31:07Z</time>
      </trkpt>
      <trkpt lat="43.29357" lon="6.36768">
        <ele>296.3</ele>
        <time>2023-05-07T11:31:17Z</time>
      </trkpt>
      <trkpt lat="43.29363" lon="6.3677">
        <ele>295.9</ele>
        <time>2023-05-07T11:31:26Z</time>
      </trkpt>
      <trkpt lat="43.29368" lon="6.36772">
        <ele>296.1</ele>
        <time>2023-05-07T11:31:35Z</time>
      </trkpt>
      <trkpt lat="43.29373" lon="6.36772">
        <ele>295.4</ele>
        <time>2023-05-07T11:32:04Z</time>
      </trkpt>
      <trkpt lat="43.29379" lon="6.36771">
        <ele>294</ele>
        <time>2023-05-07T11:32:11Z</time>
      </trkpt>
      <trkpt lat="43.29385" lon="6.3677">
        <ele>292.6</ele>
        <time>2023-05-07T11:32:20Z</time>
      </trkpt>
      <trkpt lat="43.29389" lon="6.36767">
        <ele>290.5</ele>
        <time>2023-05-07T11:32:27Z</time>
      </trkpt>
      <trkpt lat="43.29393" lon="6.36764">
        <ele>288.2</ele>
        <time>2023-05-07T11:32:35Z</time>
      </trkpt>
      <trkpt lat="43.29401" lon="6.36759">
        <ele>284.7</ele>
        <time>2023-05-07T11:32:51Z</time>
      </trkpt>
      <trkpt lat="43.29407" lon="6.36759">
        <ele>283.8</ele>
        <time>2023-05-07T11:32:58Z</time>
      </trkpt>
      <trkpt lat="43.29413" lon="6.36759">
        <ele>282.8</ele>
        <time>2023-05-07T11:33:07Z</time>
      </trkpt>
      <trkpt lat="43.29419" lon="6.36767">
        <ele>282.9</ele>
        <time>2023-05-07T11:33:31Z</time>
      </trkpt>
      <trkpt lat="43.29422" lon="6.36772">
        <ele>282.1</ele>
        <time>2023-05-07T11:34:03Z</time>
      </trkpt>
      <trkpt lat="43.29426" lon="6.36779">
        <ele>280.4</ele>
        <time>2023-05-07T11:34:10Z</time>
      </trkpt>
      <trkpt lat="43.2943" lon="6.36785">
        <ele>278.9</ele>
        <time>2023-05-07T11:34:18Z</time>
      </trkpt>
      <trkpt lat="43.29435" lon="6.3679">
        <ele>276.8</ele>
        <time>2023-05-07T11:34:25Z</time>
      </trkpt>
      <trkpt lat="43.29439" lon="6.36794">
        <ele>274.8</ele>
        <time>2023-05-07T11:34:32Z</time>
      </trkpt>
      <trkpt lat="43.29444" lon="6.36795">
        <ele>272</ele>
        <time>2023-05-07T11:34:42Z</time>
      </trkpt>
      <trkpt lat="43.29448" lon="6.36796">
        <ele>270.9</ele>
        <time>2023-05-07T11:34:50Z</time>
      </trkpt>
      <trkpt lat="43.29451" lon="6.36802">
        <ele>270.9</ele>
        <time>2023-05-07T11:34:58Z</time>
      </trkpt>
      <trkpt lat="43.29454" lon="6.36808">
        <ele>270.4</ele>
        <time>2023-05-07T11:35:08Z</time>
      </trkpt>
      <trkpt lat="43.29457" lon="6.36818">
        <ele>271.1</ele>
        <time>2023-05-07T11:35:32Z</time>
      </trkpt>
      <trkpt lat="43.2946" lon="6.36822">
        <ele>270.4</ele>
        <time>2023-05-07T11:35:51Z</time>
      </trkpt>
      <trkpt lat="43.29464" lon="6.36826">
        <ele>269.1</ele>
        <time>2023-05-07T11:35:56Z</time>
      </trkpt>
      <trkpt lat="43.29468" lon="6.3683">
        <ele>267.7</ele>
        <time>2023-05-07T11:36:03Z</time>
      </trkpt>
      <trkpt lat="43.29472" lon="6.36835">
        <ele>266.7</ele>
        <time>2023-05-07T11:36:12Z</time>
      </trkpt>
      <trkpt lat="43.29475" lon="6.36839">
        <ele>267.1</ele>
        <time>2023-05-07T11:36:19Z</time>
      </trkpt>
      <trkpt lat="43.29482" lon="6.36839">
        <ele>266.4</ele>
        <time>2023-05-07T11:36:27Z</time>
      </trkpt>
      <trkpt lat="43.29488" lon="6.36839">
        <ele>265.7</ele>
        <time>2023-05-07T11:36:35Z</time>
      </trkpt>
      <trkpt lat="43.29493" lon="6.36841">
        <ele>266</ele>
        <time>2023-05-07T11:36:44Z</time>
      </trkpt>
      <trkpt lat="43.29497" lon="6.36843">
        <ele>266.4</ele>
        <time>2023-05-07T11:36:53Z</time>
      </trkpt>
      <trkpt lat="43.29502" lon="6.36847">
        <ele>267.3</ele>
        <time>2023-05-07T11:37:01Z</time>
      </trkpt>
      <trkpt lat="43.29506" lon="6.3685">
        <ele>267.7</ele>
        <time>2023-05-07T11:37:09Z</time>
      </trkpt>
      <trkpt lat="43.29514" lon="6.36853">
        <ele>267</ele>
        <time>2023-05-07T11:37:18Z</time>
      </trkpt>
      <trkpt lat="43.29522" lon="6.36856">
        <ele>266.2</ele>
        <time>2023-05-07T11:37:29Z</time>
      </trkpt>
      <trkpt lat="43.2953" lon="6.36857">
        <ele>264.9</ele>
        <time>2023-05-07T11:37:36Z</time>
      </trkpt>
      <trkpt lat="43.29537" lon="6.36858">
        <ele>264</ele>
        <time>2023-05-07T11:37:43Z</time>
      </trkpt>
      <trkpt lat="43.29542" lon="6.36857">
        <ele>262.4</ele>
        <time>2023-05-07T11:37:50Z</time>
      </trkpt>
      <trkpt lat="43.29547" lon="6.36855">
        <ele>260.9</ele>
        <time>2023-05-07T11:37:58Z</time>
      </trkpt>
      <trkpt lat="43.29553" lon="6.36853">
        <ele>258.8</ele>
        <time>2023-05-07T11:38:06Z</time>
      </trkpt>
      <trkpt lat="43.29558" lon="6.3685">
        <ele>256.9</ele>
        <time>2023-05-07T11:38:14Z</time>
      </trkpt>
      <trkpt lat="43.29564" lon="6.36848">
        <ele>255.3</ele>
        <time>2023-05-07T11:38:22Z</time>
      </trkpt>
      <trkpt lat="43.29569" lon="6.36845">
        <ele>253.6</ele>
        <time>2023-05-07T11:38:30Z</time>
      </trkpt>
      <trkpt lat="43.29574" lon="6.36846">
        <ele>253.3</ele>
        <time>2023-05-07T11:38:38Z</time>
      </trkpt>
      <trkpt lat="43.29578" lon="6.36846">
        <ele>253</ele>
        <time>2023-05-07T11:38:46Z</time>
      </trkpt>
      <trkpt lat="43.29583" lon="6.36845">
        <ele>252.1</ele>
        <time>2023-05-07T11:38:53Z</time>
      </trkpt>
      <trkpt lat="43.29587" lon="6.36844">
        <ele>251.4</ele>
        <time>2023-05-07T11:39:00Z</time>
      </trkpt>
      <trkpt lat="43.29592" lon="6.36845">
        <ele>251.4</ele>
        <time>2023-05-07T11:39:06Z</time>
      </trkpt>
      <trkpt lat="43.29596" lon="6.36845">
        <ele>251.3</ele>
        <time>2023-05-07T11:39:11Z</time>
      </trkpt>
      <trkpt lat="43.29604" lon="6.36846">
        <ele>251.3</ele>
        <time>2023-05-07T11:39:22Z</time>
      </trkpt>
      <trkpt lat="43.29609" lon="6.36845">
        <ele>250.6</ele>
        <time>2023-05-07T11:39:29Z</time>
      </trkpt>
      <trkpt lat="43.29614" lon="6.36845">
        <ele>250.1</ele>
        <time>2023-05-07T11:39:36Z</time>
      </trkpt>
      <trkpt lat="43.29622" lon="6.36848">
        <ele>250</ele>
        <time>2023-05-07T11:39:51Z</time>
      </trkpt>
      <trkpt lat="43.29627" lon="6.36843">
        <ele>247.6</ele>
        <time>2023-05-07T11:40:07Z</time>
      </trkpt>
      <trkpt lat="43.29632" lon="6.36847">
        <ele>248.1</ele>
        <time>2023-05-07T11:40:14Z</time>
      </trkpt>
      <trkpt lat="43.29636" lon="6.36851">
        <ele>248.4</ele>
        <time>2023-05-07T11:40:20Z</time>
      </trkpt>
      <trkpt lat="43.2964" lon="6.36854">
        <ele>248.2</ele>
        <time>2023-05-07T11:40:26Z</time>
      </trkpt>
      <trkpt lat="43.29644" lon="6.36857">
        <ele>247.9</ele>
        <time>2023-05-07T11:40:33Z</time>
      </trkpt>
      <trkpt lat="43.2965" lon="6.36852">
        <ele>245.5</ele>
        <time>2023-05-07T11:40:40Z</time>
      </trkpt>
      <trkpt lat="43.29655" lon="6.36847">
        <ele>243.2</ele>
        <time>2023-05-07T11:40:47Z</time>
      </trkpt>
      <trkpt lat="43.2966" lon="6.3685">
        <ele>242.6</ele>
        <time>2023-05-07T11:40:56Z</time>
      </trkpt>
      <trkpt lat="43.29665" lon="6.36853">
        <ele>241.9</ele>
        <time>2023-05-07T11:41:06Z</time>
      </trkpt>
      <trkpt lat="43.29671" lon="6.36853">
        <ele>240.8</ele>
        <time>2023-05-07T11:41:15Z</time>
      </trkpt>
      <trkpt lat="43.29677" lon="6.36853">
        <ele>239.8</ele>
        <time>2023-05-07T11:41:24Z</time>
      </trkpt>
      <trkpt lat="43.29683" lon="6.36855">
        <ele>239</ele>
        <time>2023-05-07T11:41:32Z</time>
      </trkpt>
      <trkpt lat="43.29689" lon="6.36856">
        <ele>238.2</ele>
        <time>2023-05-07T11:41:40Z</time>
      </trkpt>
      <trkpt lat="43.29696" lon="6.36856">
        <ele>237</ele>
        <time>2023-05-07T11:41:48Z</time>
      </trkpt>
      <trkpt lat="43.29702" lon="6.36855">
        <ele>235.7</ele>
        <time>2023-05-07T11:41:56Z</time>
      </trkpt>
      <trkpt lat="43.29707" lon="6.36853">
        <ele>234.6</ele>
        <time>2023-05-07T11:42:04Z</time>
      </trkpt>
      <trkpt lat="43.29712" lon="6.36851">
        <ele>233.7</ele>
        <time>2023-05-07T11:42:13Z</time>
      </trkpt>
      <trkpt lat="43.29718" lon="6.36849">
        <ele>232.7</ele>
        <time>2023-05-07T11:42:20Z</time>
      </trkpt>
      <trkpt lat="43.29723" lon="6.36847">
        <ele>231.9</ele>
        <time>2023-05-07T11:42:27Z</time>
      </trkpt>
      <trkpt lat="43.29728" lon="6.36846">
        <ele>231.5</ele>
        <time>2023-05-07T11:42:32Z</time>
      </trkpt>
      <trkpt lat="43.29733" lon="6.36845">
        <ele>231.1</ele>
        <time>2023-05-07T11:42:38Z</time>
      </trkpt>
      <trkpt lat="43.29738" lon="6.36842">
        <ele>230.4</ele>
        <time>2023-05-07T11:42:43Z</time>
      </trkpt>
      <trkpt lat="43.29743" lon="6.36839">
        <ele>229.6</ele>
        <time>2023-05-07T11:42:50Z</time>
      </trkpt>
      <trkpt lat="43.29749" lon="6.36838">
        <ele>228.8</ele>
        <time>2023-05-07T11:42:55Z</time>
      </trkpt>
      <trkpt lat="43.29755" lon="6.36837">
        <ele>228.5</ele>
        <time>2023-05-07T11:43:00Z</time>
      </trkpt>
      <trkpt lat="43.29759" lon="6.36833">
        <ele>227.7</ele>
        <time>2023-05-07T11:43:06Z</time>
      </trkpt>
      <trkpt lat="43.29763" lon="6.36828">
        <ele>227.6</ele>
        <time>2023-05-07T11:43:14Z</time>
      </trkpt>
      <trkpt lat="43.29768" lon="6.36825">
        <ele>227.4</ele>
        <time>2023-05-07T11:43:19Z</time>
      </trkpt>
      <trkpt lat="43.29772" lon="6.36821">
        <ele>227</ele>
        <time>2023-05-07T11:43:25Z</time>
      </trkpt>
      <trkpt lat="43.29777" lon="6.36821">
        <ele>226.6</ele>
        <time>2023-05-07T11:43:40Z</time>
      </trkpt>
      <trkpt lat="43.29784" lon="6.36822">
        <ele>226.2</ele>
        <time>2023-05-07T11:43:46Z</time>
      </trkpt>
      <trkpt lat="43.29791" lon="6.36823">
        <ele>225.9</ele>
        <time>2023-05-07T11:43:54Z</time>
      </trkpt>
      <trkpt lat="43.29796" lon="6.36823">
        <ele>225.6</ele>
        <time>2023-05-07T11:43:59Z</time>
      </trkpt>
      <trkpt lat="43.29801" lon="6.36823">
        <ele>225.3</ele>
        <time>2023-05-07T11:44:05Z</time>
      </trkpt>
      <trkpt lat="43.29807" lon="6.36823">
        <ele>224.8</ele>
        <time>2023-05-07T11:44:12Z</time>
      </trkpt>
      <trkpt lat="43.29812" lon="6.36822">
        <ele>224.2</ele>
        <time>2023-05-07T11:44:18Z</time>
      </trkpt>
      <trkpt lat="43.29818" lon="6.36823">
        <ele>223.8</ele>
        <time>2023-05-07T11:44:23Z</time>
      </trkpt>
      <trkpt lat="43.29824" lon="6.36823">
        <ele>223.4</ele>
        <time>2023-05-07T11:44:28Z</time>
      </trkpt>
      <trkpt lat="43.2983" lon="6.36822">
        <ele>222.5</ele>
        <time>2023-05-07T11:44:33Z</time>
      </trkpt>
      <trkpt lat="43.29835" lon="6.3682">
        <ele>221.7</ele>
        <time>2023-05-07T11:44:39Z</time>
      </trkpt>
      <trkpt lat="43.29841" lon="6.36818">
        <ele>221.2</ele>
        <time>2023-05-07T11:44:45Z</time>
      </trkpt>
      <trkpt lat="43.29846" lon="6.36815">
        <ele>220.8</ele>
        <time>2023-05-07T11:44:51Z</time>
      </trkpt>
      <trkpt lat="43.29851" lon="6.36814">
        <ele>220.9</ele>
        <time>2023-05-07T11:44:56Z</time>
      </trkpt>
      <trkpt lat="43.29856" lon="6.36813">
        <ele>221</ele>
        <time>2023-05-07T11:45:02Z</time>
      </trkpt>
      <trkpt lat="43.2986" lon="6.36809">
        <ele>220.5</ele>
        <time>2023-05-07T11:45:07Z</time>
      </trkpt>
      <trkpt lat="43.29864" lon="6.36805">
        <ele>219.8</ele>
        <time>2023-05-07T11:45:13Z</time>
      </trkpt>
      <trkpt lat="43.29867" lon="6.36799">
        <ele>218.2</ele>
        <time>2023-05-07T11:45:26Z</time>
      </trkpt>
      <trkpt lat="43.29866" lon="6.36797">
        <ele>217.7</ele>
        <time>2023-05-07T11:45:48Z</time>
      </trkpt>
      <trkpt lat="43.29864" lon="6.36793">
        <ele>216.8</ele>
        <time>2023-05-07T11:46:01Z</time>
      </trkpt>
      <trkpt lat="43.29857" lon="6.36795">
        <ele>217.2</ele>
        <time>2023-05-07T11:46:06Z</time>
      </trkpt>
      <trkpt lat="43.29849" lon="6.36796">
        <ele>217.3</ele>
        <time>2023-05-07T11:46:13Z</time>
      </trkpt>
      <trkpt lat="43.29842" lon="6.368">
        <ele>217.4</ele>
        <time>2023-05-07T11:46:22Z</time>
      </trkpt>
      <trkpt lat="43.29834" lon="6.36803">
        <ele>217.1</ele>
        <time>2023-05-07T11:46:32Z</time>
      </trkpt>
      <trkpt lat="43.29831" lon="6.36808">
        <ele>218</ele>
        <time>2023-05-07T11:46:51Z</time>
      </trkpt>
      <trkpt lat="43.29827" lon="6.36805">
        <ele>217.7</ele>
        <time>2023-05-07T11:47:08Z</time>
      </trkpt>
      <trkpt lat="43.29834" lon="6.36809">
        <ele>218.2</ele>
        <time>2023-05-07T11:47:29Z</time>
      </trkpt>
      <trkpt lat="43.2983" lon="6.36813">
        <ele>219.7</ele>
        <time>2023-05-07T11:48:01Z</time>
      </trkpt>
      <trkpt lat="43.2983" lon="6.36813">
        <ele>219.7</ele>
        <time>2023-05-07T11:48:22Z</time>
      </trkpt>
      <trkpt lat="43.29832" lon="6.36811">
        <ele>218.9</ele>
        <time>2023-05-07T11:48:42Z</time>
      </trkpt>
      <trkpt lat="43.29825" lon="6.36809">
        <ele>219</ele>
        <time>2023-05-07T11:48:58Z</time>
      </trkpt>
      <trkpt lat="43.29826" lon="6.36815">
        <ele>220.8</ele>
        <time>2023-05-07T11:49:15Z</time>
      </trkpt>
      <trkpt lat="43.29825" lon="6.3681">
        <ele>219.3</ele>
        <time>2023-05-07T11:49:35Z</time>
      </trkpt>
      <trkpt lat="43.29823" lon="6.36811">
        <ele>219.8</ele>
        <time>2023-05-07T11:50:00Z</time>
      </trkpt>
      <trkpt lat="43.2983" lon="6.36807">
        <ele>217.8</ele>
        <time>2023-05-07T11:50:33Z</time>
      </trkpt>
      <trkpt lat="43.29837" lon="6.36802">
        <ele>217.3</ele>
        <time>2023-05-07T11:50:47Z</time>
      </trkpt>
      <trkpt lat="43.29836" lon="6.36805">
        <ele>217.3</ele>
        <time>2023-05-07T11:51:12Z</time>
      </trkpt>
      <trkpt lat="43.29841" lon="6.36804">
        <ele>217.7</ele>
        <time>2023-05-07T11:51:34Z</time>
      </trkpt>
      <trkpt lat="43.29846" lon="6.36802">
        <ele>217.9</ele>
        <time>2023-05-07T11:51:43Z</time>
      </trkpt>
      <trkpt lat="43.2985" lon="6.368">
        <ele>218</ele>
        <time>2023-05-07T11:51:51Z</time>
      </trkpt>
      <trkpt lat="43.29856" lon="6.36799">
        <ele>218.1</ele>
        <time>2023-05-07T11:51:59Z</time>
      </trkpt>
      <trkpt lat="43.29861" lon="6.36798">
        <ele>218.1</ele>
        <time>2023-05-07T11:52:06Z</time>
      </trkpt>
      <trkpt lat="43.29867" lon="6.36803">
        <ele>219.2</ele>
        <time>2023-05-07T11:52:24Z</time>
      </trkpt>
      <trkpt lat="43.29866" lon="6.36801">
        <ele>218.7</ele>
        <time>2023-05-07T11:53:27Z</time>
      </trkpt>
      <trkpt lat="43.29873" lon="6.36807">
        <ele>219.8</ele>
        <time>2023-05-07T11:53:49Z</time>
      </trkpt>
      <trkpt lat="43.29877" lon="6.3681">
        <ele>220</ele>
        <time>2023-05-07T11:54:22Z</time>
      </trkpt>
      <trkpt lat="43.29882" lon="6.36815">
        <ele>220.2</ele>
        <time>2023-05-07T11:54:29Z</time>
      </trkpt>
      <trkpt lat="43.29886" lon="6.36819">
        <ele>220.2</ele>
        <time>2023-05-07T11:54:36Z</time>
      </trkpt>
      <trkpt lat="43.29893" lon="6.36825">
        <ele>220</ele>
        <time>2023-05-07T11:56:22Z</time>
      </trkpt>
      <trkpt lat="43.29898" lon="6.3683">
        <ele>219.8</ele>
        <time>2023-05-07T11:56:31Z</time>
      </trkpt>
      <trkpt lat="43.29902" lon="6.36834">
        <ele>219.7</ele>
        <time>2023-05-07T11:56:40Z</time>
      </trkpt>
      <trkpt lat="43.29908" lon="6.36837">
        <ele>219.7</ele>
        <time>2023-05-07T11:57:13Z</time>
      </trkpt>
      <trkpt lat="43.29911" lon="6.36837">
        <ele>219.3</ele>
        <time>2023-05-07T11:57:45Z</time>
      </trkpt>
      <trkpt lat="43.29916" lon="6.36839">
        <ele>219.1</ele>
        <time>2023-05-07T11:57:53Z</time>
      </trkpt>
      <trkpt lat="43.2992" lon="6.3684">
        <ele>218.8</ele>
        <time>2023-05-07T11:58:00Z</time>
      </trkpt>
      <trkpt lat="43.29925" lon="6.36841">
        <ele>218.3</ele>
        <time>2023-05-07T11:58:08Z</time>
      </trkpt>
      <trkpt lat="43.29929" lon="6.36841">
        <ele>217.8</ele>
        <time>2023-05-07T11:58:16Z</time>
      </trkpt>
      <trkpt lat="43.29934" lon="6.36842">
        <ele>217.4</ele>
        <time>2023-05-07T11:58:26Z</time>
      </trkpt>
      <trkpt lat="43.29938" lon="6.36843">
        <ele>216.9</ele>
        <time>2023-05-07T11:58:35Z</time>
      </trkpt>
      <trkpt lat="43.29944" lon="6.36848">
        <ele>216.6</ele>
        <time>2023-05-07T11:58:42Z</time>
      </trkpt>
      <trkpt lat="43.2995" lon="6.36853">
        <ele>216.4</ele>
        <time>2023-05-07T11:58:50Z</time>
      </trkpt>
      <trkpt lat="43.29956" lon="6.36857">
        <ele>216</ele>
        <time>2023-05-07T11:58:57Z</time>
      </trkpt>
      <trkpt lat="43.29961" lon="6.3686">
        <ele>215.5</ele>
        <time>2023-05-07T11:59:03Z</time>
      </trkpt>
      <trkpt lat="43.29967" lon="6.36864">
        <ele>215.1</ele>
        <time>2023-05-07T11:59:11Z</time>
      </trkpt>
      <trkpt lat="43.29972" lon="6.36867">
        <ele>214.7</ele>
        <time>2023-05-07T11:59:18Z</time>
      </trkpt>
      <trkpt lat="43.29977" lon="6.3687">
        <ele>214.1</ele>
        <time>2023-05-07T11:59:25Z</time>
      </trkpt>
      <trkpt lat="43.29982" lon="6.36873">
        <ele>213.4</ele>
        <time>2023-05-07T11:59:33Z</time>
      </trkpt>
      <trkpt lat="43.29989" lon="6.36879">
        <ele>212.3</ele>
        <time>2023-05-07T11:59:40Z</time>
      </trkpt>
      <trkpt lat="43.29996" lon="6.36885">
        <ele>210.9</ele>
        <time>2023-05-07T11:59:49Z</time>
      </trkpt>
      <trkpt lat="43.30001" lon="6.36891">
        <ele>210.2</ele>
        <time>2023-05-07T11:59:56Z</time>
      </trkpt>
      <trkpt lat="43.30005" lon="6.36897">
        <ele>209.9</ele>
        <time>2023-05-07T12:00:03Z</time>
      </trkpt>
      <trkpt lat="43.30009" lon="6.36903">
        <ele>209.8</ele>
        <time>2023-05-07T12:00:10Z</time>
      </trkpt>
      <trkpt lat="43.30013" lon="6.36909">
        <ele>209.7</ele>
        <time>2023-05-07T12:00:17Z</time>
      </trkpt>
      <trkpt lat="43.3002" lon="6.36918">
        <ele>209.5</ele>
        <time>2023-05-07T12:00:24Z</time>
      </trkpt>
      <trkpt lat="43.30026" lon="6.36926">
        <ele>208.6</ele>
        <time>2023-05-07T12:00:31Z</time>
      </trkpt>
      <trkpt lat="43.30031" lon="6.36934">
        <ele>207.5</ele>
        <time>2023-05-07T12:00:36Z</time>
      </trkpt>
      <trkpt lat="43.30036" lon="6.36941">
        <ele>206.5</ele>
        <time>2023-05-07T12:00:42Z</time>
      </trkpt>
      <trkpt lat="43.3004" lon="6.36945">
        <ele>205.6</ele>
        <time>2023-05-07T12:00:58Z</time>
      </trkpt>
      <trkpt lat="43.30043" lon="6.36954">
        <ele>205.4</ele>
        <time>2023-05-07T12:01:04Z</time>
      </trkpt>
      <trkpt lat="43.30046" lon="6.36962">
        <ele>205.1</ele>
        <time>2023-05-07T12:01:10Z</time>
      </trkpt>
      <trkpt lat="43.30049" lon="6.36969">
        <ele>205</ele>
        <time>2023-05-07T12:01:16Z</time>
      </trkpt>
      <trkpt lat="43.30051" lon="6.36976">
        <ele>204.6</ele>
        <time>2023-05-07T12:01:22Z</time>
      </trkpt>
      <trkpt lat="43.30056" lon="6.36982">
        <ele>203.4</ele>
        <time>2023-05-07T12:01:28Z</time>
      </trkpt>
      <trkpt lat="43.3006" lon="6.36987">
        <ele>202.6</ele>
        <time>2023-05-07T12:01:33Z</time>
      </trkpt>
      <trkpt lat="43.30064" lon="6.36992">
        <ele>202.1</ele>
        <time>2023-05-07T12:01:39Z</time>
      </trkpt>
      <trkpt lat="43.30068" lon="6.36997">
        <ele>201.9</ele>
        <time>2023-05-07T12:01:46Z</time>
      </trkpt>
      <trkpt lat="43.30071" lon="6.36998">
        <ele>201.5</ele>
        <time>2023-05-07T12:02:15Z</time>
      </trkpt>
      <trkpt lat="43.30076" lon="6.36999">
        <ele>200.9</ele>
        <time>2023-05-07T12:02:50Z</time>
      </trkpt>
      <trkpt lat="43.30077" lon="6.37002">
        <ele>201.2</ele>
        <time>2023-05-07T12:03:16Z</time>
      </trkpt>
      <trkpt lat="43.30082" lon="6.37005">
        <ele>200.9</ele>
        <time>2023-05-07T12:03:22Z</time>
      </trkpt>
      <trkpt lat="43.30087" lon="6.37008">
        <ele>200.7</ele>
        <time>2023-05-07T12:03:30Z</time>
      </trkpt>
      <trkpt lat="43.30092" lon="6.37011">
        <ele>200.4</ele>
        <time>2023-05-07T12:03:37Z</time>
      </trkpt>
      <trkpt lat="43.30097" lon="6.37014">
        <ele>200</ele>
        <time>2023-05-07T12:03:45Z</time>
      </trkpt>
      <trkpt lat="43.30102" lon="6.3702">
        <ele>199.8</ele>
        <time>2023-05-07T12:03:54Z</time>
      </trkpt>
      <trkpt lat="43.30107" lon="6.37025">
        <ele>199.5</ele>
        <time>2023-05-07T12:04:04Z</time>
      </trkpt>
      <trkpt lat="43.30111" lon="6.37033">
        <ele>199.6</ele>
        <time>2023-05-07T12:04:24Z</time>
      </trkpt>
      <trkpt lat="43.30114" lon="6.37038">
        <ele>199.7</ele>
        <time>2023-05-07T12:04:27Z</time>
      </trkpt>
      <trkpt lat="43.30117" lon="6.37044">
        <ele>199.9</ele>
        <time>2023-05-07T12:04:31Z</time>
      </trkpt>
      <trkpt lat="43.3012" lon="6.37049">
        <ele>200</ele>
        <time>2023-05-07T12:04:35Z</time>
      </trkpt>
      <trkpt lat="43.30123" lon="6.37054">
        <ele>200.1</ele>
        <time>2023-05-07T12:04:39Z</time>
      </trkpt>
      <trkpt lat="43.30128" lon="6.37056">
        <ele>199.7</ele>
        <time>2023-05-07T12:04:42Z</time>
      </trkpt>
      <trkpt lat="43.30132" lon="6.37059">
        <ele>199.4</ele>
        <time>2023-05-07T12:04:45Z</time>
      </trkpt>
      <trkpt lat="43.30137" lon="6.37061">
        <ele>199.2</ele>
        <time>2023-05-07T12:04:48Z</time>
      </trkpt>
      <trkpt lat="43.30141" lon="6.37063">
        <ele>199.1</ele>
        <time>2023-05-07T12:04:51Z</time>
      </trkpt>
      <trkpt lat="43.30148" lon="6.37067">
        <ele>199.1</ele>
        <time>2023-05-07T12:04:57Z</time>
      </trkpt>
      <trkpt lat="43.30154" lon="6.37071">
        <ele>198.8</ele>
        <time>2023-05-07T12:05:03Z</time>
      </trkpt>
      <trkpt lat="43.3016" lon="6.37075">
        <ele>198.5</ele>
        <time>2023-05-07T12:05:07Z</time>
      </trkpt>
      <trkpt lat="43.30165" lon="6.37079">
        <ele>198</ele>
        <time>2023-05-07T12:05:12Z</time>
      </trkpt>
      <trkpt lat="43.30172" lon="6.37085">
        <ele>197.6</ele>
        <time>2023-05-07T12:05:25Z</time>
      </trkpt>
      <trkpt lat="43.30177" lon="6.37088">
        <ele>197.4</ele>
        <time>2023-05-07T12:05:37Z</time>
      </trkpt>
      <trkpt lat="43.30181" lon="6.3709">
        <ele>197.1</ele>
        <time>2023-05-07T12:05:48Z</time>
      </trkpt>
      <trkpt lat="43.30182" lon="6.37088">
        <ele>196.6</ele>
        <time>2023-05-07T12:06:08Z</time>
      </trkpt>
      <trkpt lat="43.30181" lon="6.3709">
        <ele>197.1</ele>
        <time>2023-05-07T12:06:33Z</time>
      </trkpt>
      <trkpt lat="43.30188" lon="6.37094">
        <ele>196.5</ele>
        <time>2023-05-07T12:06:39Z</time>
      </trkpt>
      <trkpt lat="43.30194" lon="6.37097">
        <ele>195.6</ele>
        <time>2023-05-07T12:06:45Z</time>
      </trkpt>
      <trkpt lat="43.30199" lon="6.37099">
        <ele>195.1</ele>
        <time>2023-05-07T12:06:55Z</time>
      </trkpt>
      <trkpt lat="43.30203" lon="6.371">
        <ele>194.7</ele>
        <time>2023-05-07T12:07:03Z</time>
      </trkpt>
      <trkpt lat="43.30208" lon="6.37103">
        <ele>194.3</ele>
        <time>2023-05-07T12:07:11Z</time>
      </trkpt>
      <trkpt lat="43.30213" lon="6.37105">
        <ele>193.8</ele>
        <time>2023-05-07T12:07:19Z</time>
      </trkpt>
      <trkpt lat="43.30216" lon="6.37109">
        <ele>193.7</ele>
        <time>2023-05-07T12:07:39Z</time>
      </trkpt>
      <trkpt lat="43.30222" lon="6.37114">
        <ele>193.6</ele>
        <time>2023-05-07T12:07:58Z</time>
      </trkpt>
      <trkpt lat="43.30226" lon="6.37112">
        <ele>192.9</ele>
        <time>2023-05-07T12:08:23Z</time>
      </trkpt>
      <trkpt lat="43.30231" lon="6.37118">
        <ele>193.6</ele>
        <time>2023-05-07T12:08:40Z</time>
      </trkpt>
      <trkpt lat="43.30239" lon="6.37121">
        <ele>193.6</ele>
        <time>2023-05-07T12:08:46Z</time>
      </trkpt>
      <trkpt lat="43.30247" lon="6.37124">
        <ele>193.5</ele>
        <time>2023-05-07T12:08:53Z</time>
      </trkpt>
      <trkpt lat="43.30252" lon="6.37126">
        <ele>193.4</ele>
        <time>2023-05-07T12:08:58Z</time>
      </trkpt>
      <trkpt lat="43.30257" lon="6.37127">
        <ele>193.2</ele>
        <time>2023-05-07T12:09:04Z</time>
      </trkpt>
      <trkpt lat="43.30262" lon="6.37129">
        <ele>193.1</ele>
        <time>2023-05-07T12:09:09Z</time>
      </trkpt>
      <trkpt lat="43.30267" lon="6.3713">
        <ele>193</ele>
        <time>2023-05-07T12:09:15Z</time>
      </trkpt>
      <trkpt lat="43.30272" lon="6.3713">
        <ele>192.5</ele>
        <time>2023-05-07T12:09:20Z</time>
      </trkpt>
      <trkpt lat="43.30277" lon="6.37129">
        <ele>191.9</ele>
        <time>2023-05-07T12:09:27Z</time>
      </trkpt>
      <trkpt lat="43.3028" lon="6.37127">
        <ele>191.2</ele>
        <time>2023-05-07T12:09:43Z</time>
      </trkpt>
      <trkpt lat="43.30284" lon="6.37124">
        <ele>190.1</ele>
        <time>2023-05-07T12:10:31Z</time>
      </trkpt>
      <trkpt lat="43.3029" lon="6.37129">
        <ele>190.3</ele>
        <time>2023-05-07T12:12:32Z</time>
      </trkpt>
      <trkpt lat="43.30287" lon="6.37123">
        <ele>189.7</ele>
        <time>2023-05-07T12:12:40Z</time>
      </trkpt>
      <trkpt lat="43.30284" lon="6.37122">
        <ele>189.8</ele>
        <time>2023-05-07T12:12:46Z</time>
      </trkpt>
      <trkpt lat="43.30284" lon="6.37118">
        <ele>189</ele>
        <time>2023-05-07T12:12:51Z</time>
      </trkpt>
      <trkpt lat="43.30282" lon="6.37115">
        <ele>188.6</ele>
        <time>2023-05-07T12:12:58Z</time>
      </trkpt>
      <trkpt lat="43.30282" lon="6.37108">
        <ele>187.5</ele>
        <time>2023-05-07T12:13:11Z</time>
      </trkpt>
      <trkpt lat="43.30283" lon="6.37104">
        <ele>187</ele>
        <time>2023-05-07T12:13:19Z</time>
      </trkpt>
      <trkpt lat="43.30285" lon="6.37106">
        <ele>187.1</ele>
        <time>2023-05-07T12:13:20Z</time>
      </trkpt>
      <trkpt lat="43.30284" lon="6.3711">
        <ele>187.6</ele>
        <time>2023-05-07T12:13:23Z</time>
      </trkpt>
      <trkpt lat="43.30283" lon="6.37113">
        <ele>188.2</ele>
        <time>2023-05-07T12:13:24Z</time>
      </trkpt>
      <trkpt lat="43.30285" lon="6.37121">
        <ele>189.5</ele>
        <time>2023-05-07T12:13:29Z</time>
      </trkpt>
      <trkpt lat="43.30289" lon="6.37125">
        <ele>189.8</ele>
        <time>2023-05-07T12:13:33Z</time>
      </trkpt>
      <trkpt lat="43.30291" lon="6.37127">
        <ele>189.9</ele>
        <time>2023-05-07T12:13:37Z</time>
      </trkpt>
      <trkpt lat="43.30296" lon="6.37126">
        <ele>189.2</ele>
        <time>2023-05-07T12:13:46Z</time>
      </trkpt>
      <trkpt lat="43.30295" lon="6.37131">
        <ele>189.9</ele>
        <time>2023-05-07T12:13:53Z</time>
      </trkpt>
      <trkpt lat="43.30298" lon="6.37134">
        <ele>189.8</ele>
        <time>2023-05-07T12:16:13Z</time>
      </trkpt>
      <trkpt lat="43.30303" lon="6.37136">
        <ele>189.2</ele>
        <time>2023-05-07T12:16:33Z</time>
      </trkpt>
      <trkpt lat="43.30306" lon="6.37142">
        <ele>188.9</ele>
        <time>2023-05-07T12:16:39Z</time>
      </trkpt>
      <trkpt lat="43.30309" lon="6.37147">
        <ele>188.3</ele>
        <time>2023-05-07T12:16:45Z</time>
      </trkpt>
      <trkpt lat="43.30312" lon="6.37156">
        <ele>187.8</ele>
        <time>2023-05-07T12:16:51Z</time>
      </trkpt>
      <trkpt lat="43.30314" lon="6.37164">
        <ele>187.5</ele>
        <time>2023-05-07T12:16:57Z</time>
      </trkpt>
      <trkpt lat="43.30316" lon="6.37172">
        <ele>187.5</ele>
        <time>2023-05-07T12:17:04Z</time>
      </trkpt>
      <trkpt lat="43.30318" lon="6.37179">
        <ele>187.7</ele>
        <time>2023-05-07T12:17:11Z</time>
      </trkpt>
      <trkpt lat="43.30322" lon="6.37184">
        <ele>187.2</ele>
        <time>2023-05-07T12:17:17Z</time>
      </trkpt>
      <trkpt lat="43.30326" lon="6.37189">
        <ele>186.5</ele>
        <time>2023-05-07T12:17:25Z</time>
      </trkpt>
      <trkpt lat="43.30331" lon="6.37193">
        <ele>185.6</ele>
        <time>2023-05-07T12:17:35Z</time>
      </trkpt>
      <trkpt lat="43.30335" lon="6.37196">
        <ele>185.1</ele>
        <time>2023-05-07T12:17:43Z</time>
      </trkpt>
      <trkpt lat="43.30341" lon="6.37202">
        <ele>185.4</ele>
        <time>2023-05-07T12:17:49Z</time>
      </trkpt>
      <trkpt lat="43.30347" lon="6.37207">
        <ele>185.4</ele>
        <time>2023-05-07T12:17:56Z</time>
      </trkpt>
      <trkpt lat="43.30353" lon="6.37213">
        <ele>185.1</ele>
        <time>2023-05-07T12:18:03Z</time>
      </trkpt>
      <trkpt lat="43.30358" lon="6.37218">
        <ele>184.5</ele>
        <time>2023-05-07T12:18:10Z</time>
      </trkpt>
      <trkpt lat="43.30365" lon="6.37221">
        <ele>183.6</ele>
        <time>2023-05-07T12:18:18Z</time>
      </trkpt>
      <trkpt lat="43.30371" lon="6.37223">
        <ele>183</ele>
        <time>2023-05-07T12:18:26Z</time>
      </trkpt>
      <trkpt lat="43.30378" lon="6.37226">
        <ele>182.5</ele>
        <time>2023-05-07T12:18:33Z</time>
      </trkpt>
      <trkpt lat="43.30384" lon="6.37228">
        <ele>182</ele>
        <time>2023-05-07T12:18:39Z</time>
      </trkpt>
      <trkpt lat="43.30391" lon="6.37229">
        <ele>181.4</ele>
        <time>2023-05-07T12:18:45Z</time>
      </trkpt>
      <trkpt lat="43.30398" lon="6.3723">
        <ele>181</ele>
        <time>2023-05-07T12:18:51Z</time>
      </trkpt>
      <trkpt lat="43.30405" lon="6.37228">
        <ele>180.6</ele>
        <time>2023-05-07T12:18:56Z</time>
      </trkpt>
      <trkpt lat="43.30412" lon="6.37226">
        <ele>180.2</ele>
        <time>2023-05-07T12:19:03Z</time>
      </trkpt>
      <trkpt lat="43.30417" lon="6.37228">
        <ele>180</ele>
        <time>2023-05-07T12:19:11Z</time>
      </trkpt>
      <trkpt lat="43.30421" lon="6.37229">
        <ele>179.3</ele>
        <time>2023-05-07T12:19:18Z</time>
      </trkpt>
      <trkpt lat="43.30428" lon="6.37234">
        <ele>178.1</ele>
        <time>2023-05-07T12:19:25Z</time>
      </trkpt>
      <trkpt lat="43.30435" lon="6.37239">
        <ele>177.1</ele>
        <time>2023-05-07T12:19:32Z</time>
      </trkpt>
      <trkpt lat="43.30443" lon="6.37243">
        <ele>176</ele>
        <time>2023-05-07T12:19:37Z</time>
      </trkpt>
      <trkpt lat="43.3045" lon="6.37247">
        <ele>176</ele>
        <time>2023-05-07T12:19:43Z</time>
      </trkpt>
      <trkpt lat="43.30456" lon="6.37252">
        <ele>176</ele>
        <time>2023-05-07T12:19:49Z</time>
      </trkpt>
      <trkpt lat="43.30461" lon="6.37256">
        <ele>175.8</ele>
        <time>2023-05-07T12:19:55Z</time>
      </trkpt>
      <trkpt lat="43.30466" lon="6.37262">
        <ele>175.2</ele>
        <time>2023-05-07T12:20:00Z</time>
      </trkpt>
      <trkpt lat="43.3047" lon="6.37268">
        <ele>174.3</ele>
        <time>2023-05-07T12:20:06Z</time>
      </trkpt>
      <trkpt lat="43.30478" lon="6.37268">
        <ele>174.3</ele>
        <time>2023-05-07T12:20:18Z</time>
      </trkpt>
      <trkpt lat="43.30484" lon="6.37267">
        <ele>174.7</ele>
        <time>2023-05-07T12:20:25Z</time>
      </trkpt>
      <trkpt lat="43.30489" lon="6.37266">
        <ele>175</ele>
        <time>2023-05-07T12:20:32Z</time>
      </trkpt>
      <trkpt lat="43.30496" lon="6.37265">
        <ele>175.3</ele>
        <time>2023-05-07T12:20:38Z</time>
      </trkpt>
      <trkpt lat="43.30502" lon="6.37263">
        <ele>175.6</ele>
        <time>2023-05-07T12:20:45Z</time>
      </trkpt>
      <trkpt lat="43.30508" lon="6.37262">
        <ele>175.7</ele>
        <time>2023-05-07T12:20:51Z</time>
      </trkpt>
      <trkpt lat="43.30513" lon="6.3726">
        <ele>175.9</ele>
        <time>2023-05-07T12:20:57Z</time>
      </trkpt>
      <trkpt lat="43.3052" lon="6.37256">
        <ele>176.3</ele>
        <time>2023-05-07T12:21:02Z</time>
      </trkpt>
      <trkpt lat="43.30526" lon="6.37252">
        <ele>176.8</ele>
        <time>2023-05-07T12:21:08Z</time>
      </trkpt>
      <trkpt lat="43.30532" lon="6.37251">
        <ele>177</ele>
        <time>2023-05-07T12:21:13Z</time>
      </trkpt>
      <trkpt lat="43.30538" lon="6.37249">
        <ele>177.1</ele>
        <time>2023-05-07T12:21:19Z</time>
      </trkpt>
      <trkpt lat="43.30543" lon="6.37249">
        <ele>177.1</ele>
        <time>2023-05-07T12:21:24Z</time>
      </trkpt>
      <trkpt lat="43.30548" lon="6.37249">
        <ele>177.2</ele>
        <time>2023-05-07T12:21:31Z</time>
      </trkpt>
      <trkpt lat="43.30554" lon="6.37248">
        <ele>177.4</ele>
        <time>2023-05-07T12:21:37Z</time>
      </trkpt>
      <trkpt lat="43.30559" lon="6.37246">
        <ele>178.1</ele>
        <time>2023-05-07T12:21:44Z</time>
      </trkpt>
      <trkpt lat="43.30565" lon="6.37248">
        <ele>178.5</ele>
        <time>2023-05-07T12:21:51Z</time>
      </trkpt>
      <trkpt lat="43.30571" lon="6.37249">
        <ele>178.9</ele>
        <time>2023-05-07T12:21:58Z</time>
      </trkpt>
      <trkpt lat="43.30579" lon="6.37254">
        <ele>178.9</ele>
        <time>2023-05-07T12:22:04Z</time>
      </trkpt>
      <trkpt lat="43.30586" lon="6.37258">
        <ele>178.9</ele>
        <time>2023-05-07T12:22:10Z</time>
      </trkpt>
      <trkpt lat="43.30593" lon="6.37261">
        <ele>179.1</ele>
        <time>2023-05-07T12:22:16Z</time>
      </trkpt>
      <trkpt lat="43.30599" lon="6.37263">
        <ele>179.1</ele>
        <time>2023-05-07T12:22:22Z</time>
      </trkpt>
      <trkpt lat="43.30606" lon="6.37263">
        <ele>179.9</ele>
        <time>2023-05-07T12:22:28Z</time>
      </trkpt>
      <trkpt lat="43.30613" lon="6.37262">
        <ele>180.8</ele>
        <time>2023-05-07T12:22:36Z</time>
      </trkpt>
      <trkpt lat="43.30621" lon="6.37264">
        <ele>181.3</ele>
        <time>2023-05-07T12:22:42Z</time>
      </trkpt>
      <trkpt lat="43.30628" lon="6.37266">
        <ele>181.9</ele>
        <time>2023-05-07T12:22:49Z</time>
      </trkpt>
      <trkpt lat="43.30633" lon="6.3727">
        <ele>181.9</ele>
        <time>2023-05-07T12:22:55Z</time>
      </trkpt>
      <trkpt lat="43.30638" lon="6.37273">
        <ele>181.9</ele>
        <time>2023-05-07T12:23:02Z</time>
      </trkpt>
      <trkpt lat="43.30645" lon="6.37271">
        <ele>182.7</ele>
        <time>2023-05-07T12:23:07Z</time>
      </trkpt>
      <trkpt lat="43.30652" lon="6.37268">
        <ele>183.2</ele>
        <time>2023-05-07T12:23:13Z</time>
      </trkpt>
      <trkpt lat="43.30657" lon="6.37265">
        <ele>183.6</ele>
        <time>2023-05-07T12:23:18Z</time>
      </trkpt>
      <trkpt lat="43.30662" lon="6.37261">
        <ele>183.8</ele>
        <time>2023-05-07T12:23:25Z</time>
      </trkpt>
      <trkpt lat="43.30668" lon="6.37256">
        <ele>184</ele>
        <time>2023-05-07T12:23:32Z</time>
      </trkpt>
      <trkpt lat="43.30673" lon="6.3725">
        <ele>185.4</ele>
        <time>2023-05-07T12:23:39Z</time>
      </trkpt>
      <trkpt lat="43.30678" lon="6.37244">
        <ele>187.1</ele>
        <time>2023-05-07T12:23:45Z</time>
      </trkpt>
      <trkpt lat="43.30683" lon="6.37237">
        <ele>188.5</ele>
        <time>2023-05-07T12:23:53Z</time>
      </trkpt>
      <trkpt lat="43.30689" lon="6.37236">
        <ele>189.3</ele>
        <time>2023-05-07T12:23:58Z</time>
      </trkpt>
      <trkpt lat="43.30695" lon="6.37235">
        <ele>190.1</ele>
        <time>2023-05-07T12:24:05Z</time>
      </trkpt>
      <trkpt lat="43.307" lon="6.37237">
        <ele>191</ele>
        <time>2023-05-07T12:24:12Z</time>
      </trkpt>
      <trkpt lat="43.30704" lon="6.37238">
        <ele>191.9</ele>
        <time>2023-05-07T12:24:19Z</time>
      </trkpt>
      <trkpt lat="43.30709" lon="6.37236">
        <ele>192.8</ele>
        <time>2023-05-07T12:24:26Z</time>
      </trkpt>
      <trkpt lat="43.30713" lon="6.37233">
        <ele>193.7</ele>
        <time>2023-05-07T12:24:34Z</time>
      </trkpt>
      <trkpt lat="43.30718" lon="6.37235">
        <ele>194.6</ele>
        <time>2023-05-07T12:24:39Z</time>
      </trkpt>
      <trkpt lat="43.30722" lon="6.37237">
        <ele>195.4</ele>
        <time>2023-05-07T12:24:44Z</time>
      </trkpt>
      <trkpt lat="43.30728" lon="6.37241">
        <ele>195</ele>
        <time>2023-05-07T12:24:51Z</time>
      </trkpt>
      <trkpt lat="43.30734" lon="6.37245">
        <ele>194.2</ele>
        <time>2023-05-07T12:24:59Z</time>
      </trkpt>
      <trkpt lat="43.30742" lon="6.37246">
        <ele>193.5</ele>
        <time>2023-05-07T12:25:06Z</time>
      </trkpt>
      <trkpt lat="43.3075" lon="6.37246">
        <ele>192.7</ele>
        <time>2023-05-07T12:25:13Z</time>
      </trkpt>
      <trkpt lat="43.30756" lon="6.37243">
        <ele>192.2</ele>
        <time>2023-05-07T12:25:19Z</time>
      </trkpt>
      <trkpt lat="43.30761" lon="6.3724">
        <ele>191.7</ele>
        <time>2023-05-07T12:25:25Z</time>
      </trkpt>
      <trkpt lat="43.30767" lon="6.37237">
        <ele>191.4</ele>
        <time>2023-05-07T12:25:29Z</time>
      </trkpt>
      <trkpt lat="43.30773" lon="6.37233">
        <ele>191.1</ele>
        <time>2023-05-07T12:25:35Z</time>
      </trkpt>
      <trkpt lat="43.30779" lon="6.37232">
        <ele>190.4</ele>
        <time>2023-05-07T12:25:39Z</time>
      </trkpt>
      <trkpt lat="43.30785" lon="6.3723">
        <ele>189.6</ele>
        <time>2023-05-07T12:25:44Z</time>
      </trkpt>
      <trkpt lat="43.3079" lon="6.37228">
        <ele>189.4</ele>
        <time>2023-05-07T12:25:49Z</time>
      </trkpt>
      <trkpt lat="43.30794" lon="6.37225">
        <ele>189.3</ele>
        <time>2023-05-07T12:25:54Z</time>
      </trkpt>
      <trkpt lat="43.308" lon="6.37223">
        <ele>188.8</ele>
        <time>2023-05-07T12:25:59Z</time>
      </trkpt>
      <trkpt lat="43.30806" lon="6.37221">
        <ele>188.3</ele>
        <time>2023-05-07T12:26:05Z</time>
      </trkpt>
      <trkpt lat="43.30812" lon="6.37218">
        <ele>188.8</ele>
        <time>2023-05-07T12:26:10Z</time>
      </trkpt>
      <trkpt lat="43.30818" lon="6.37214">
        <ele>189.2</ele>
        <time>2023-05-07T12:26:16Z</time>
      </trkpt>
      <trkpt lat="43.30824" lon="6.37213">
        <ele>188.9</ele>
        <time>2023-05-07T12:26:21Z</time>
      </trkpt>
      <trkpt lat="43.3083" lon="6.37211">
        <ele>188.6</ele>
        <time>2023-05-07T12:26:27Z</time>
      </trkpt>
      <trkpt lat="43.30836" lon="6.3721">
        <ele>188.3</ele>
        <time>2023-05-07T12:26:32Z</time>
      </trkpt>
      <trkpt lat="43.30841" lon="6.37208">
        <ele>187.7</ele>
        <time>2023-05-07T12:26:37Z</time>
      </trkpt>
      <trkpt lat="43.30846" lon="6.37206">
        <ele>187.4</ele>
        <time>2023-05-07T12:26:41Z</time>
      </trkpt>
      <trkpt lat="43.30851" lon="6.37203">
        <ele>187.1</ele>
        <time>2023-05-07T12:26:47Z</time>
      </trkpt>
      <trkpt lat="43.30857" lon="6.37202">
        <ele>186.3</ele>
        <time>2023-05-07T12:26:52Z</time>
      </trkpt>
      <trkpt lat="43.30862" lon="6.37201">
        <ele>185.4</ele>
        <time>2023-05-07T12:26:58Z</time>
      </trkpt>
      <trkpt lat="43.30868" lon="6.372">
        <ele>184.6</ele>
        <time>2023-05-07T12:27:02Z</time>
      </trkpt>
      <trkpt lat="43.30873" lon="6.37198">
        <ele>183.9</ele>
        <time>2023-05-07T12:27:07Z</time>
      </trkpt>
      <trkpt lat="43.30878" lon="6.37197">
        <ele>183.4</ele>
        <time>2023-05-07T12:27:10Z</time>
      </trkpt>
      <trkpt lat="43.30883" lon="6.37195">
        <ele>182.9</ele>
        <time>2023-05-07T12:27:15Z</time>
      </trkpt>
      <trkpt lat="43.30888" lon="6.37194">
        <ele>182.4</ele>
        <time>2023-05-07T12:27:19Z</time>
      </trkpt>
      <trkpt lat="43.30892" lon="6.37193">
        <ele>181.8</ele>
        <time>2023-05-07T12:27:23Z</time>
      </trkpt>
      <trkpt lat="43.30897" lon="6.3719">
        <ele>181.7</ele>
        <time>2023-05-07T12:27:27Z</time>
      </trkpt>
      <trkpt lat="43.30902" lon="6.37186">
        <ele>181.3</ele>
        <time>2023-05-07T12:27:33Z</time>
      </trkpt>
      <trkpt lat="43.30906" lon="6.37181">
        <ele>181.5</ele>
        <time>2023-05-07T12:27:37Z</time>
      </trkpt>
      <trkpt lat="43.3091" lon="6.37176">
        <ele>181.5</ele>
        <time>2023-05-07T12:27:42Z</time>
      </trkpt>
      <trkpt lat="43.30914" lon="6.37171">
        <ele>181.1</ele>
        <time>2023-05-07T12:27:46Z</time>
      </trkpt>
      <trkpt lat="43.30918" lon="6.37166">
        <ele>181.2</ele>
        <time>2023-05-07T12:27:51Z</time>
      </trkpt>
      <trkpt lat="43.30923" lon="6.37163">
        <ele>182.2</ele>
        <time>2023-05-07T12:27:55Z</time>
      </trkpt>
      <trkpt lat="43.30928" lon="6.3716">
        <ele>183.1</ele>
        <time>2023-05-07T12:28:00Z</time>
      </trkpt>
      <trkpt lat="43.30934" lon="6.37161">
        <ele>182.5</ele>
        <time>2023-05-07T12:28:05Z</time>
      </trkpt>
      <trkpt lat="43.30939" lon="6.37162">
        <ele>181.9</ele>
        <time>2023-05-07T12:28:11Z</time>
      </trkpt>
      <trkpt lat="43.30947" lon="6.37165">
        <ele>181</ele>
        <time>2023-05-07T12:28:17Z</time>
      </trkpt>
      <trkpt lat="43.30954" lon="6.37167">
        <ele>180.9</ele>
        <time>2023-05-07T12:28:23Z</time>
      </trkpt>
      <trkpt lat="43.30961" lon="6.37169">
        <ele>181.1</ele>
        <time>2023-05-07T12:28:28Z</time>
      </trkpt>
      <trkpt lat="43.30967" lon="6.37171">
        <ele>181.3</ele>
        <time>2023-05-07T12:28:34Z</time>
      </trkpt>
      <trkpt lat="43.30973" lon="6.37173">
        <ele>181.6</ele>
        <time>2023-05-07T12:28:40Z</time>
      </trkpt>
      <trkpt lat="43.30978" lon="6.37174">
        <ele>182.3</ele>
        <time>2023-05-07T12:28:45Z</time>
      </trkpt>
      <trkpt lat="43.30986" lon="6.37178">
        <ele>183</ele>
        <time>2023-05-07T12:28:50Z</time>
      </trkpt>
      <trkpt lat="43.30993" lon="6.37181">
        <ele>183.5</ele>
        <time>2023-05-07T12:28:56Z</time>
      </trkpt>
      <trkpt lat="43.30999" lon="6.37185">
        <ele>183.5</ele>
        <time>2023-05-07T12:29:01Z</time>
      </trkpt>
      <trkpt lat="43.31005" lon="6.37189">
        <ele>183.2</ele>
        <time>2023-05-07T12:29:07Z</time>
      </trkpt>
      <trkpt lat="43.3101" lon="6.37193">
        <ele>182.8</ele>
        <time>2023-05-07T12:29:13Z</time>
      </trkpt>
      <trkpt lat="43.31015" lon="6.37197">
        <ele>182.8</ele>
        <time>2023-05-07T12:29:19Z</time>
      </trkpt>
      <trkpt lat="43.31022" lon="6.37201">
        <ele>183.3</ele>
        <time>2023-05-07T12:29:25Z</time>
      </trkpt>
      <trkpt lat="43.31028" lon="6.37205">
        <ele>183.9</ele>
        <time>2023-05-07T12:29:31Z</time>
      </trkpt>
      <trkpt lat="43.31034" lon="6.37208">
        <ele>184.4</ele>
        <time>2023-05-07T12:29:36Z</time>
      </trkpt>
      <trkpt lat="43.3104" lon="6.3721">
        <ele>184.9</ele>
        <time>2023-05-07T12:29:42Z</time>
      </trkpt>
      <trkpt lat="43.31039" lon="6.37215">
        <ele>184.5</ele>
        <time>2023-05-07T12:29:58Z</time>
      </trkpt>
      <trkpt lat="43.31046" lon="6.37213">
        <ele>185.6</ele>
        <time>2023-05-07T12:30:30Z</time>
      </trkpt>
      <trkpt lat="43.31047" lon="6.37216">
        <ele>185.7</ele>
        <time>2023-05-07T12:30:51Z</time>
      </trkpt>
      <trkpt lat="43.31044" lon="6.37227">
        <ele>184.6</ele>
        <time>2023-05-07T12:31:08Z</time>
      </trkpt>
      <trkpt lat="43.31043" lon="6.37237">
        <ele>183.7</ele>
        <time>2023-05-07T12:31:31Z</time>
      </trkpt>
      <trkpt lat="43.3104" lon="6.37229">
        <ele>183.7</ele>
        <time>2023-05-07T12:31:46Z</time>
      </trkpt>
      <trkpt lat="43.31042" lon="6.37221">
        <ele>184.5</ele>
        <time>2023-05-07T12:31:54Z</time>
      </trkpt>
      <trkpt lat="43.31043" lon="6.37213">
        <ele>185.2</ele>
        <time>2023-05-07T12:32:02Z</time>
      </trkpt>
      <trkpt lat="43.31044" lon="6.37212">
        <ele>185.4</ele>
        <time>2023-05-07T12:32:19Z</time>
      </trkpt>
      <trkpt lat="43.31049" lon="6.3722">
        <ele>185.9</ele>
        <time>2023-05-07T12:33:02Z</time>
      </trkpt>
      <trkpt lat="43.3105" lon="6.37227">
        <ele>185.8</ele>
        <time>2023-05-07T12:33:11Z</time>
      </trkpt>
      <trkpt lat="43.31051" lon="6.37233">
        <ele>185.7</ele>
        <time>2023-05-07T12:33:19Z</time>
      </trkpt>
      <trkpt lat="43.31048" lon="6.37242">
        <ele>184.5</ele>
        <time>2023-05-07T12:33:40Z</time>
      </trkpt>
      <trkpt lat="43.31055" lon="6.37241">
        <ele>186.2</ele>
        <time>2023-05-07T12:33:53Z</time>
      </trkpt>
      <trkpt lat="43.31059" lon="6.37239">
        <ele>186.4</ele>
        <time>2023-05-07T12:34:18Z</time>
      </trkpt>
      <trkpt lat="43.31062" lon="6.37242">
        <ele>186.3</ele>
        <time>2023-05-07T12:34:46Z</time>
      </trkpt>
      <trkpt lat="43.31065" lon="6.37248">
        <ele>186.3</ele>
        <time>2023-05-07T12:34:53Z</time>
      </trkpt>
      <trkpt lat="43.31068" lon="6.37253">
        <ele>186.1</ele>
        <time>2023-05-07T12:35:01Z</time>
      </trkpt>
      <trkpt lat="43.31074" lon="6.37246">
        <ele>186.5</ele>
        <time>2023-05-07T12:35:17Z</time>
      </trkpt>
      <trkpt lat="43.31071" lon="6.37237">
        <ele>186.2</ele>
        <time>2023-05-07T12:35:36Z</time>
      </trkpt>
      <trkpt lat="43.31076" lon="6.37241">
        <ele>186.3</ele>
        <time>2023-05-07T12:35:42Z</time>
      </trkpt>
      <trkpt lat="43.3108" lon="6.37245">
        <ele>186.6</ele>
        <time>2023-05-07T12:35:49Z</time>
      </trkpt>
      <trkpt lat="43.31079" lon="6.37234">
        <ele>186</ele>
        <time>2023-05-07T12:36:08Z</time>
      </trkpt>
      <trkpt lat="43.31079" lon="6.37226">
        <ele>185.5</ele>
        <time>2023-05-07T12:36:14Z</time>
      </trkpt>
      <trkpt lat="43.31078" lon="6.37218">
        <ele>185.4</ele>
        <time>2023-05-07T12:36:21Z</time>
      </trkpt>
      <trkpt lat="43.31076" lon="6.37218">
        <ele>185.5</ele>
        <time>2023-05-07T12:36:44Z</time>
      </trkpt>
      <trkpt lat="43.31079" lon="6.37213">
        <ele>185.3</ele>
        <time>2023-05-07T12:36:50Z</time>
      </trkpt>
      <trkpt lat="43.31082" lon="6.37208">
        <ele>185.1</ele>
        <time>2023-05-07T12:36:56Z</time>
      </trkpt>
      <trkpt lat="43.31079" lon="6.37201">
        <ele>185.3</ele>
        <time>2023-05-07T12:37:06Z</time>
      </trkpt>
      <trkpt lat="43.31076" lon="6.37194">
        <ele>185.6</ele>
        <time>2023-05-07T12:37:17Z</time>
      </trkpt>
      <trkpt lat="43.31084" lon="6.37189">
        <ele>185.8</ele>
        <time>2023-05-07T12:37:33Z</time>
      </trkpt>
      <trkpt lat="43.3109" lon="6.37189">
        <ele>186.2</ele>
        <time>2023-05-07T12:37:41Z</time>
      </trkpt>
      <trkpt lat="43.31095" lon="6.37188">
        <ele>186.5</ele>
        <time>2023-05-07T12:37:48Z</time>
      </trkpt>
      <trkpt lat="43.31102" lon="6.3719">
        <ele>186.5</ele>
        <time>2023-05-07T12:37:54Z</time>
      </trkpt>
      <trkpt lat="43.31108" lon="6.37192">
        <ele>186.4</ele>
        <time>2023-05-07T12:38:00Z</time>
      </trkpt>
      <trkpt lat="43.31114" lon="6.37196">
        <ele>185.9</ele>
        <time>2023-05-07T12:38:07Z</time>
      </trkpt>
      <trkpt lat="43.3112" lon="6.37199">
        <ele>185.5</ele>
        <time>2023-05-07T12:38:14Z</time>
      </trkpt>
      <trkpt lat="43.31127" lon="6.372">
        <ele>186</ele>
        <time>2023-05-07T12:38:20Z</time>
      </trkpt>
      <trkpt lat="43.31134" lon="6.372">
        <ele>186.4</ele>
        <time>2023-05-07T12:38:26Z</time>
      </trkpt>
      <trkpt lat="43.31139" lon="6.37197">
        <ele>187.5</ele>
        <time>2023-05-07T12:38:30Z</time>
      </trkpt>
      <trkpt lat="43.31144" lon="6.37193">
        <ele>187.4</ele>
        <time>2023-05-07T12:38:35Z</time>
      </trkpt>
      <trkpt lat="43.31149" lon="6.3719">
        <ele>187.5</ele>
        <time>2023-05-07T12:38:40Z</time>
      </trkpt>
      <trkpt lat="43.31153" lon="6.37186">
        <ele>187.4</ele>
        <time>2023-05-07T12:38:45Z</time>
      </trkpt>
      <trkpt lat="43.31157" lon="6.37183">
        <ele>187.5</ele>
        <time>2023-05-07T12:38:49Z</time>
      </trkpt>
      <trkpt lat="43.31161" lon="6.37179">
        <ele>187.5</ele>
        <time>2023-05-07T12:38:55Z</time>
      </trkpt>
      <trkpt lat="43.31167" lon="6.37179">
        <ele>186.5</ele>
        <time>2023-05-07T12:39:00Z</time>
      </trkpt>
      <trkpt lat="43.31172" lon="6.37178">
        <ele>187.6</ele>
        <time>2023-05-07T12:39:06Z</time>
      </trkpt>
      <trkpt lat="43.31177" lon="6.37184">
        <ele>188.1</ele>
        <time>2023-05-07T12:39:10Z</time>
      </trkpt>
      <trkpt lat="43.31182" lon="6.3719">
        <ele>189.2</ele>
        <time>2023-05-07T12:39:15Z</time>
      </trkpt>
      <trkpt lat="43.31185" lon="6.37198">
        <ele>190</ele>
        <time>2023-05-07T12:39:19Z</time>
      </trkpt>
      <trkpt lat="43.31188" lon="6.37205">
        <ele>190.5</ele>
        <time>2023-05-07T12:39:24Z</time>
      </trkpt>
      <trkpt lat="43.31191" lon="6.37212">
        <ele>191</ele>
        <time>2023-05-07T12:39:28Z</time>
      </trkpt>
      <trkpt lat="43.31193" lon="6.37219">
        <ele>191.6</ele>
        <time>2023-05-07T12:39:33Z</time>
      </trkpt>
      <trkpt lat="43.31195" lon="6.37225">
        <ele>191.7</ele>
        <time>2023-05-07T12:39:37Z</time>
      </trkpt>
      <trkpt lat="43.31196" lon="6.37231">
        <ele>191.6</ele>
        <time>2023-05-07T12:39:42Z</time>
      </trkpt>
      <trkpt lat="43.31199" lon="6.37237">
        <ele>191.8</ele>
        <time>2023-05-07T12:39:47Z</time>
      </trkpt>
      <trkpt lat="43.31201" lon="6.37243">
        <ele>191.8</ele>
        <time>2023-05-07T12:39:52Z</time>
      </trkpt>
      <trkpt lat="43.31205" lon="6.37248">
        <ele>192.3</ele>
        <time>2023-05-07T12:39:57Z</time>
      </trkpt>
      <trkpt lat="43.31209" lon="6.37253">
        <ele>192.5</ele>
        <time>2023-05-07T12:40:02Z</time>
      </trkpt>
      <trkpt lat="43.31207" lon="6.37255">
        <ele>191.6</ele>
        <time>2023-05-07T12:40:27Z</time>
      </trkpt>
      <trkpt lat="43.31202" lon="6.37261">
        <ele>189</ele>
        <time>2023-05-07T12:41:03Z</time>
      </trkpt>
      <trkpt lat="43.31207" lon="6.37263">
        <ele>189.8</ele>
        <time>2023-05-07T12:41:12Z</time>
      </trkpt>
      <trkpt lat="43.31211" lon="6.37264">
        <ele>190.6</ele>
        <time>2023-05-07T12:41:20Z</time>
      </trkpt>
      <trkpt lat="43.31218" lon="6.37268">
        <ele>191.4</ele>
        <time>2023-05-07T12:41:27Z</time>
      </trkpt>
      <trkpt lat="43.31225" lon="6.37272">
        <ele>192</ele>
        <time>2023-05-07T12:41:34Z</time>
      </trkpt>
      <trkpt lat="43.31232" lon="6.37273">
        <ele>193.2</ele>
        <time>2023-05-07T12:41:39Z</time>
      </trkpt>
      <trkpt lat="43.31239" lon="6.37273">
        <ele>194.3</ele>
        <time>2023-05-07T12:41:45Z</time>
      </trkpt>
      <trkpt lat="43.31245" lon="6.37277">
        <ele>194.4</ele>
        <time>2023-05-07T12:41:51Z</time>
      </trkpt>
      <trkpt lat="43.3125" lon="6.3728">
        <ele>194.3</ele>
        <time>2023-05-07T12:41:57Z</time>
      </trkpt>
      <trkpt lat="43.31259" lon="6.37281">
        <ele>194.1</ele>
        <time>2023-05-07T12:42:03Z</time>
      </trkpt>
      <trkpt lat="43.31267" lon="6.37281">
        <ele>193.8</ele>
        <time>2023-05-07T12:42:10Z</time>
      </trkpt>
      <trkpt lat="43.31273" lon="6.37281">
        <ele>194</ele>
        <time>2023-05-07T12:42:14Z</time>
      </trkpt>
      <trkpt lat="43.31278" lon="6.3728">
        <ele>194.1</ele>
        <time>2023-05-07T12:42:19Z</time>
      </trkpt>
      <trkpt lat="43.31282" lon="6.37277">
        <ele>194.9</ele>
        <time>2023-05-07T12:42:24Z</time>
      </trkpt>
      <trkpt lat="43.31286" lon="6.37274">
        <ele>195.5</ele>
        <time>2023-05-07T12:42:30Z</time>
      </trkpt>
      <trkpt lat="43.31293" lon="6.37273">
        <ele>195.2</ele>
        <time>2023-05-07T12:42:35Z</time>
      </trkpt>
      <trkpt lat="43.31299" lon="6.37272">
        <ele>194.9</ele>
        <time>2023-05-07T12:42:41Z</time>
      </trkpt>
      <trkpt lat="43.31304" lon="6.37269">
        <ele>195.1</ele>
        <time>2023-05-07T12:42:45Z</time>
      </trkpt>
      <trkpt lat="43.31309" lon="6.37266">
        <ele>196</ele>
        <time>2023-05-07T12:42:51Z</time>
      </trkpt>
      <trkpt lat="43.31316" lon="6.37272">
        <ele>195.9</ele>
        <time>2023-05-07T12:42:56Z</time>
      </trkpt>
      <trkpt lat="43.31322" lon="6.37277">
        <ele>196.1</ele>
        <time>2023-05-07T12:43:02Z</time>
      </trkpt>
      <trkpt lat="43.31328" lon="6.37284">
        <ele>196.6</ele>
        <time>2023-05-07T12:43:06Z</time>
      </trkpt>
      <trkpt lat="43.31333" lon="6.3729">
        <ele>197.5</ele>
        <time>2023-05-07T12:43:11Z</time>
      </trkpt>
      <trkpt lat="43.31339" lon="6.37296">
        <ele>198.2</ele>
        <time>2023-05-07T12:43:15Z</time>
      </trkpt>
      <trkpt lat="43.31344" lon="6.37301">
        <ele>198.8</ele>
        <time>2023-05-07T12:43:19Z</time>
      </trkpt>
      <trkpt lat="43.31349" lon="6.37304">
        <ele>199.3</ele>
        <time>2023-05-07T12:43:24Z</time>
      </trkpt>
      <trkpt lat="43.31353" lon="6.37306">
        <ele>199.9</ele>
        <time>2023-05-07T12:43:28Z</time>
      </trkpt>
      <trkpt lat="43.31361" lon="6.37303">
        <ele>201.3</ele>
        <time>2023-05-07T12:43:40Z</time>
      </trkpt>
      <trkpt lat="43.31367" lon="6.37301">
        <ele>200.5</ele>
        <time>2023-05-07T12:43:44Z</time>
      </trkpt>
      <trkpt lat="43.31372" lon="6.37298">
        <ele>199.5</ele>
        <time>2023-05-07T12:43:49Z</time>
      </trkpt>
      <trkpt lat="43.3138" lon="6.37293">
        <ele>198</ele>
        <time>2023-05-07T12:43:58Z</time>
      </trkpt>
      <trkpt lat="43.31385" lon="6.37294">
        <ele>196.9</ele>
        <time>2023-05-07T12:44:18Z</time>
      </trkpt>
      <trkpt lat="43.31387" lon="6.37294">
        <ele>196.4</ele>
        <time>2023-05-07T12:44:58Z</time>
      </trkpt>
      <trkpt lat="43.31386" lon="6.37285">
        <ele>196.8</ele>
        <time>2023-05-07T12:45:24Z</time>
      </trkpt>
      <trkpt lat="43.31386" lon="6.37281">
        <ele>196.8</ele>
        <time>2023-05-07T12:45:56Z</time>
      </trkpt>
      <trkpt lat="43.3139" lon="6.37287">
        <ele>195.6</ele>
        <time>2023-05-07T12:46:21Z</time>
      </trkpt>
      <trkpt lat="43.31391" lon="6.37282">
        <ele>195.3</ele>
        <time>2023-05-07T12:47:02Z</time>
      </trkpt>
      <trkpt lat="43.3139" lon="6.37285">
        <ele>195.6</ele>
        <time>2023-05-07T12:47:31Z</time>
      </trkpt>
      <trkpt lat="43.31394" lon="6.37282">
        <ele>194.2</ele>
        <time>2023-05-07T12:48:36Z</time>
      </trkpt>
      <trkpt lat="43.31399" lon="6.37277">
        <ele>192.5</ele>
        <time>2023-05-07T12:49:02Z</time>
      </trkpt>
      <trkpt lat="43.31403" lon="6.37266">
        <ele>192.8</ele>
        <time>2023-05-07T12:49:14Z</time>
      </trkpt>
      <trkpt lat="43.31406" lon="6.3726">
        <ele>192.6</ele>
        <time>2023-05-07T12:49:19Z</time>
      </trkpt>
      <trkpt lat="43.31409" lon="6.37254">
        <ele>192.4</ele>
        <time>2023-05-07T12:49:25Z</time>
      </trkpt>
      <trkpt lat="43.31413" lon="6.3725">
        <ele>191.7</ele>
        <time>2023-05-07T12:49:30Z</time>
      </trkpt>
      <trkpt lat="43.31416" lon="6.37245">
        <ele>191.2</ele>
        <time>2023-05-07T12:49:36Z</time>
      </trkpt>
      <trkpt lat="43.31418" lon="6.37239">
        <ele>191.8</ele>
        <time>2023-05-07T12:49:41Z</time>
      </trkpt>
      <trkpt lat="43.31419" lon="6.37232">
        <ele>192.6</ele>
        <time>2023-05-07T12:49:47Z</time>
      </trkpt>
      <trkpt lat="43.3142" lon="6.37234">
        <ele>192</ele>
        <time>2023-05-07T12:50:11Z</time>
      </trkpt>
      <trkpt lat="43.31423" lon="6.37228">
        <ele>192.4</ele>
        <time>2023-05-07T12:50:34Z</time>
      </trkpt>
      <trkpt lat="43.31429" lon="6.37225">
        <ele>191.8</ele>
        <time>2023-05-07T12:50:39Z</time>
      </trkpt>
      <trkpt lat="43.31434" lon="6.37222">
        <ele>191.3</ele>
        <time>2023-05-07T12:50:45Z</time>
      </trkpt>
      <trkpt lat="43.3144" lon="6.37219">
        <ele>190.8</ele>
        <time>2023-05-07T12:50:49Z</time>
      </trkpt>
      <trkpt lat="43.31446" lon="6.37216">
        <ele>190.2</ele>
        <time>2023-05-07T12:50:54Z</time>
      </trkpt>
      <trkpt lat="43.3145" lon="6.37212">
        <ele>190.2</ele>
        <time>2023-05-07T12:50:58Z</time>
      </trkpt>
      <trkpt lat="43.31453" lon="6.37208">
        <ele>190.1</ele>
        <time>2023-05-07T12:51:03Z</time>
      </trkpt>
      <trkpt lat="43.31458" lon="6.37206">
        <ele>189.2</ele>
        <time>2023-05-07T12:51:08Z</time>
      </trkpt>
      <trkpt lat="43.31462" lon="6.37204">
        <ele>188.1</ele>
        <time>2023-05-07T12:51:13Z</time>
      </trkpt>
      <trkpt lat="43.31466" lon="6.37199">
        <ele>187.6</ele>
        <time>2023-05-07T12:51:20Z</time>
      </trkpt>
      <trkpt lat="43.3147" lon="6.37194">
        <ele>186.8</ele>
        <time>2023-05-07T12:51:28Z</time>
      </trkpt>
      <trkpt lat="43.31472" lon="6.37188">
        <ele>186.5</ele>
        <time>2023-05-07T12:51:32Z</time>
      </trkpt>
      <trkpt lat="43.31473" lon="6.37181">
        <ele>186.2</ele>
        <time>2023-05-07T12:51:38Z</time>
      </trkpt>
      <trkpt lat="43.31475" lon="6.37175">
        <ele>185.8</ele>
        <time>2023-05-07T12:51:45Z</time>
      </trkpt>
      <trkpt lat="43.31477" lon="6.37169">
        <ele>185.5</ele>
        <time>2023-05-07T12:51:52Z</time>
      </trkpt>
      <trkpt lat="43.31482" lon="6.37159">
        <ele>185</ele>
        <time>2023-05-07T12:52:11Z</time>
      </trkpt>
      <trkpt lat="43.31486" lon="6.3715">
        <ele>184.8</ele>
        <time>2023-05-07T12:52:27Z</time>
      </trkpt>
      <trkpt lat="43.3149" lon="6.37147">
        <ele>184</ele>
        <time>2023-05-07T12:52:32Z</time>
      </trkpt>
      <trkpt lat="43.31494" lon="6.37144">
        <ele>183.2</ele>
        <time>2023-05-07T12:52:38Z</time>
      </trkpt>
      <trkpt lat="43.31499" lon="6.37141">
        <ele>182.1</ele>
        <time>2023-05-07T12:52:43Z</time>
      </trkpt>
      <trkpt lat="43.31504" lon="6.37138">
        <ele>181.8</ele>
        <time>2023-05-07T12:52:49Z</time>
      </trkpt>
      <trkpt lat="43.31512" lon="6.37138">
        <ele>181.1</ele>
        <time>2023-05-07T12:52:54Z</time>
      </trkpt>
      <trkpt lat="43.31519" lon="6.37137">
        <ele>180.4</ele>
        <time>2023-05-07T12:53:00Z</time>
      </trkpt>
      <trkpt lat="43.31523" lon="6.37134">
        <ele>180.6</ele>
        <time>2023-05-07T12:53:05Z</time>
      </trkpt>
      <trkpt lat="43.31527" lon="6.3713">
        <ele>180.7</ele>
        <time>2023-05-07T12:53:12Z</time>
      </trkpt>
      <trkpt lat="43.31531" lon="6.37127">
        <ele>180</ele>
        <time>2023-05-07T12:53:19Z</time>
      </trkpt>
      <trkpt lat="43.31535" lon="6.37123">
        <ele>179</ele>
        <time>2023-05-07T12:53:27Z</time>
      </trkpt>
      <trkpt lat="43.31539" lon="6.37113">
        <ele>178.5</ele>
        <time>2023-05-07T12:53:49Z</time>
      </trkpt>
      <trkpt lat="43.31543" lon="6.37107">
        <ele>177.3</ele>
        <time>2023-05-07T12:54:01Z</time>
      </trkpt>
      <trkpt lat="43.31545" lon="6.37099">
        <ele>177.2</ele>
        <time>2023-05-07T12:54:12Z</time>
      </trkpt>
      <trkpt lat="43.31547" lon="6.37092">
        <ele>177.1</ele>
        <time>2023-05-07T12:54:25Z</time>
      </trkpt>
      <trkpt lat="43.31551" lon="6.37083">
        <ele>176.2</ele>
        <time>2023-05-07T12:54:36Z</time>
      </trkpt>
      <trkpt lat="43.31555" lon="6.37074">
        <ele>175.3</ele>
        <time>2023-05-07T12:54:49Z</time>
      </trkpt>
      <trkpt lat="43.3156" lon="6.3707">
        <ele>174.8</ele>
        <time>2023-05-07T12:54:57Z</time>
      </trkpt>
      <trkpt lat="43.31564" lon="6.37066">
        <ele>174.6</ele>
        <time>2023-05-07T12:55:04Z</time>
      </trkpt>
      <trkpt lat="43.31571" lon="6.37064">
        <ele>174</ele>
        <time>2023-05-07T12:55:10Z</time>
      </trkpt>
      <trkpt lat="43.31578" lon="6.37061">
        <ele>173.5</ele>
        <time>2023-05-07T12:55:18Z</time>
      </trkpt>
      <trkpt lat="43.31586" lon="6.3706">
        <ele>172.3</ele>
        <time>2023-05-07T12:55:24Z</time>
      </trkpt>
      <trkpt lat="43.31594" lon="6.37059">
        <ele>170.4</ele>
        <time>2023-05-07T12:55:31Z</time>
      </trkpt>
      <trkpt lat="43.31602" lon="6.37055">
        <ele>168.7</ele>
        <time>2023-05-07T12:55:44Z</time>
      </trkpt>
      <trkpt lat="43.31606" lon="6.37052">
        <ele>167.8</ele>
        <time>2023-05-07T12:55:51Z</time>
      </trkpt>
      <trkpt lat="43.3161" lon="6.37048">
        <ele>166.9</ele>
        <time>2023-05-07T12:55:59Z</time>
      </trkpt>
      <trkpt lat="43.3161" lon="6.37042">
        <ele>167.4</ele>
        <time>2023-05-07T12:56:04Z</time>
      </trkpt>
      <trkpt lat="43.3161" lon="6.37035">
        <ele>167.8</ele>
        <time>2023-05-07T12:56:12Z</time>
      </trkpt>
      <trkpt lat="43.3161" lon="6.37027">
        <ele>168.4</ele>
        <time>2023-05-07T12:56:19Z</time>
      </trkpt>
      <trkpt lat="43.3161" lon="6.37019">
        <ele>168.4</ele>
        <time>2023-05-07T12:56:27Z</time>
      </trkpt>
      <trkpt lat="43.31612" lon="6.37013">
        <ele>167.9</ele>
        <time>2023-05-07T12:56:34Z</time>
      </trkpt>
      <trkpt lat="43.31613" lon="6.37007">
        <ele>167.6</ele>
        <time>2023-05-07T12:56:41Z</time>
      </trkpt>
      <trkpt lat="43.31618" lon="6.37004">
        <ele>166.7</ele>
        <time>2023-05-07T12:56:42Z</time>
      </trkpt>
      <trkpt lat="43.31622" lon="6.37001">
        <ele>166</ele>
        <time>2023-05-07T12:56:43Z</time>
      </trkpt>
      <trkpt lat="43.31627" lon="6.36993">
        <ele>166.5</ele>
        <time>2023-05-07T12:56:46Z</time>
      </trkpt>
      <trkpt lat="43.31634" lon="6.36993">
        <ele>165.2</ele>
        <time>2023-05-07T12:56:48Z</time>
      </trkpt>
      <trkpt lat="43.31639" lon="6.36992">
        <ele>164.4</ele>
        <time>2023-05-07T12:56:49Z</time>
      </trkpt>
      <trkpt lat="43.31644" lon="6.36991">
        <ele>163.5</ele>
        <time>2023-05-07T12:56:51Z</time>
      </trkpt>
      <trkpt lat="43.31642" lon="6.37002">
        <ele>162</ele>
        <time>2023-05-07T12:56:53Z</time>
      </trkpt>
      <trkpt lat="43.3164" lon="6.37013">
        <ele>160.9</ele>
        <time>2023-05-07T12:56:56Z</time>
      </trkpt>
      <trkpt lat="43.31636" lon="6.3702">
        <ele>160.9</ele>
        <time>2023-05-07T12:57:20Z</time>
      </trkpt>
      <trkpt lat="43.31636" lon="6.37026">
        <ele>160.2</ele>
        <time>2023-05-07T12:57:22Z</time>
      </trkpt>
      <trkpt lat="43.31636" lon="6.37036">
        <ele>160.4</ele>
        <time>2023-05-07T12:57:27Z</time>
      </trkpt>
      <trkpt lat="43.31636" lon="6.37046">
        <ele>161</ele>
        <time>2023-05-07T12:57:32Z</time>
      </trkpt>
      <trkpt lat="43.31636" lon="6.37056">
        <ele>161.6</ele>
        <time>2023-05-07T12:57:37Z</time>
      </trkpt>
      <trkpt lat="43.31635" lon="6.37066">
        <ele>161</ele>
        <time>2023-05-07T12:57:43Z</time>
      </trkpt>
      <trkpt lat="43.31636" lon="6.37076">
        <ele>160.2</ele>
        <time>2023-05-07T12:57:48Z</time>
      </trkpt>
      <trkpt lat="43.31637" lon="6.37085">
        <ele>159.3</ele>
        <time>2023-05-07T12:57:54Z</time>
      </trkpt>
      <trkpt lat="43.3164" lon="6.37091">
        <ele>158.5</ele>
        <time>2023-05-07T12:58:00Z</time>
      </trkpt>
      <trkpt lat="43.31642" lon="6.37097">
        <ele>157.5</ele>
        <time>2023-05-07T12:58:06Z</time>
      </trkpt>
      <trkpt lat="43.31648" lon="6.37105">
        <ele>155.5</ele>
        <time>2023-05-07T12:58:16Z</time>
      </trkpt>
      <trkpt lat="43.3165" lon="6.37112">
        <ele>155</ele>
        <time>2023-05-07T12:58:22Z</time>
      </trkpt>
      <trkpt lat="43.31651" lon="6.37118">
        <ele>154.7</ele>
        <time>2023-05-07T12:58:27Z</time>
      </trkpt>
      <trkpt lat="43.31654" lon="6.37124">
        <ele>154.3</ele>
        <time>2023-05-07T12:58:32Z</time>
      </trkpt>
      <trkpt lat="43.31656" lon="6.3713">
        <ele>154.1</ele>
        <time>2023-05-07T12:58:37Z</time>
      </trkpt>
      <trkpt lat="43.31658" lon="6.37137">
        <ele>154.2</ele>
        <time>2023-05-07T12:58:42Z</time>
      </trkpt>
      <trkpt lat="43.31659" lon="6.37144">
        <ele>153.4</ele>
        <time>2023-05-07T12:58:47Z</time>
      </trkpt>
      <trkpt lat="43.31657" lon="6.37152">
        <ele>152.7</ele>
        <time>2023-05-07T12:58:53Z</time>
      </trkpt>
      <trkpt lat="43.31655" lon="6.37159">
        <ele>152.1</ele>
        <time>2023-05-07T12:58:59Z</time>
      </trkpt>
      <trkpt lat="43.3165" lon="6.37164">
        <ele>152.4</ele>
        <time>2023-05-07T12:59:05Z</time>
      </trkpt>
      <trkpt lat="43.31644" lon="6.37169">
        <ele>152.8</ele>
        <time>2023-05-07T12:59:12Z</time>
      </trkpt>
      <trkpt lat="43.3164" lon="6.37176">
        <ele>152.6</ele>
        <time>2023-05-07T12:59:18Z</time>
      </trkpt>
      <trkpt lat="43.31635" lon="6.37182">
        <ele>152</ele>
        <time>2023-05-07T12:59:25Z</time>
      </trkpt>
      <trkpt lat="43.31631" lon="6.37191">
        <ele>151.2</ele>
        <time>2023-05-07T12:59:31Z</time>
      </trkpt>
      <trkpt lat="43.31627" lon="6.372">
        <ele>150.7</ele>
        <time>2023-05-07T12:59:37Z</time>
      </trkpt>
      <trkpt lat="43.31626" lon="6.37207">
        <ele>150.3</ele>
        <time>2023-05-07T12:59:41Z</time>
      </trkpt>
      <trkpt lat="43.31625" lon="6.37213">
        <ele>149.8</ele>
        <time>2023-05-07T12:59:46Z</time>
      </trkpt>
      <trkpt lat="43.31626" lon="6.3722">
        <ele>149.1</ele>
        <time>2023-05-07T12:59:51Z</time>
      </trkpt>
      <trkpt lat="43.31626" lon="6.37227">
        <ele>148.6</ele>
        <time>2023-05-07T12:59:57Z</time>
      </trkpt>
      <trkpt lat="43.31624" lon="6.37236">
        <ele>148.8</ele>
        <time>2023-05-07T13:00:04Z</time>
      </trkpt>
      <trkpt lat="43.31621" lon="6.37244">
        <ele>148.9</ele>
        <time>2023-05-07T13:00:11Z</time>
      </trkpt>
      <trkpt lat="43.31618" lon="6.37251">
        <ele>149</ele>
        <time>2023-05-07T13:00:16Z</time>
      </trkpt>
      <trkpt lat="43.31614" lon="6.37258">
        <ele>149</ele>
        <time>2023-05-07T13:00:23Z</time>
      </trkpt>
      <trkpt lat="43.31611" lon="6.37266">
        <ele>148.9</ele>
        <time>2023-05-07T13:00:28Z</time>
      </trkpt>
      <trkpt lat="43.31607" lon="6.37274">
        <ele>148.9</ele>
        <time>2023-05-07T13:00:35Z</time>
      </trkpt>
      <trkpt lat="43.31604" lon="6.37281">
        <ele>149</ele>
        <time>2023-05-07T13:00:40Z</time>
      </trkpt>
      <trkpt lat="43.31601" lon="6.37287">
        <ele>149.5</ele>
        <time>2023-05-07T13:00:45Z</time>
      </trkpt>
      <trkpt lat="43.31597" lon="6.37294">
        <ele>150</ele>
        <time>2023-05-07T13:00:50Z</time>
      </trkpt>
      <trkpt lat="43.31593" lon="6.37301">
        <ele>150.6</ele>
        <time>2023-05-07T13:00:56Z</time>
      </trkpt>
      <trkpt lat="43.31591" lon="6.37312">
        <ele>150.4</ele>
        <time>2023-05-07T13:01:17Z</time>
      </trkpt>
      <trkpt lat="43.31592" lon="6.37321">
        <ele>149.6</ele>
        <time>2023-05-07T13:01:25Z</time>
      </trkpt>
      <trkpt lat="43.31593" lon="6.3733">
        <ele>148.9</ele>
        <time>2023-05-07T13:01:34Z</time>
      </trkpt>
      <trkpt lat="43.31596" lon="6.37335">
        <ele>148.4</ele>
        <time>2023-05-07T13:01:40Z</time>
      </trkpt>
      <trkpt lat="43.31599" lon="6.3734">
        <ele>148</ele>
        <time>2023-05-07T13:01:46Z</time>
      </trkpt>
      <trkpt lat="43.31602" lon="6.37351">
        <ele>147.1</ele>
        <time>2023-05-07T13:01:57Z</time>
      </trkpt>
      <trkpt lat="43.31601" lon="6.37359">
        <ele>146.6</ele>
        <time>2023-05-07T13:02:04Z</time>
      </trkpt>
      <trkpt lat="43.316" lon="6.37366">
        <ele>145.9</ele>
        <time>2023-05-07T13:02:11Z</time>
      </trkpt>
      <trkpt lat="43.31598" lon="6.37372">
        <ele>145.5</ele>
        <time>2023-05-07T13:02:16Z</time>
      </trkpt>
      <trkpt lat="43.31595" lon="6.37378">
        <ele>145.1</ele>
        <time>2023-05-07T13:02:23Z</time>
      </trkpt>
      <trkpt lat="43.31597" lon="6.37387">
        <ele>144.3</ele>
        <time>2023-05-07T13:02:29Z</time>
      </trkpt>
      <trkpt lat="43.31598" lon="6.37395">
        <ele>143.8</ele>
        <time>2023-05-07T13:02:36Z</time>
      </trkpt>
      <trkpt lat="43.316" lon="6.37402">
        <ele>143.5</ele>
        <time>2023-05-07T13:02:50Z</time>
      </trkpt>
      <trkpt lat="43.31603" lon="6.37409">
        <ele>143.1</ele>
        <time>2023-05-07T13:03:07Z</time>
      </trkpt>
      <trkpt lat="43.31605" lon="6.37415">
        <ele>142.7</ele>
        <time>2023-05-07T13:03:20Z</time>
      </trkpt>
      <trkpt lat="43.31607" lon="6.37422">
        <ele>142.3</ele>
        <time>2023-05-07T13:03:35Z</time>
      </trkpt>
      <trkpt lat="43.31606" lon="6.37433">
        <ele>142</ele>
        <time>2023-05-07T13:03:57Z</time>
      </trkpt>
      <trkpt lat="43.31605" lon="6.3744">
        <ele>141.9</ele>
        <time>2023-05-07T13:04:01Z</time>
      </trkpt>
      <trkpt lat="43.31603" lon="6.37447">
        <ele>141.8</ele>
        <time>2023-05-07T13:04:06Z</time>
      </trkpt>
      <trkpt lat="43.31604" lon="6.37455">
        <ele>141.7</ele>
        <time>2023-05-07T13:04:12Z</time>
      </trkpt>
      <trkpt lat="43.31604" lon="6.37462">
        <ele>141.5</ele>
        <time>2023-05-07T13:04:19Z</time>
      </trkpt>
      <trkpt lat="43.316" lon="6.37472">
        <ele>142</ele>
        <time>2023-05-07T13:04:32Z</time>
      </trkpt>
      <trkpt lat="43.316" lon="6.37481">
        <ele>142.1</ele>
        <time>2023-05-07T13:04:45Z</time>
      </trkpt>
      <trkpt lat="43.31604" lon="6.37491">
        <ele>141.1</ele>
        <time>2023-05-07T13:04:50Z</time>
      </trkpt>
      <trkpt lat="43.31606" lon="6.37497">
        <ele>140.7</ele>
        <time>2023-05-07T13:04:53Z</time>
      </trkpt>
      <trkpt lat="43.31607" lon="6.37503">
        <ele>140.3</ele>
        <time>2023-05-07T13:04:57Z</time>
      </trkpt>
      <trkpt lat="43.3161" lon="6.37513">
        <ele>139.8</ele>
        <time>2023-05-07T13:05:02Z</time>
      </trkpt>
      <trkpt lat="43.31613" lon="6.37523">
        <ele>139.4</ele>
        <time>2023-05-07T13:05:08Z</time>
      </trkpt>
      <trkpt lat="43.31615" lon="6.37531">
        <ele>139</ele>
        <time>2023-05-07T13:05:13Z</time>
      </trkpt>
      <trkpt lat="43.31616" lon="6.37538">
        <ele>138.3</ele>
        <time>2023-05-07T13:05:19Z</time>
      </trkpt>
      <trkpt lat="43.31617" lon="6.37546">
        <ele>137.6</ele>
        <time>2023-05-07T13:05:25Z</time>
      </trkpt>
      <trkpt lat="43.31618" lon="6.37553">
        <ele>136.9</ele>
        <time>2023-05-07T13:05:31Z</time>
      </trkpt>
      <trkpt lat="43.31613" lon="6.37562">
        <ele>137.3</ele>
        <time>2023-05-07T13:05:43Z</time>
      </trkpt>
      <trkpt lat="43.31609" lon="6.37569">
        <ele>137.4</ele>
        <time>2023-05-07T13:05:49Z</time>
      </trkpt>
      <trkpt lat="43.31605" lon="6.37575">
        <ele>137.5</ele>
        <time>2023-05-07T13:05:56Z</time>
      </trkpt>
      <trkpt lat="43.31601" lon="6.37584">
        <ele>137.3</ele>
        <time>2023-05-07T13:06:02Z</time>
      </trkpt>
      <trkpt lat="43.31597" lon="6.37592">
        <ele>137.3</ele>
        <time>2023-05-07T13:06:08Z</time>
      </trkpt>
      <trkpt lat="43.31596" lon="6.37601">
        <ele>136.4</ele>
        <time>2023-05-07T13:06:14Z</time>
      </trkpt>
      <trkpt lat="43.31594" lon="6.3761">
        <ele>135.5</ele>
        <time>2023-05-07T13:06:21Z</time>
      </trkpt>
      <trkpt lat="43.31594" lon="6.37619">
        <ele>134.5</ele>
        <time>2023-05-07T13:06:39Z</time>
      </trkpt>
      <trkpt lat="43.31591" lon="6.37626">
        <ele>134.4</ele>
        <time>2023-05-07T13:06:53Z</time>
      </trkpt>
      <trkpt lat="43.31585" lon="6.37626">
        <ele>135.5</ele>
        <time>2023-05-07T13:09:38Z</time>
      </trkpt>
      <trkpt lat="43.31581" lon="6.37632">
        <ele>135.5</ele>
        <time>2023-05-07T13:09:53Z</time>
      </trkpt>
      <trkpt lat="43.31579" lon="6.37638">
        <ele>135</ele>
        <time>2023-05-07T13:09:57Z</time>
      </trkpt>
      <trkpt lat="43.31576" lon="6.37644">
        <ele>134.6</ele>
        <time>2023-05-07T13:10:02Z</time>
      </trkpt>
      <trkpt lat="43.31573" lon="6.3765">
        <ele>134.3</ele>
        <time>2023-05-07T13:10:06Z</time>
      </trkpt>
      <trkpt lat="43.31569" lon="6.37656">
        <ele>133.8</ele>
        <time>2023-05-07T13:10:12Z</time>
      </trkpt>
      <trkpt lat="43.31565" lon="6.37661">
        <ele>133.3</ele>
        <time>2023-05-07T13:10:16Z</time>
      </trkpt>
      <trkpt lat="43.31561" lon="6.37666">
        <ele>132.7</ele>
        <time>2023-05-07T13:10:22Z</time>
      </trkpt>
      <trkpt lat="43.31556" lon="6.37671">
        <ele>132.5</ele>
        <time>2023-05-07T13:10:27Z</time>
      </trkpt>
      <trkpt lat="43.31551" lon="6.37676">
        <ele>131.9</ele>
        <time>2023-05-07T13:10:33Z</time>
      </trkpt>
      <trkpt lat="43.31548" lon="6.37684">
        <ele>131.1</ele>
        <time>2023-05-07T13:10:38Z</time>
      </trkpt>
      <trkpt lat="43.31545" lon="6.37691">
        <ele>130.3</ele>
        <time>2023-05-07T13:10:43Z</time>
      </trkpt>
      <trkpt lat="43.31543" lon="6.37697">
        <ele>130.1</ele>
        <time>2023-05-07T13:10:51Z</time>
      </trkpt>
      <trkpt lat="43.3154" lon="6.37702">
        <ele>130.6</ele>
        <time>2023-05-07T13:10:59Z</time>
      </trkpt>
      <trkpt lat="43.31532" lon="6.37704">
        <ele>131.2</ele>
        <time>2023-05-07T13:11:24Z</time>
      </trkpt>
      <trkpt lat="43.31528" lon="6.37693">
        <ele>130.1</ele>
        <time>2023-05-07T13:11:46Z</time>
      </trkpt>
      <trkpt lat="43.31526" lon="6.37687">
        <ele>130.8</ele>
        <time>2023-05-07T13:11:57Z</time>
      </trkpt>
      <trkpt lat="43.31524" lon="6.3768">
        <ele>131.4</ele>
        <time>2023-05-07T13:12:11Z</time>
      </trkpt>
      <trkpt lat="43.31528" lon="6.37685">
        <ele>130.7</ele>
        <time>2023-05-07T13:12:23Z</time>
      </trkpt>
      <trkpt lat="43.31531" lon="6.37689">
        <ele>130.4</ele>
        <time>2023-05-07T13:12:33Z</time>
      </trkpt>
      <trkpt lat="43.31536" lon="6.37694">
        <ele>130</ele>
        <time>2023-05-07T13:12:54Z</time>
      </trkpt>
      <trkpt lat="43.3154" lon="6.37697">
        <ele>130.2</ele>
        <time>2023-05-07T13:13:27Z</time>
      </trkpt>
      <trkpt lat="43.31533" lon="6.37692">
        <ele>130.2</ele>
        <time>2023-05-07T13:14:08Z</time>
      </trkpt>
      <trkpt lat="43.31536" lon="6.37692">
        <ele>130.2</ele>
        <time>2023-05-07T13:14:28Z</time>
      </trkpt>
      <trkpt lat="43.31542" lon="6.37701">
        <ele>130.5</ele>
        <time>2023-05-07T13:14:51Z</time>
      </trkpt>
      <trkpt lat="43.31536" lon="6.377">
        <ele>130.6</ele>
        <time>2023-05-07T13:15:13Z</time>
      </trkpt>
      <trkpt lat="43.31538" lon="6.37697">
        <ele>130.2</ele>
        <time>2023-05-07T13:15:52Z</time>
      </trkpt>
      <trkpt lat="43.31534" lon="6.37694">
        <ele>130</ele>
        <time>2023-05-07T13:16:37Z</time>
      </trkpt>
      <trkpt lat="43.3153" lon="6.37688">
        <ele>130.5</ele>
        <time>2023-05-07T13:17:30Z</time>
      </trkpt>
      <trkpt lat="43.31534" lon="6.37689">
        <ele>130.4</ele>
        <time>2023-05-07T13:17:57Z</time>
      </trkpt>
      <trkpt lat="43.31529" lon="6.37692">
        <ele>130.2</ele>
        <time>2023-05-07T13:18:41Z</time>
      </trkpt>
      <trkpt lat="43.3153" lon="6.3769">
        <ele>130.3</ele>
        <time>2023-05-07T13:18:59Z</time>
      </trkpt>
      <trkpt lat="43.31535" lon="6.37691">
        <ele>130.3</ele>
        <time>2023-05-07T13:19:36Z</time>
      </trkpt>
      <trkpt lat="43.31539" lon="6.37688">
        <ele>130.6</ele>
        <time>2023-05-07T13:20:12Z</time>
      </trkpt>
      <trkpt lat="43.31531" lon="6.37692">
        <ele>130.2</ele>
        <time>2023-05-07T13:20:59Z</time>
      </trkpt>
      <trkpt lat="43.31531" lon="6.37694">
        <ele>130</ele>
        <time>2023-05-07T13:22:02Z</time>
      </trkpt>
      <trkpt lat="43.3153" lon="6.37694">
        <ele>130</ele>
        <time>2023-05-07T13:22:49Z</time>
      </trkpt>
      <trkpt lat="43.31529" lon="6.37694">
        <ele>130</ele>
        <time>2023-05-07T13:23:48Z</time>
      </trkpt>
      <trkpt lat="43.31529" lon="6.3769">
        <ele>130.3</ele>
        <time>2023-05-07T13:24:54Z</time>
      </trkpt>
      <trkpt lat="43.31527" lon="6.37689">
        <ele>130.5</ele>
        <time>2023-05-07T13:26:06Z</time>
      </trkpt>
      <trkpt lat="43.31527" lon="6.37679">
        <ele>131.2</ele>
        <time>2023-05-07T13:26:31Z</time>
      </trkpt>
      <trkpt lat="43.31531" lon="6.37688">
        <ele>130.5</ele>
        <time>2023-05-07T13:28:04Z</time>
      </trkpt>
      <trkpt lat="43.31526" lon="6.37689">
        <ele>130.6</ele>
        <time>2023-05-07T13:29:14Z</time>
      </trkpt>
      <trkpt lat="43.31531" lon="6.37687">
        <ele>130.6</ele>
        <time>2023-05-07T13:29:53Z</time>
      </trkpt>
      <trkpt lat="43.31531" lon="6.3769">
        <ele>130.3</ele>
        <time>2023-05-07T13:30:39Z</time>
      </trkpt>
      <trkpt lat="43.31534" lon="6.37689">
        <ele>130.4</ele>
        <time>2023-05-07T13:31:28Z</time>
      </trkpt>
      <trkpt lat="43.31532" lon="6.37692">
        <ele>130.2</ele>
        <time>2023-05-07T13:32:15Z</time>
      </trkpt>
      <trkpt lat="43.31528" lon="6.37687">
        <ele>130.5</ele>
        <time>2023-05-07T13:32:53Z</time>
      </trkpt>
      <trkpt lat="43.31528" lon="6.37687">
        <ele>130.5</ele>
        <time>2023-05-07T13:33:44Z</time>
      </trkpt>
      <trkpt lat="43.31533" lon="6.37694">
        <ele>130</ele>
        <time>2023-05-07T13:34:13Z</time>
      </trkpt>
      <trkpt lat="43.31528" lon="6.37699">
        <ele>130.7</ele>
        <time>2023-05-07T13:34:42Z</time>
      </trkpt>
      <trkpt lat="43.3153" lon="6.3771">
        <ele>132.1</ele>
        <time>2023-05-07T13:35:00Z</time>
      </trkpt>
      <trkpt lat="43.31527" lon="6.37715">
        <ele>133.1</ele>
        <time>2023-05-07T13:35:08Z</time>
      </trkpt>
      <trkpt lat="43.31524" lon="6.3772">
        <ele>134.2</ele>
        <time>2023-05-07T13:35:17Z</time>
      </trkpt>
      <trkpt lat="43.31517" lon="6.37727">
        <ele>136.4</ele>
        <time>2023-05-07T13:35:31Z</time>
      </trkpt>
      <trkpt lat="43.31511" lon="6.37729">
        <ele>137.6</ele>
        <time>2023-05-07T13:35:50Z</time>
      </trkpt>
      <trkpt lat="43.31507" lon="6.37727">
        <ele>137.9</ele>
        <time>2023-05-07T13:35:57Z</time>
      </trkpt>
      <trkpt lat="43.31502" lon="6.37725">
        <ele>138.2</ele>
        <time>2023-05-07T13:36:07Z</time>
      </trkpt>
      <trkpt lat="43.31495" lon="6.37719">
        <ele>138.7</ele>
        <time>2023-05-07T13:36:22Z</time>
      </trkpt>
      <trkpt lat="43.3149" lon="6.37717">
        <ele>139.6</ele>
        <time>2023-05-07T13:36:29Z</time>
      </trkpt>
      <trkpt lat="43.31484" lon="6.37715">
        <ele>140.5</ele>
        <time>2023-05-07T13:36:38Z</time>
      </trkpt>
      <trkpt lat="43.31479" lon="6.37713">
        <ele>141.3</ele>
        <time>2023-05-07T13:36:45Z</time>
      </trkpt>
      <trkpt lat="43.31474" lon="6.37711">
        <ele>142</ele>
        <time>2023-05-07T13:36:53Z</time>
      </trkpt>
      <trkpt lat="43.31469" lon="6.37709">
        <ele>142.4</ele>
        <time>2023-05-07T13:36:59Z</time>
      </trkpt>
      <trkpt lat="43.31464" lon="6.37707">
        <ele>142.6</ele>
        <time>2023-05-07T13:37:06Z</time>
      </trkpt>
      <trkpt lat="43.31457" lon="6.37702">
        <ele>142.8</ele>
        <time>2023-05-07T13:37:21Z</time>
      </trkpt>
      <trkpt lat="43.31452" lon="6.37701">
        <ele>143.3</ele>
        <time>2023-05-07T13:37:27Z</time>
      </trkpt>
      <trkpt lat="43.31447" lon="6.377">
        <ele>143.9</ele>
        <time>2023-05-07T13:37:34Z</time>
      </trkpt>
      <trkpt lat="43.31442" lon="6.37699">
        <ele>144.5</ele>
        <time>2023-05-07T13:37:40Z</time>
      </trkpt>
      <trkpt lat="43.31437" lon="6.37697">
        <ele>145.2</ele>
        <time>2023-05-07T13:37:47Z</time>
      </trkpt>
      <trkpt lat="43.31433" lon="6.37695">
        <ele>145.8</ele>
        <time>2023-05-07T13:37:52Z</time>
      </trkpt>
      <trkpt lat="43.31428" lon="6.37693">
        <ele>146.4</ele>
        <time>2023-05-07T13:38:00Z</time>
      </trkpt>
      <trkpt lat="43.31424" lon="6.37691">
        <ele>147.1</ele>
        <time>2023-05-07T13:38:06Z</time>
      </trkpt>
      <trkpt lat="43.31419" lon="6.37688">
        <ele>147.7</ele>
        <time>2023-05-07T13:38:15Z</time>
      </trkpt>
      <trkpt lat="43.31415" lon="6.37687">
        <ele>148.2</ele>
        <time>2023-05-07T13:38:21Z</time>
      </trkpt>
      <trkpt lat="43.3141" lon="6.37685">
        <ele>148.5</ele>
        <time>2023-05-07T13:38:30Z</time>
      </trkpt>
      <trkpt lat="43.31405" lon="6.37686">
        <ele>148.9</ele>
        <time>2023-05-07T13:38:37Z</time>
      </trkpt>
      <trkpt lat="43.314" lon="6.37686">
        <ele>149.3</ele>
        <time>2023-05-07T13:38:44Z</time>
      </trkpt>
      <trkpt lat="43.31393" lon="6.37689">
        <ele>150</ele>
        <time>2023-05-07T13:38:48Z</time>
      </trkpt>
      <trkpt lat="43.31386" lon="6.37691">
        <ele>150.2</ele>
        <time>2023-05-07T13:38:52Z</time>
      </trkpt>
      <trkpt lat="43.31391" lon="6.37697">
        <ele>151.1</ele>
        <time>2023-05-07T13:38:56Z</time>
      </trkpt>
      <trkpt lat="43.31395" lon="6.37703">
        <ele>151.3</ele>
        <time>2023-05-07T13:39:00Z</time>
      </trkpt>
      <trkpt lat="43.31397" lon="6.3771">
        <ele>152</ele>
        <time>2023-05-07T13:39:07Z</time>
      </trkpt>
      <trkpt lat="43.31398" lon="6.37717">
        <ele>152.7</ele>
        <time>2023-05-07T13:39:14Z</time>
      </trkpt>
      <trkpt lat="43.31401" lon="6.37723">
        <ele>153.2</ele>
        <time>2023-05-07T13:39:21Z</time>
      </trkpt>
      <trkpt lat="43.31404" lon="6.37728">
        <ele>153.4</ele>
        <time>2023-05-07T13:39:28Z</time>
      </trkpt>
      <trkpt lat="43.31408" lon="6.37739">
        <ele>154.2</ele>
        <time>2023-05-07T13:39:41Z</time>
      </trkpt>
      <trkpt lat="43.3141" lon="6.37745">
        <ele>154.8</ele>
        <time>2023-05-07T13:39:47Z</time>
      </trkpt>
      <trkpt lat="43.31411" lon="6.37751">
        <ele>155.4</ele>
        <time>2023-05-07T13:39:53Z</time>
      </trkpt>
      <trkpt lat="43.31411" lon="6.37758">
        <ele>156.5</ele>
        <time>2023-05-07T13:39:59Z</time>
      </trkpt>
      <trkpt lat="43.31411" lon="6.37765">
        <ele>157.6</ele>
        <time>2023-05-07T13:40:05Z</time>
      </trkpt>
      <trkpt lat="43.31411" lon="6.37772">
        <ele>158.6</ele>
        <time>2023-05-07T13:40:11Z</time>
      </trkpt>
      <trkpt lat="43.3141" lon="6.37778">
        <ele>159.6</ele>
        <time>2023-05-07T13:40:18Z</time>
      </trkpt>
      <trkpt lat="43.31413" lon="6.37785">
        <ele>160.9</ele>
        <time>2023-05-07T13:40:25Z</time>
      </trkpt>
      <trkpt lat="43.31416" lon="6.37791">
        <ele>162.3</ele>
        <time>2023-05-07T13:40:33Z</time>
      </trkpt>
      <trkpt lat="43.31417" lon="6.37798">
        <ele>163.6</ele>
        <time>2023-05-07T13:40:41Z</time>
      </trkpt>
      <trkpt lat="43.31418" lon="6.37805">
        <ele>164.8</ele>
        <time>2023-05-07T13:40:49Z</time>
      </trkpt>
      <trkpt lat="43.31419" lon="6.37812">
        <ele>165.7</ele>
        <time>2023-05-07T13:40:56Z</time>
      </trkpt>
      <trkpt lat="43.31419" lon="6.37819">
        <ele>166.7</ele>
        <time>2023-05-07T13:41:04Z</time>
      </trkpt>
      <trkpt lat="43.31421" lon="6.37826">
        <ele>167.6</ele>
        <time>2023-05-07T13:41:10Z</time>
      </trkpt>
      <trkpt lat="43.31422" lon="6.37833">
        <ele>168.6</ele>
        <time>2023-05-07T13:41:17Z</time>
      </trkpt>
      <trkpt lat="43.31422" lon="6.3784">
        <ele>169.9</ele>
        <time>2023-05-07T13:41:25Z</time>
      </trkpt>
      <trkpt lat="43.31422" lon="6.37847">
        <ele>171.2</ele>
        <time>2023-05-07T13:41:33Z</time>
      </trkpt>
      <trkpt lat="43.31422" lon="6.37854">
        <ele>172.5</ele>
        <time>2023-05-07T13:41:41Z</time>
      </trkpt>
      <trkpt lat="43.31422" lon="6.37861">
        <ele>173.8</ele>
        <time>2023-05-07T13:41:50Z</time>
      </trkpt>
      <trkpt lat="43.31423" lon="6.37868">
        <ele>175.1</ele>
        <time>2023-05-07T13:41:58Z</time>
      </trkpt>
      <trkpt lat="43.31424" lon="6.37874">
        <ele>176.4</ele>
        <time>2023-05-07T13:42:05Z</time>
      </trkpt>
      <trkpt lat="43.31429" lon="6.37876">
        <ele>176.9</ele>
        <time>2023-05-07T13:42:12Z</time>
      </trkpt>
      <trkpt lat="43.31434" lon="6.37878">
        <ele>177.6</ele>
        <time>2023-05-07T13:42:21Z</time>
      </trkpt>
      <trkpt lat="43.3144" lon="6.37879">
        <ele>178</ele>
        <time>2023-05-07T13:42:28Z</time>
      </trkpt>
      <trkpt lat="43.31445" lon="6.3788">
        <ele>178.4</ele>
        <time>2023-05-07T13:42:34Z</time>
      </trkpt>
      <trkpt lat="43.3145" lon="6.37881">
        <ele>178.3</ele>
        <time>2023-05-07T13:42:40Z</time>
      </trkpt>
      <trkpt lat="43.31454" lon="6.37882">
        <ele>178.2</ele>
        <time>2023-05-07T13:42:46Z</time>
      </trkpt>
      <trkpt lat="43.31461" lon="6.37883">
        <ele>178</ele>
        <time>2023-05-07T13:42:54Z</time>
      </trkpt>
      <trkpt lat="43.31467" lon="6.37884">
        <ele>177.8</ele>
        <time>2023-05-07T13:43:02Z</time>
      </trkpt>
      <trkpt lat="43.31473" lon="6.37883">
        <ele>177.1</ele>
        <time>2023-05-07T13:43:07Z</time>
      </trkpt>
      <trkpt lat="43.31478" lon="6.37882">
        <ele>176.4</ele>
        <time>2023-05-07T13:43:13Z</time>
      </trkpt>
      <trkpt lat="43.31484" lon="6.37883">
        <ele>176.4</ele>
        <time>2023-05-07T13:43:20Z</time>
      </trkpt>
      <trkpt lat="43.31489" lon="6.37884">
        <ele>176.3</ele>
        <time>2023-05-07T13:43:26Z</time>
      </trkpt>
      <trkpt lat="43.31496" lon="6.37886">
        <ele>176.5</ele>
        <time>2023-05-07T13:43:31Z</time>
      </trkpt>
      <trkpt lat="43.31502" lon="6.37888">
        <ele>176.3</ele>
        <time>2023-05-07T13:43:37Z</time>
      </trkpt>
      <trkpt lat="43.31508" lon="6.37891">
        <ele>175.9</ele>
        <time>2023-05-07T13:43:43Z</time>
      </trkpt>
      <trkpt lat="43.31513" lon="6.37893">
        <ele>175.7</ele>
        <time>2023-05-07T13:43:49Z</time>
      </trkpt>
      <trkpt lat="43.31518" lon="6.37894">
        <ele>175</ele>
        <time>2023-05-07T13:43:54Z</time>
      </trkpt>
      <trkpt lat="43.31523" lon="6.37895">
        <ele>174.4</ele>
        <time>2023-05-07T13:44:00Z</time>
      </trkpt>
      <trkpt lat="43.31529" lon="6.37895">
        <ele>173.4</ele>
        <time>2023-05-07T13:44:05Z</time>
      </trkpt>
      <trkpt lat="43.31534" lon="6.37895">
        <ele>173.5</ele>
        <time>2023-05-07T13:44:10Z</time>
      </trkpt>
      <trkpt lat="43.31539" lon="6.37894">
        <ele>172.9</ele>
        <time>2023-05-07T13:44:14Z</time>
      </trkpt>
      <trkpt lat="43.31544" lon="6.37892">
        <ele>172.3</ele>
        <time>2023-05-07T13:44:20Z</time>
      </trkpt>
      <trkpt lat="43.31549" lon="6.37893">
        <ele>172.5</ele>
        <time>2023-05-07T13:44:25Z</time>
      </trkpt>
      <trkpt lat="43.31553" lon="6.37893">
        <ele>172.8</ele>
        <time>2023-05-07T13:44:29Z</time>
      </trkpt>
      <trkpt lat="43.31558" lon="6.37893">
        <ele>173.5</ele>
        <time>2023-05-07T13:44:33Z</time>
      </trkpt>
      <trkpt lat="43.31563" lon="6.37892">
        <ele>175.2</ele>
        <time>2023-05-07T13:44:38Z</time>
      </trkpt>
      <trkpt lat="43.31567" lon="6.37887">
        <ele>174.8</ele>
        <time>2023-05-07T13:44:42Z</time>
      </trkpt>
      <trkpt lat="43.31571" lon="6.37881">
        <ele>174.6</ele>
        <time>2023-05-07T13:44:47Z</time>
      </trkpt>
      <trkpt lat="43.31574" lon="6.37876">
        <ele>174.1</ele>
        <time>2023-05-07T13:44:51Z</time>
      </trkpt>
      <trkpt lat="43.31577" lon="6.37871">
        <ele>173.7</ele>
        <time>2023-05-07T13:44:56Z</time>
      </trkpt>
      <trkpt lat="43.31581" lon="6.37865">
        <ele>173</ele>
        <time>2023-05-07T13:45:00Z</time>
      </trkpt>
      <trkpt lat="43.31584" lon="6.37858">
        <ele>172.2</ele>
        <time>2023-05-07T13:45:06Z</time>
      </trkpt>
      <trkpt lat="43.31588" lon="6.37851">
        <ele>170.8</ele>
        <time>2023-05-07T13:45:10Z</time>
      </trkpt>
      <trkpt lat="43.31592" lon="6.37843">
        <ele>169.3</ele>
        <time>2023-05-07T13:45:16Z</time>
      </trkpt>
      <trkpt lat="43.31599" lon="6.37836">
        <ele>168.6</ele>
        <time>2023-05-07T13:45:26Z</time>
      </trkpt>
      <trkpt lat="43.31604" lon="6.37834">
        <ele>168.7</ele>
        <time>2023-05-07T13:45:31Z</time>
      </trkpt>
      <trkpt lat="43.31608" lon="6.37831">
        <ele>168.6</ele>
        <time>2023-05-07T13:45:37Z</time>
      </trkpt>
      <trkpt lat="43.31614" lon="6.37829">
        <ele>168.2</ele>
        <time>2023-05-07T13:45:42Z</time>
      </trkpt>
      <trkpt lat="43.31619" lon="6.37826">
        <ele>167.2</ele>
        <time>2023-05-07T13:45:47Z</time>
      </trkpt>
      <trkpt lat="43.31624" lon="6.37824">
        <ele>166.5</ele>
        <time>2023-05-07T13:45:52Z</time>
      </trkpt>
      <trkpt lat="43.31628" lon="6.37822">
        <ele>165.8</ele>
        <time>2023-05-07T13:45:57Z</time>
      </trkpt>
      <trkpt lat="43.31634" lon="6.37822">
        <ele>165.8</ele>
        <time>2023-05-07T13:46:01Z</time>
      </trkpt>
      <trkpt lat="43.31639" lon="6.37822">
        <ele>165.7</ele>
        <time>2023-05-07T13:46:06Z</time>
      </trkpt>
      <trkpt lat="43.31644" lon="6.37823">
        <ele>165.1</ele>
        <time>2023-05-07T13:46:11Z</time>
      </trkpt>
      <trkpt lat="43.31649" lon="6.37823">
        <ele>164.4</ele>
        <time>2023-05-07T13:46:16Z</time>
      </trkpt>
      <trkpt lat="43.31654" lon="6.37826">
        <ele>164.6</ele>
        <time>2023-05-07T13:46:21Z</time>
      </trkpt>
      <trkpt lat="43.31659" lon="6.37829">
        <ele>164.7</ele>
        <time>2023-05-07T13:46:26Z</time>
      </trkpt>
      <trkpt lat="43.31665" lon="6.37834">
        <ele>165.4</ele>
        <time>2023-05-07T13:46:32Z</time>
      </trkpt>
      <trkpt lat="43.3167" lon="6.37838">
        <ele>165.2</ele>
        <time>2023-05-07T13:46:37Z</time>
      </trkpt>
      <trkpt lat="43.31674" lon="6.37843">
        <ele>165.1</ele>
        <time>2023-05-07T13:46:42Z</time>
      </trkpt>
      <trkpt lat="43.31678" lon="6.37847">
        <ele>164.9</ele>
        <time>2023-05-07T13:46:47Z</time>
      </trkpt>
      <trkpt lat="43.31682" lon="6.37854">
        <ele>165.2</ele>
        <time>2023-05-07T13:46:51Z</time>
      </trkpt>
      <trkpt lat="43.31685" lon="6.3786">
        <ele>165.5</ele>
        <time>2023-05-07T13:46:56Z</time>
      </trkpt>
      <trkpt lat="43.31688" lon="6.37866">
        <ele>165.8</ele>
        <time>2023-05-07T13:47:00Z</time>
      </trkpt>
      <trkpt lat="43.31691" lon="6.37871">
        <ele>166.2</ele>
        <time>2023-05-07T13:47:05Z</time>
      </trkpt>
      <trkpt lat="43.31695" lon="6.37875">
        <ele>166</ele>
        <time>2023-05-07T13:47:09Z</time>
      </trkpt>
      <trkpt lat="43.31698" lon="6.37879">
        <ele>167.7</ele>
        <time>2023-05-07T13:47:14Z</time>
      </trkpt>
      <trkpt lat="43.31704" lon="6.37877">
        <ele>168.1</ele>
        <time>2023-05-07T13:47:18Z</time>
      </trkpt>
      <trkpt lat="43.3171" lon="6.37875">
        <ele>168.8</ele>
        <time>2023-05-07T13:47:23Z</time>
      </trkpt>
      <trkpt lat="43.31712" lon="6.37868">
        <ele>168</ele>
        <time>2023-05-07T13:47:27Z</time>
      </trkpt>
      <trkpt lat="43.31713" lon="6.37861">
        <ele>167.3</ele>
        <time>2023-05-07T13:47:32Z</time>
      </trkpt>
      <trkpt lat="43.31714" lon="6.37855">
        <ele>166.9</ele>
        <time>2023-05-07T13:47:36Z</time>
      </trkpt>
      <trkpt lat="43.31714" lon="6.37848">
        <ele>166.5</ele>
        <time>2023-05-07T13:47:41Z</time>
      </trkpt>
      <trkpt lat="43.31716" lon="6.3784">
        <ele>166.3</ele>
        <time>2023-05-07T13:47:45Z</time>
      </trkpt>
      <trkpt lat="43.31717" lon="6.37831">
        <ele>166.5</ele>
        <time>2023-05-07T13:47:51Z</time>
      </trkpt>
      <trkpt lat="43.31716" lon="6.37825">
        <ele>166</ele>
        <time>2023-05-07T13:47:55Z</time>
      </trkpt>
      <trkpt lat="43.31715" lon="6.37818">
        <ele>165.5</ele>
        <time>2023-05-07T13:48:00Z</time>
      </trkpt>
      <trkpt lat="43.31717" lon="6.37811">
        <ele>166.2</ele>
        <time>2023-05-07T13:48:04Z</time>
      </trkpt>
      <trkpt lat="43.31718" lon="6.37804">
        <ele>166.9</ele>
        <time>2023-05-07T13:48:09Z</time>
      </trkpt>
      <trkpt lat="43.31717" lon="6.37797">
        <ele>166.3</ele>
        <time>2023-05-07T13:48:13Z</time>
      </trkpt>
      <trkpt lat="43.31716" lon="6.37789">
        <ele>165.7</ele>
        <time>2023-05-07T13:48:18Z</time>
      </trkpt>
      <trkpt lat="43.31716" lon="6.37782">
        <ele>165.7</ele>
        <time>2023-05-07T13:48:22Z</time>
      </trkpt>
      <trkpt lat="43.31716" lon="6.37774">
        <ele>165.5</ele>
        <time>2023-05-07T13:48:28Z</time>
      </trkpt>
      <trkpt lat="43.31716" lon="6.37767">
        <ele>165.1</ele>
        <time>2023-05-07T13:48:32Z</time>
      </trkpt>
      <trkpt lat="43.31715" lon="6.3776">
        <ele>164.6</ele>
        <time>2023-05-07T13:48:38Z</time>
      </trkpt>
      <trkpt lat="43.31715" lon="6.37753">
        <ele>164.4</ele>
        <time>2023-05-07T13:48:42Z</time>
      </trkpt>
      <trkpt lat="43.31715" lon="6.37746">
        <ele>163.9</ele>
        <time>2023-05-07T13:48:47Z</time>
      </trkpt>
      <trkpt lat="43.31714" lon="6.37739">
        <ele>162.6</ele>
        <time>2023-05-07T13:48:52Z</time>
      </trkpt>
      <trkpt lat="43.31713" lon="6.37732">
        <ele>161.4</ele>
        <time>2023-05-07T13:48:57Z</time>
      </trkpt>
      <trkpt lat="43.31715" lon="6.37726">
        <ele>161.3</ele>
        <time>2023-05-07T13:49:01Z</time>
      </trkpt>
      <trkpt lat="43.31716" lon="6.37719">
        <ele>160.9</ele>
        <time>2023-05-07T13:49:07Z</time>
      </trkpt>
      <trkpt lat="43.3172" lon="6.3771">
        <ele>160.2</ele>
        <time>2023-05-07T13:49:17Z</time>
      </trkpt>
      <trkpt lat="43.31724" lon="6.37706">
        <ele>160</ele>
        <time>2023-05-07T13:49:21Z</time>
      </trkpt>
      <trkpt lat="43.31727" lon="6.37701">
        <ele>159.2</ele>
        <time>2023-05-07T13:49:26Z</time>
      </trkpt>
      <trkpt lat="43.31732" lon="6.37698">
        <ele>158.8</ele>
        <time>2023-05-07T13:49:31Z</time>
      </trkpt>
      <trkpt lat="43.31736" lon="6.37694">
        <ele>158.4</ele>
        <time>2023-05-07T13:49:36Z</time>
      </trkpt>
      <trkpt lat="43.31741" lon="6.37692">
        <ele>158.4</ele>
        <time>2023-05-07T13:49:41Z</time>
      </trkpt>
      <trkpt lat="43.31746" lon="6.3769">
        <ele>158.4</ele>
        <time>2023-05-07T13:49:47Z</time>
      </trkpt>
      <trkpt lat="43.31752" lon="6.37687">
        <ele>158.7</ele>
        <time>2023-05-07T13:49:51Z</time>
      </trkpt>
      <trkpt lat="43.31758" lon="6.37684">
        <ele>159.9</ele>
        <time>2023-05-07T13:49:57Z</time>
      </trkpt>
      <trkpt lat="43.31763" lon="6.3768">
        <ele>160.3</ele>
        <time>2023-05-07T13:50:01Z</time>
      </trkpt>
      <trkpt lat="43.31767" lon="6.37675">
        <ele>160.9</ele>
        <time>2023-05-07T13:50:06Z</time>
      </trkpt>
      <trkpt lat="43.3177" lon="6.37669">
        <ele>160.4</ele>
        <time>2023-05-07T13:50:10Z</time>
      </trkpt>
      <trkpt lat="43.31772" lon="6.37662">
        <ele>160.2</ele>
        <time>2023-05-07T13:50:15Z</time>
      </trkpt>
      <trkpt lat="43.31775" lon="6.37655">
        <ele>160.2</ele>
        <time>2023-05-07T13:50:19Z</time>
      </trkpt>
      <trkpt lat="43.31778" lon="6.37648">
        <ele>160.3</ele>
        <time>2023-05-07T13:50:24Z</time>
      </trkpt>
      <trkpt lat="43.31779" lon="6.37641">
        <ele>159.1</ele>
        <time>2023-05-07T13:50:28Z</time>
      </trkpt>
      <trkpt lat="43.31779" lon="6.37633">
        <ele>157.4</ele>
        <time>2023-05-07T13:50:33Z</time>
      </trkpt>
      <trkpt lat="43.31785" lon="6.37624">
        <ele>153.5</ele>
        <time>2023-05-07T13:50:42Z</time>
      </trkpt>
      <trkpt lat="43.31789" lon="6.3762">
        <ele>151</ele>
        <time>2023-05-07T13:51:10Z</time>
      </trkpt>
      <trkpt lat="43.31793" lon="6.37624">
        <ele>151</ele>
        <time>2023-05-07T13:51:23Z</time>
      </trkpt>
      <trkpt lat="43.31797" lon="6.37628">
        <ele>151.3</ele>
        <time>2023-05-07T13:51:37Z</time>
      </trkpt>
      <trkpt lat="43.31801" lon="6.37633">
        <ele>152.4</ele>
        <time>2023-05-07T13:51:44Z</time>
      </trkpt>
      <trkpt lat="43.31804" lon="6.37638">
        <ele>153.9</ele>
        <time>2023-05-07T13:51:51Z</time>
      </trkpt>
      <trkpt lat="43.31811" lon="6.37641">
        <ele>152.7</ele>
        <time>2023-05-07T13:51:56Z</time>
      </trkpt>
      <trkpt lat="43.31818" lon="6.37644">
        <ele>151.2</ele>
        <time>2023-05-07T13:52:02Z</time>
      </trkpt>
      <trkpt lat="43.31823" lon="6.3765">
        <ele>151.5</ele>
        <time>2023-05-07T13:52:07Z</time>
      </trkpt>
      <trkpt lat="43.31828" lon="6.37655">
        <ele>152</ele>
        <time>2023-05-07T13:52:13Z</time>
      </trkpt>
      <trkpt lat="43.31834" lon="6.37658">
        <ele>151</ele>
        <time>2023-05-07T13:52:17Z</time>
      </trkpt>
      <trkpt lat="43.31839" lon="6.3766">
        <ele>150.1</ele>
        <time>2023-05-07T13:52:22Z</time>
      </trkpt>
      <trkpt lat="43.31845" lon="6.37669">
        <ele>151.1</ele>
        <time>2023-05-07T13:52:31Z</time>
      </trkpt>
      <trkpt lat="43.3185" lon="6.37675">
        <ele>150.8</ele>
        <time>2023-05-07T13:52:35Z</time>
      </trkpt>
      <trkpt lat="43.31855" lon="6.3768">
        <ele>150.4</ele>
        <time>2023-05-07T13:52:40Z</time>
      </trkpt>
      <trkpt lat="43.3186" lon="6.37687">
        <ele>150.4</ele>
        <time>2023-05-07T13:52:47Z</time>
      </trkpt>
      <trkpt lat="43.31864" lon="6.37693">
        <ele>150.8</ele>
        <time>2023-05-07T13:52:53Z</time>
      </trkpt>
      <trkpt lat="43.31868" lon="6.37698">
        <ele>151</ele>
        <time>2023-05-07T13:52:59Z</time>
      </trkpt>
      <trkpt lat="43.31872" lon="6.37703">
        <ele>151.1</ele>
        <time>2023-05-07T13:53:05Z</time>
      </trkpt>
      <trkpt lat="43.31879" lon="6.37707">
        <ele>149.8</ele>
        <time>2023-05-07T13:53:10Z</time>
      </trkpt>
      <trkpt lat="43.31886" lon="6.3771">
        <ele>148.3</ele>
        <time>2023-05-07T13:53:15Z</time>
      </trkpt>
      <trkpt lat="43.31891" lon="6.37716">
        <ele>148.4</ele>
        <time>2023-05-07T13:53:21Z</time>
      </trkpt>
      <trkpt lat="43.31895" lon="6.37722">
        <ele>149.1</ele>
        <time>2023-05-07T13:53:27Z</time>
      </trkpt>
      <trkpt lat="43.319" lon="6.37727">
        <ele>149.5</ele>
        <time>2023-05-07T13:53:33Z</time>
      </trkpt>
      <trkpt lat="43.31904" lon="6.37731">
        <ele>149.8</ele>
        <time>2023-05-07T13:53:39Z</time>
      </trkpt>
      <trkpt lat="43.31911" lon="6.37734">
        <ele>149.3</ele>
        <time>2023-05-07T13:53:44Z</time>
      </trkpt>
      <trkpt lat="43.31917" lon="6.37737">
        <ele>148.7</ele>
        <time>2023-05-07T13:53:49Z</time>
      </trkpt>
      <trkpt lat="43.31923" lon="6.37737">
        <ele>148.5</ele>
        <time>2023-05-07T13:53:54Z</time>
      </trkpt>
      <trkpt lat="43.31928" lon="6.37736">
        <ele>148.3</ele>
        <time>2023-05-07T13:53:59Z</time>
      </trkpt>
      <trkpt lat="43.31933" lon="6.37735">
        <ele>148</ele>
        <time>2023-05-07T13:54:03Z</time>
      </trkpt>
      <trkpt lat="43.31938" lon="6.37734">
        <ele>147.7</ele>
        <time>2023-05-07T13:54:08Z</time>
      </trkpt>
      <trkpt lat="43.31946" lon="6.37729">
        <ele>146.2</ele>
        <time>2023-05-07T13:54:17Z</time>
      </trkpt>
      <trkpt lat="43.31951" lon="6.37729">
        <ele>145.3</ele>
        <time>2023-05-07T13:54:21Z</time>
      </trkpt>
      <trkpt lat="43.31956" lon="6.37728">
        <ele>144.4</ele>
        <time>2023-05-07T13:54:27Z</time>
      </trkpt>
      <trkpt lat="43.31961" lon="6.37732">
        <ele>144.3</ele>
        <time>2023-05-07T13:54:32Z</time>
      </trkpt>
      <trkpt lat="43.31966" lon="6.37736">
        <ele>144.1</ele>
        <time>2023-05-07T13:54:38Z</time>
      </trkpt>
      <trkpt lat="43.31973" lon="6.37738">
        <ele>143.3</ele>
        <time>2023-05-07T13:54:43Z</time>
      </trkpt>
      <trkpt lat="43.31979" lon="6.3774">
        <ele>144</ele>
        <time>2023-05-07T13:54:49Z</time>
      </trkpt>
      <trkpt lat="43.31984" lon="6.37738">
        <ele>143.9</ele>
        <time>2023-05-07T13:54:53Z</time>
      </trkpt>
      <trkpt lat="43.31989" lon="6.37736">
        <ele>143.9</ele>
        <time>2023-05-07T13:54:58Z</time>
      </trkpt>
      <trkpt lat="43.31995" lon="6.37735">
        <ele>143.9</ele>
        <time>2023-05-07T13:55:03Z</time>
      </trkpt>
      <trkpt lat="43.32" lon="6.37733">
        <ele>143.9</ele>
        <time>2023-05-07T13:55:08Z</time>
      </trkpt>
      <trkpt lat="43.32005" lon="6.37733">
        <ele>143.3</ele>
        <time>2023-05-07T13:55:12Z</time>
      </trkpt>
      <trkpt lat="43.3201" lon="6.37733">
        <ele>142.6</ele>
        <time>2023-05-07T13:55:18Z</time>
      </trkpt>
      <trkpt lat="43.32015" lon="6.37733">
        <ele>142</ele>
        <time>2023-05-07T13:55:22Z</time>
      </trkpt>
      <trkpt lat="43.3202" lon="6.37733">
        <ele>141.3</ele>
        <time>2023-05-07T13:55:28Z</time>
      </trkpt>
      <trkpt lat="43.32024" lon="6.3773">
        <ele>140.2</ele>
        <time>2023-05-07T13:55:32Z</time>
      </trkpt>
      <trkpt lat="43.32028" lon="6.37727">
        <ele>139</ele>
        <time>2023-05-07T13:55:37Z</time>
      </trkpt>
      <trkpt lat="43.32033" lon="6.37723">
        <ele>138.1</ele>
        <time>2023-05-07T13:55:41Z</time>
      </trkpt>
      <trkpt lat="43.32037" lon="6.37719">
        <ele>137.6</ele>
        <time>2023-05-07T13:55:46Z</time>
      </trkpt>
      <trkpt lat="43.32042" lon="6.37718">
        <ele>137.5</ele>
        <time>2023-05-07T13:55:51Z</time>
      </trkpt>
      <trkpt lat="43.32047" lon="6.37716">
        <ele>137.4</ele>
        <time>2023-05-07T13:55:57Z</time>
      </trkpt>
      <trkpt lat="43.32052" lon="6.37719">
        <ele>137.7</ele>
        <time>2023-05-07T13:56:02Z</time>
      </trkpt>
      <trkpt lat="43.32057" lon="6.37722">
        <ele>137.8</ele>
        <time>2023-05-07T13:56:07Z</time>
      </trkpt>
      <trkpt lat="43.32062" lon="6.37722">
        <ele>137.3</ele>
        <time>2023-05-07T13:56:19Z</time>
      </trkpt>
      <trkpt lat="43.32066" lon="6.37722">
        <ele>136.9</ele>
        <time>2023-05-07T13:56:29Z</time>
      </trkpt>
      <trkpt lat="43.32064" lon="6.37725">
        <ele>137.3</ele>
        <time>2023-05-07T13:56:57Z</time>
      </trkpt>
      <trkpt lat="43.32064" lon="6.37721">
        <ele>137</ele>
        <time>2023-05-07T13:57:49Z</time>
      </trkpt>
      <trkpt lat="43.32066" lon="6.37726">
        <ele>137.2</ele>
        <time>2023-05-07T13:58:32Z</time>
      </trkpt>
      <trkpt lat="43.3207" lon="6.37726">
        <ele>136.8</ele>
        <time>2023-05-07T13:59:40Z</time>
      </trkpt>
      <trkpt lat="43.32072" lon="6.3773">
        <ele>136.9</ele>
        <time>2023-05-07T14:00:10Z</time>
      </trkpt>
      <trkpt lat="43.32078" lon="6.37729">
        <ele>136.3</ele>
        <time>2023-05-07T14:00:17Z</time>
      </trkpt>
      <trkpt lat="43.32083" lon="6.37727">
        <ele>135.5</ele>
        <time>2023-05-07T14:00:24Z</time>
      </trkpt>
      <trkpt lat="43.32089" lon="6.37722">
        <ele>134.6</ele>
        <time>2023-05-07T14:00:40Z</time>
      </trkpt>
      <trkpt lat="43.32095" lon="6.37722">
        <ele>134.1</ele>
        <time>2023-05-07T14:00:47Z</time>
      </trkpt>
      <trkpt lat="43.32101" lon="6.37722">
        <ele>133.7</ele>
        <time>2023-05-07T14:00:54Z</time>
      </trkpt>
      <trkpt lat="43.32106" lon="6.37727">
        <ele>133.5</ele>
        <time>2023-05-07T14:00:59Z</time>
      </trkpt>
      <trkpt lat="43.32111" lon="6.37731">
        <ele>133</ele>
        <time>2023-05-07T14:01:04Z</time>
      </trkpt>
      <trkpt lat="43.32115" lon="6.37735">
        <ele>132.8</ele>
        <time>2023-05-07T14:01:09Z</time>
      </trkpt>
      <trkpt lat="43.32118" lon="6.37739">
        <ele>132.7</ele>
        <time>2023-05-07T14:01:15Z</time>
      </trkpt>
      <trkpt lat="43.32123" lon="6.37743">
        <ele>132.7</ele>
        <time>2023-05-07T14:01:20Z</time>
      </trkpt>
      <trkpt lat="43.32127" lon="6.37747">
        <ele>132.8</ele>
        <time>2023-05-07T14:01:26Z</time>
      </trkpt>
      <trkpt lat="43.32132" lon="6.37745">
        <ele>132.6</ele>
        <time>2023-05-07T14:01:32Z</time>
      </trkpt>
      <trkpt lat="43.32136" lon="6.37743">
        <ele>132.3</ele>
        <time>2023-05-07T14:01:38Z</time>
      </trkpt>
      <trkpt lat="43.32139" lon="6.37738">
        <ele>131.7</ele>
        <time>2023-05-07T14:01:42Z</time>
      </trkpt>
      <trkpt lat="43.32142" lon="6.37733">
        <ele>131.1</ele>
        <time>2023-05-07T14:01:48Z</time>
      </trkpt>
      <trkpt lat="43.32146" lon="6.37729">
        <ele>130.4</ele>
        <time>2023-05-07T14:01:53Z</time>
      </trkpt>
      <trkpt lat="43.3215" lon="6.37724">
        <ele>129.8</ele>
        <time>2023-05-07T14:01:59Z</time>
      </trkpt>
      <trkpt lat="43.32154" lon="6.37726">
        <ele>129.9</ele>
        <time>2023-05-07T14:02:08Z</time>
      </trkpt>
      <trkpt lat="43.32159" lon="6.37727">
        <ele>129.8</ele>
        <time>2023-05-07T14:02:12Z</time>
      </trkpt>
      <trkpt lat="43.32163" lon="6.37727">
        <ele>129.6</ele>
        <time>2023-05-07T14:02:16Z</time>
      </trkpt>
      <trkpt lat="43.32169" lon="6.37729">
        <ele>129.6</ele>
        <time>2023-05-07T14:02:20Z</time>
      </trkpt>
      <trkpt lat="43.32174" lon="6.3773">
        <ele>129.4</ele>
        <time>2023-05-07T14:02:25Z</time>
      </trkpt>
      <trkpt lat="43.3218" lon="6.37735">
        <ele>129.5</ele>
        <time>2023-05-07T14:02:29Z</time>
      </trkpt>
      <trkpt lat="43.32185" lon="6.37739">
        <ele>129.4</ele>
        <time>2023-05-07T14:02:34Z</time>
      </trkpt>
      <trkpt lat="43.3219" lon="6.37745">
        <ele>129.3</ele>
        <time>2023-05-07T14:02:39Z</time>
      </trkpt>
      <trkpt lat="43.32194" lon="6.3775">
        <ele>129</ele>
        <time>2023-05-07T14:02:44Z</time>
      </trkpt>
      <trkpt lat="43.322" lon="6.37753">
        <ele>129.2</ele>
        <time>2023-05-07T14:02:48Z</time>
      </trkpt>
      <trkpt lat="43.32205" lon="6.37756">
        <ele>129.3</ele>
        <time>2023-05-07T14:02:53Z</time>
      </trkpt>
      <trkpt lat="43.32209" lon="6.37761">
        <ele>129.6</ele>
        <time>2023-05-07T14:02:58Z</time>
      </trkpt>
      <trkpt lat="43.32212" lon="6.37766">
        <ele>129.8</ele>
        <time>2023-05-07T14:03:03Z</time>
      </trkpt>
      <trkpt lat="43.32217" lon="6.37772">
        <ele>129.9</ele>
        <time>2023-05-07T14:03:08Z</time>
      </trkpt>
      <trkpt lat="43.32222" lon="6.37777">
        <ele>130</ele>
        <time>2023-05-07T14:03:13Z</time>
      </trkpt>
    </trkseg>
  </trk>
</gpx>